[[{"header":{"parameterUnit":"m.s-1","parameterCategory":1,"la1":30.6,"la2":29.2853,"lo1":-89.7004,"lo2":-87.6739,"dy":0.0162,"dx":0.0183,"nx":112,"ny":82,"refTime":"2024-07-25T06:00:00:Z","depth":0,"parameterNumber":2,"parameterNumberName":"U-component_of_WINDS"},"data":[0.0,0.0,0.0,0.0,0.0,0.0,0.0,0.0,0.0,0.0,0.0,0.0,0.0,0.0,0.0,0.0,0.0,0.0,0.0,0.0,0.0,0.0,0.0,0.0,0.0,0.0,0.0,0.0,0.0,0.0,0.0,0.0,0.0,0.0,0.0,0.0,0.0,0.0,0.0,0.0,0.0,0.0,0.0,0.0,0.0,0.0,0.0,0.0,0.0,0.0,0.0,0.0,0.0,0.0,0.0,0.0,0.0,0.0,0.0,0.0,0.0,0.0,0.0,0.0,0.0,0.0,0.0,0.0,0.0,0.0,0.0,0.0,0.0,0.0,0.0,0.0,0.0,0.0,0.0,0.0,0.0,0.0,0.0,0.0,0.0,0.0,0.0,0.0,0.0,0.0,-0.6848,-0.7981,-0.9097,-0.9799,-0.9896,-0.9196,-0.8078,-0.6477,0.0,0.0,0.0,0.0,0.0,0.0,0.0,0.0,0.0,0.0,0.0,0.0,0.0,0.0,0.0,0.0,0.0,0.0,0.0,0.0,0.0,0.0,0.0,0.0,0.0,0.0,0.0,0.0,0.0,0.0,0.0,0.0,0.0,0.0,0.0,0.0,0.0,0.0,0.0,0.0,0.0,0.0,0.0,0.0,0.0,0.0,0.0,0.0,0.0,0.0,0.0,0.0,0.0,0.0,0.0,0.0,0.0,0.0,0.0,0.0,0.0,0.0,0.0,0.0,0.0,0.0,0.0,0.0,0.0,0.0,0.0,0.0,0.0,0.0,0.0,0.0,0.0,0.0,0.0,0.0,0.0,0.0,0.0,0.0,0.0,0.0,0.0,0.0,0.0,0.0,0.0,0.0,0.0,0.0,0.0,0.0,0.0,0.0,0.0,0.0,0.0,0.0,0.0,0.0,-0.8154,-1.0173,-1.0433,-1.0553,-1.0772,-0.9712,-0.8372,-0.6832,0.0,0.0,0.0,0.0,0.0,0.0,0.0,0.0,0.0,0.0,0.0,0.0,0.0,0.0,0.0,0.0,0.0,0.0,0.0,0.0,0.0,0.0,0.0,0.0,0.0,0.0,0.0,0.0,0.0,0.0,0.0,0.0,0.0,0.0,0.0,0.0,0.0,0.0,0.0,0.0,0.0,0.0,0.0,0.0,0.0,0.0,0.0,0.0,0.0,0.0,0.0,0.0,0.0,0.0,0.0,0.0,0.0,0.0,0.0,0.0,0.0,0.0,0.0,0.0,0.0,0.0,0.0,0.0,0.0,0.0,0.0,0.0,0.0,0.0,0.0,0.0,0.0,0.0,0.0,0.0,0.0,0.0,0.0,0.0,0.0,0.0,0.0,0.0,0.0,0.0,0.0,0.0,0.0,0.0,0.0,0.0,0.0,0.0,0.0,0.0,0.0,0.0,0.0,-0.7174,-0.8791,-1.0892,-1.1001,-1.1078,-1.1454,-1.0249,-0.8856,-0.7381,-0.6029,0.0,0.0,0.0,0.0,0.0,0.0,0.0,0.0,0.0,0.0,0.0,0.0,0.0,0.0,0.0,0.0,0.0,0.0,0.0,0.0,0.0,0.0,0.0,0.0,0.0,0.0,0.0,0.0,0.0,0.0,0.0,0.0,0.0,0.0,0.0,0.0,0.0,0.0,0.0,0.0,0.0,0.0,0.0,0.0,0.0,0.0,0.0,0.0,0.0,0.0,0.0,0.0,0.0,0.0,0.0,0.0,0.0,0.0,0.0,0.0,0.0,0.0,0.0,0.0,0.0,0.0,0.0,0.0,0.0,0.0,0.0,0.0,0.0,0.0,0.0,0.0,0.0,0.0,0.0,0.0,0.0,0.0,0.0,0.0,0.0,0.0,0.0,0.0,0.0,0.0,0.0,0.0,0.0,0.0,0.0,0.0,0.0,0.0,0.0,0.0,0.0,0.0,-0.8268,-0.916,-1.1238,-1.1259,-1.1351,-1.192,-1.0496,-0.9057,-0.7851,-0.6079,0.0,0.0,0.0,0.0,0.0,0.0,0.0,0.0,0.0,0.0,0.0,0.0,0.0,0.0,0.0,0.0,0.0,0.0,0.0,0.0,0.0,0.0,0.0,0.0,0.0,0.0,0.0,0.0,0.0,0.0,0.0,0.0,0.0,0.0,0.0,0.0,0.0,0.0,0.0,0.0,0.0,0.0,0.0,0.0,0.0,0.0,0.0,0.0,0.0,0.0,0.0,0.0,0.0,0.0,0.0,0.0,0.0,0.0,0.0,0.0,0.0,0.0,0.0,0.0,0.0,0.0,0.0,0.0,0.0,0.0,0.0,0.0,0.0,0.0,0.0,0.0,0.0,0.0,0.0,0.0,0.0,0.0,0.0,0.0,0.0,0.0,0.0,0.0,0.0,0.0,0.0,0.0,0.0,0.0,0.0,0.0,0.0,0.0,0.0,0.0,0.0,0.0,-0.8687,-0.9449,-1.1707,-1.1341,-1.1269,-1.2099,-1.0157,-0.8623,-0.8023,-0.5938,0.0,0.0,0.0,0.0,0.0,0.0,0.0,0.0,0.0,0.0,0.0,0.0,0.0,0.0,0.0,0.0,0.0,0.0,0.0,0.0,0.0,0.0,0.0,0.0,0.0,0.0,0.0,0.0,0.0,0.0,0.0,0.0,0.0,0.0,0.0,0.0,0.0,0.0,0.0,0.0,0.0,0.0,0.0,0.0,0.0,0.0,0.0,0.0,0.0,0.0,0.0,0.0,0.0,0.0,0.0,0.0,0.0,0.0,0.0,0.0,0.0,0.0,0.0,0.0,0.0,0.0,0.0,0.0,0.0,0.0,0.0,0.0,0.0,0.0,0.0,0.0,0.0,0.0,0.0,0.0,0.0,0.0,0.0,0.0,0.0,0.0,0.0,0.0,0.0,0.0,0.0,0.0,0.0,0.0,0.0,0.0,0.0,0.0,0.0,0.0,0.0,0.0,-0.9032,-0.9787,-1.1735,-1.1392,-1.1253,-1.1831,-1.0409,-0.8989,-0.7827,0.0,0.0,0.0,0.0,0.0,0.0,0.0,0.0,0.0,0.0,0.0,0.0,0.0,0.0,0.0,0.0,0.0,0.0,0.0,0.0,0.0,0.0,0.0,0.0,0.0,0.0,0.0,0.0,0.0,0.0,0.0,0.0,0.0,0.0,0.0,0.0,0.0,0.0,0.0,0.0,0.0,0.0,0.0,0.0,0.0,0.0,0.0,0.0,0.0,0.0,0.0,0.0,0.0,0.0,0.0,0.0,0.0,0.0,0.0,0.0,0.0,0.0,0.0,0.0,0.0,0.0,0.0,0.0,0.0,0.0,0.0,0.0,0.0,0.0,0.0,0.0,0.0,0.0,0.0,0.0,0.0,0.0,0.0,0.0,0.0,0.0,0.0,0.0,0.0,0.0,0.0,0.0,0.0,0.0,0.0,0.0,0.0,0.0,0.0,0.0,0.0,0.0,-0.9295,-0.9515,-1.0214,-1.2017,-1.1675,-1.1508,-1.1979,-1.0723,-0.9323,-0.7969,0.0,0.0,0.0,0.0,0.0,0.0,0.0,0.0,0.0,0.0,0.0,0.0,0.0,0.0,0.0,0.0,0.0,0.0,0.0,0.0,0.0,0.0,0.0,0.0,0.0,0.0,0.0,0.0,0.0,0.0,0.0,0.0,0.0,0.0,0.0,0.0,0.0,0.0,0.0,0.0,0.0,0.0,0.0,0.0,0.0,0.0,0.0,0.0,0.0,0.0,0.0,0.0,0.0,0.0,0.0,0.0,0.0,0.0,0.0,0.0,0.0,0.0,0.0,0.0,0.0,0.0,0.0,0.0,0.0,0.0,0.0,0.0,0.0,0.0,0.0,0.0,0.0,0.0,0.0,0.0,0.0,0.0,0.0,0.0,0.0,0.0,0.0,0.0,0.0,0.0,0.0,0.0,0.0,0.0,0.0,0.0,0.0,0.0,0.0,0.0,0.0,0.0,-1.0025,-1.0134,-1.0755,-1.2692,-1.2243,-1.2036,-1.2635,-1.0978,-0.9504,0.0,0.0,0.0,0.0,0.0,0.0,0.0,0.0,0.0,0.0,0.0,0.0,0.0,0.0,0.0,0.0,0.0,0.0,0.0,0.0,0.0,0.0,0.0,0.0,0.0,0.0,0.0,0.0,0.0,0.0,0.0,0.0,0.0,0.0,0.0,0.0,0.0,0.0,0.0,0.0,0.0,0.0,0.0,0.0,0.0,0.0,0.0,0.0,0.0,0.0,0.0,0.0,0.0,0.0,0.0,0.0,0.0,0.0,0.0,0.0,0.0,0.0,0.0,0.0,0.0,0.0,0.0,0.0,0.0,0.0,0.0,0.0,0.0,0.0,0.0,0.0,0.0,0.0,0.0,0.0,0.0,0.0,0.0,0.0,0.0,0.0,0.0,0.0,0.0,0.0,0.0,0.0,0.0,0.0,0.0,0.0,0.0,0.0,0.0,0.0,0.0,0.0,0.0,-1.0253,-1.0543,-1.1087,-1.2472,-1.2253,-1.2085,-1.2257,-1.0903,-0.9648,-0.8709,0.0,0.0,0.0,0.0,0.0,0.0,0.0,0.0,0.0,0.0,0.0,0.0,0.0,0.0,0.0,0.0,0.0,0.0,0.0,0.0,0.0,0.0,0.0,0.0,0.0,0.0,0.0,0.0,0.0,0.0,0.0,0.0,0.0,0.0,0.0,0.0,0.0,0.0,0.0,0.0,0.0,0.0,0.0,0.0,0.0,0.0,0.0,0.0,0.0,0.0,0.0,0.0,0.0,0.0,0.0,0.0,0.0,0.0,0.0,0.0,0.0,0.0,0.0,0.0,0.0,0.0,0.0,0.0,0.0,0.0,0.0,0.0,0.0,0.0,0.0,0.0,0.0,0.0,0.0,0.0,0.0,0.0,0.0,0.0,0.0,0.0,0.0,0.0,0.0,0.0,0.0,0.0,0.0,0.0,0.0,0.0,0.0,0.0,0.0,0.0,0.0,0.0,-1.0657,-1.1261,-1.1854,-1.274,-1.2607,-1.2437,-1.238,-1.147,-1.0368,-0.9127,0.0,0.0,0.0,0.0,0.0,0.0,0.0,0.0,0.0,0.0,0.0,0.0,0.0,0.0,0.0,0.0,0.0,0.0,0.0,0.0,0.0,0.0,0.0,0.0,0.0,0.0,0.0,0.0,0.0,0.0,0.0,0.0,0.0,0.0,0.0,0.0,0.0,0.0,0.0,0.0,0.0,0.0,0.0,0.0,0.0,0.0,0.0,0.0,0.0,0.0,0.0,0.0,0.0,0.0,0.0,0.0,0.0,0.0,0.0,0.0,0.0,0.0,0.0,0.0,0.0,0.0,0.0,0.0,0.0,0.0,0.0,0.0,0.0,0.0,0.0,0.0,0.0,0.0,0.0,0.0,0.0,0.0,0.0,0.0,0.0,0.0,0.0,0.0,0.0,0.0,0.0,0.0,0.0,0.0,0.0,0.0,0.0,0.0,0.0,0.0,0.0,0.0,-1.115,-1.2139,-1.2803,-1.3277,-1.3159,-1.301,-1.2887,-1.2395,-1.141,-0.9809,0.0,0.0,0.0,0.0,0.0,0.0,0.0,0.0,0.0,0.0,0.0,0.0,0.0,0.0,0.0,0.0,0.0,0.0,0.0,0.0,0.0,0.0,0.0,0.0,0.0,0.0,0.0,0.0,0.0,0.0,0.0,0.0,0.0,0.0,0.0,0.0,0.0,0.0,0.0,0.0,0.0,0.0,0.0,0.0,0.0,0.0,0.0,0.0,0.0,0.0,0.0,0.0,0.0,0.0,0.0,0.0,0.0,0.0,0.0,0.0,-1.0954,-1.0147,0.0,0.0,0.0,0.0,0.0,0.0,0.0,0.0,0.0,0.0,0.0,0.0,0.0,0.0,0.0,0.0,0.0,0.0,0.0,0.0,0.0,0.0,0.0,0.0,0.0,0.0,0.0,0.0,0.0,0.0,0.0,0.0,0.0,0.0,0.0,0.0,0.0,0.0,0.0,0.0,-1.1432,-1.2341,-1.3019,-1.3492,-1.3491,-1.346,-1.3419,-1.2557,-1.1581,-1.0527,-0.9031,0.0,0.0,0.0,0.0,0.0,0.0,0.0,0.0,0.0,0.0,0.0,0.0,0.0,0.0,0.0,0.0,0.0,0.0,0.0,0.0,0.0,0.0,0.0,0.0,0.0,0.0,0.0,0.0,0.0,0.0,0.0,0.0,0.0,0.0,0.0,0.0,0.0,0.0,0.0,0.0,0.0,0.0,0.0,0.0,0.0,0.0,0.0,0.0,0.0,0.0,0.0,0.0,0.0,0.0,0.0,0.0,0.0,0.0,0.0,-1.2405,-1.1493,0.0,0.0,0.0,0.0,0.0,0.0,0.0,0.0,0.0,0.0,0.0,0.0,0.0,0.0,0.0,0.0,0.0,0.0,0.0,0.0,0.0,0.0,0.0,0.0,0.0,0.0,0.0,0.0,0.0,0.0,0.0,0.0,0.0,0.0,0.0,0.0,0.0,0.0,0.0,0.0,-1.1761,-1.2959,-1.3745,-1.3828,-1.3838,-1.3783,-1.3601,-1.3099,-1.2405,-1.1524,-1.0165,0.0,0.0,0.0,0.0,0.0,0.0,0.0,0.0,0.0,0.0,0.0,0.0,0.0,0.0,0.0,0.0,0.0,0.0,0.0,0.0,0.0,0.0,0.0,0.0,0.0,0.0,0.0,0.0,0.0,0.0,0.0,0.0,0.0,0.0,0.0,0.0,0.0,0.0,0.0,0.0,0.0,0.0,0.0,0.0,0.0,0.0,0.0,0.0,0.0,0.0,0.0,0.0,0.0,-1.5693,-1.5848,-1.5896,-1.6051,-1.6143,-1.6128,-1.4562,-1.3582,-1.3015,-1.2221,0.0,0.0,0.0,0.0,0.0,0.0,0.0,0.0,0.0,0.0,0.0,0.0,0.0,0.0,0.0,0.0,0.0,0.0,0.0,0.0,0.0,0.0,-1.4565,-1.4508,-1.5055,-1.4891,-1.2331,0.0,0.0,0.0,0.0,0.0,0.0,0.0,0.0,0.0,0.0,0.0,-1.2061,-1.3596,-1.4512,-1.4216,-1.4184,-1.4056,-1.3777,-1.3743,-1.3352,-1.2487,-1.156,-1.0432,0.0,0.0,0.0,0.0,0.0,0.0,0.0,0.0,0.0,0.0,0.0,0.0,0.0,0.0,0.0,0.0,0.0,0.0,0.0,0.0,0.0,0.0,0.0,0.0,0.0,0.0,0.0,0.0,0.0,0.0,0.0,0.0,-0.8466,-0.8661,0.0,0.0,0.0,0.0,0.0,0.0,0.0,0.0,0.0,0.0,0.0,0.0,0.0,-1.4007,-1.4929,-1.586,-1.6371,-1.6511,-1.7972,-1.8655,-1.8697,-1.9456,-1.9803,-1.9802,-1.9546,0.0,-1.4927,-1.4811,0.0,0.0,0.0,0.0,0.0,0.0,0.0,0.0,0.0,0.0,0.0,0.0,0.0,0.0,0.0,0.0,0.0,0.0,0.0,0.0,0.0,0.0,-1.7286,-1.7261,-1.7396,-1.7195,-1.6017,-1.4514,-1.31,-1.1993,-1.0715,-0.9754,0.0,0.0,0.0,0.0,0.0,0.0,-1.2289,-1.3746,-1.4702,-1.4552,-1.4482,-1.4436,-1.4396,-1.4271,-1.3835,-1.2963,-1.2605,-1.1978,-1.0975,-0.9546,0.0,0.0,0.0,0.0,0.0,0.0,0.0,0.0,0.0,0.0,0.0,0.0,0.0,0.0,0.0,0.0,0.0,0.0,0.0,0.0,0.0,0.0,0.0,0.0,0.0,0.0,0.0,0.0,0.0,-0.8464,-0.9653,-0.9682,-1.0425,-1.0603,0.0,0.0,0.0,0.0,0.0,0.0,0.0,0.0,0.0,-1.5527,-1.5566,-1.5975,-1.6852,-1.8176,-1.8837,-1.8856,-2.0574,-2.1393,-2.1393,-2.1784,-2.1962,-2.1966,-2.1966,-2.1082,-1.9527,-1.7614,-1.6306,-1.5429,0.0,0.0,0.0,0.0,-1.4884,-1.4923,-1.5916,-1.5935,-1.5587,-1.6007,0.0,0.0,0.0,0.0,0.0,0.0,0.0,-1.6177,-1.6556,-1.7616,-1.8596,-1.859,-1.8981,-1.9114,-1.8211,-1.7324,-1.6009,-1.3653,-1.2617,-1.1811,-1.0898,-1.0832,0.0,0.0,0.0,-1.3268,-1.3214,-1.4232,-1.4925,-1.4776,-1.4714,-1.465,-1.4561,-1.4506,-1.4296,-1.3866,-1.3308,-1.2759,-1.2281,-1.1077,-1.0094,0.0,0.0,0.0,0.0,0.0,0.0,0.0,0.0,0.0,0.0,0.0,0.0,0.0,0.0,0.0,0.0,0.0,0.0,0.0,0.0,0.0,0.0,0.0,0.0,0.0,0.0,0.0,0.0,-0.9508,-1.0625,-1.0602,-1.1572,-1.1956,0.0,0.0,0.0,0.0,0.0,0.0,-1.4749,-1.5789,-1.681,-1.7673,-1.7908,-1.8418,-1.9297,-2.0546,-2.1171,-2.1171,-2.2713,-2.3435,-2.3435,-2.3669,-2.3768,-2.3769,-2.3769,-2.3633,-2.3203,-2.0215,-1.8594,-1.7929,-1.7051,-1.6738,-1.6816,-1.7461,-1.7422,-1.7226,-1.8515,-1.8554,-1.8046,-1.8262,-1.7891,-1.7246,-1.6581,0.0,0.0,0.0,0.0,-1.7714,-1.7948,-1.8763,-1.9536,-1.9532,-2.0034,-2.032,-1.9666,-1.9331,-1.8314,-1.5458,-1.4715,-1.4162,-1.2926,-1.3014,0.0,-1.2464,-1.3605,-1.4538,-1.4538,-1.5264,-1.5731,-1.5635,-1.5565,-1.5485,-1.5384,-1.5143,-1.4971,-1.4905,-1.4098,-1.3553,-1.3409,-1.2504,-1.1533,-1.0552,0.0,0.0,0.0,0.0,0.0,0.0,0.0,0.0,0.0,0.0,0.0,0.0,0.0,0.0,0.0,0.0,0.0,0.0,0.0,0.0,0.0,0.0,0.0,0.0,0.0,0.0,0.0,0.0,0.0,-1.1456,-1.2947,0.0,0.0,0.0,0.0,-1.5113,-1.5963,-1.6475,-1.6475,-1.8142,-1.95,-2.038,-2.1149,-2.1952,-2.283,-2.2929,-2.2967,-2.2986,-2.3903,-2.4333,-2.4352,-2.5192,-2.5566,-2.5566,-2.5566,-2.5094,-2.4186,-2.2363,-2.1581,-2.1464,-2.0644,-2.0332,-2.0332,-2.039,-2.0859,-2.1484,-2.1581,-2.1581,-2.1679,-2.2519,-2.1147,-1.9151,-1.912,-1.8532,0.0,0.0,-2.0312,-2.0506,-2.134,-2.0998,-2.0421,-2.042,-2.0472,-2.0497,-2.0435,-1.9823,-1.8963,-1.7819,-1.6939,-1.635,-1.6254,0.0,-1.5069,-1.5003,-1.5724,-1.6272,-1.6272,-1.7031,-1.7561,-1.7561,-1.7501,-1.7456,-1.7452,-1.6622,-1.6097,-1.6015,-1.5206,-1.4656,-1.4524,-1.3614,-1.2688,-1.1739,-1.0186,0.0,0.0,0.0,0.0,0.0,0.0,0.0,0.0,0.0,0.0,0.0,0.0,0.0,0.0,0.0,0.0,0.0,0.0,0.0,0.0,0.0,0.0,0.0,0.0,0.0,0.0,0.0,0.0,-1.3171,-1.4641,0.0,-1.4837,-1.5604,-1.6366,-1.6936,-1.8337,-1.9411,-1.9976,-2.1116,-2.1881,-2.2193,-2.2491,-2.2785,-2.3097,-2.3666,-2.3941,-2.3941,-2.482,-2.523,-2.525,-2.5562,-2.5698,-2.5695,-2.5695,-2.5516,-2.5199,-2.4563,-2.3647,-2.2613,-2.2319,-2.2202,-2.2202,-2.2202,-2.2397,-2.2632,-2.2632,-2.2632,-2.269,-2.3001,-2.2489,-2.1745,-2.175,-2.1534,-2.1414,-2.2022,-2.2182,-2.2242,-2.2557,-2.2011,-2.1406,-2.1406,-2.0976,-2.0566,-2.0566,-2.0332,-2.0018,-1.9625,-1.839,-1.7223,-1.6665,-1.6776,-1.6728,-1.6138,-1.675,-1.7293,-1.7293,-1.7575,-1.7767,-1.7767,-1.7703,-1.765,-1.7606,-1.678,-1.6236,-1.6167,-1.5393,-1.4873,-1.4738,-1.4409,-1.3541,-1.2091,-1.1411,-1.0123,0.0,0.0,0.0,0.0,0.0,0.0,0.0,0.0,0.0,0.0,0.0,0.0,0.0,0.0,0.0,0.0,0.0,0.0,0.0,0.0,0.0,0.0,0.0,0.0,0.0,-1.3953,-1.5518,-1.4915,-1.6637,-1.7643,-1.7018,-1.8041,-1.9008,-1.9579,-2.0759,-2.1696,-2.2261,-2.3088,-2.354,-2.354,-2.3814,-2.3989,-2.3989,-2.4554,-2.4847,-2.4847,-2.5414,-2.5707,-2.5707,-2.5707,-2.5707,-2.5707,-2.5707,-2.5707,-2.5707,-2.5707,-2.5024,-2.3989,-2.3989,-2.3989,-2.3989,-2.3989,-2.3989,-2.3989,-2.3989,-2.3989,-2.3931,-2.3638,-2.354,-2.3482,-2.3189,-2.3306,-2.354,-2.354,-2.354,-2.354,-2.354,-2.2915,-2.2291,-2.2294,-2.1652,-2.1048,-2.1049,-2.0817,-2.0585,-2.0546,-1.9579,-1.8598,-1.8012,-1.8386,-1.8522,-1.7909,-1.8319,-1.8684,-1.8684,-1.8679,-1.8683,-1.8683,-1.8621,-1.8555,-1.8513,-1.742,-1.6735,-1.6707,-1.5654,-1.4987,-1.4892,-1.4621,-1.3775,-1.2307,-1.1602,-1.0435,-0.8771,0.0,0.0,0.0,0.0,0.0,0.0,0.0,0.0,0.0,0.0,0.0,0.0,0.0,0.0,0.0,0.0,0.0,0.0,0.0,0.0,0.0,0.0,0.0,-1.4283,-1.5626,-1.6663,-1.6634,-1.8887,-2.0442,-2.0474,-2.2,-2.3001,-2.304,-2.3098,-2.3155,-2.3176,-2.3979,-2.4436,-2.4436,-2.5257,-2.5707,-2.5707,-2.5707,-2.5707,-2.5707,-2.5707,-2.5707,-2.5707,-2.5707,-2.5707,-2.5707,-2.5707,-2.5707,-2.5707,-2.5707,-2.5707,-2.5707,-2.5707,-2.5707,-2.5707,-2.5707,-2.5707,-2.5707,-2.5707,-2.5707,-2.5551,-2.473,-2.4436,-2.428,-2.3443,-2.3774,-2.4436,-2.4436,-2.4436,-2.4436,-2.4436,-2.3793,-2.313,-2.313,-2.2528,-2.1945,-2.1945,-2.1263,-2.0661,-2.0643,-2.0584,-2.053,-2.0506,-2.0453,-2.0402,-2.04,-2.0408,0.0,-2.0402,-2.0402,-2.0402,-2.0402,-2.0336,-2.0304,-2.0304,-1.8636,-1.763,-1.77,-1.6066,-1.5094,-1.5094,-1.4296,-1.3399,-1.2467,-1.0751,-0.985,-0.9779,0.0,0.0,0.0,0.0,0.0,0.0,0.0,0.0,0.0,0.0,0.0,0.0,0.0,0.0,0.0,0.0,0.0,0.0,0.0,0.0,0.0,-1.5452,-1.6815,-1.5958,-1.7338,-1.8639,-1.9259,-2.0529,-2.1585,-2.2221,-2.2769,-2.3316,-2.3901,-2.4006,-2.4313,-2.4958,-2.5216,-2.5335,-2.5335,-2.559,-2.5707,-2.5707,-2.5707,-2.5707,-2.5707,-2.5707,-2.5707,-2.5707,-2.5707,-2.5707,-2.5707,-2.5707,-2.5707,-2.5707,-2.5707,-2.5707,-2.5707,-2.5707,-2.5707,-2.5707,-2.5707,-2.5707,-2.5707,-2.5707,-2.5707,-2.5668,-2.5414,-2.5335,-2.5297,-2.5063,-2.5141,-2.5335,-2.5335,-2.5335,-2.5335,-2.5335,-2.4691,-2.4047,-2.4047,-2.3384,-2.2761,-2.2761,-2.2589,-2.224,-2.1657,-2.1523,-2.1307,-2.0629,-2.0483,-2.0465,-2.0411,-2.0405,-2.0399,-2.0408,-2.0402,-2.0402,-2.0402,-2.0389,-2.0346,-2.0307,-1.8726,-1.7736,-1.7707,-1.606,-1.5095,-1.5095,-1.4867,-1.4274,-1.3279,-1.2237,-1.1648,0.0,0.0,0.0,0.0,0.0,0.0,0.0,0.0,0.0,0.0,0.0,0.0,0.0,0.0,0.0,0.0,0.0,0.0,0.0,0.0,0.0,0.0,-1.7684,-1.898,-1.9189,-1.9757,-2.0479,-2.138,-2.2258,-2.2983,-2.3493,-2.3936,-2.4381,-2.4849,-2.4919,-2.5179,-2.5668,-2.5707,-2.5707,-2.5707,-2.5707,-2.5707,-2.5707,-2.5707,-2.5707,-2.5707,-2.5707,-2.5707,-2.5707,-2.5707,-2.5707,-2.5707,-2.5707,-2.5707,-2.5707,-2.5707,-2.5707,-2.5707,0.0,0.0,0.0,0.0,-2.5707,-2.5707,-2.5707,-2.5707,-2.5707,-2.5707,-2.5707,-2.5707,-2.5707,-2.5707,-2.5707,-2.5707,-2.5707,-2.5707,-2.5707,-2.5316,-2.4945,-2.4945,-2.4281,-2.3637,-2.3637,-2.3366,-2.2862,-2.2064,-2.1891,0.0,-2.0702,-2.052,-2.0488,-2.0458,-2.0439,-2.0431,-2.0394,-2.0405,-2.0396,-2.0405,-2.0402,-2.0389,-2.0359,-1.9091,0.0,0.0,0.0,-1.5362,-1.467,-1.4584,0.0,0.0,0.0,0.0,0.0,0.0,0.0,0.0,-1.1669,-1.1859,0.0,0.0,0.0,0.0,0.0,0.0,0.0,0.0,0.0,0.0,0.0,0.0,0.0,0.0,0.0,0.0,-1.9981,-2.1279,-2.2919,-2.2436,-2.2211,-2.304,-2.384,-2.4347,-2.4445,-2.5208,-2.5707,-2.5707,-2.5707,-2.5707,-2.5707,-2.5707,0.0,0.0,0.0,-2.5707,-2.5707,-2.5707,-2.5707,-2.5707,-2.5707,-2.5707,-2.5707,-2.5707,-2.5707,-2.5707,-2.5707,-2.5707,-2.5707,-2.5707,-2.5707,-2.5707,-2.5707,-2.5707,-2.5707,-2.5707,-2.5707,-2.5707,-2.5707,0.0,0.0,-2.5707,-2.5707,-2.5707,-2.5707,-2.5707,-2.5707,-2.5707,-2.5707,-2.5707,-2.5707,-2.5707,-2.5707,-2.5707,-2.5101,-2.4553,-2.4553,-2.3949,-2.3151,-2.2335,-2.2104,-2.1755,-2.0897,-2.0623,-2.0517,-2.0496,-2.05,-2.0472,-2.0413,-2.0402,-2.04,-2.0401,-2.0405,0.0,-2.0402,-1.9558,-1.8702,-1.7984,-1.7125,-1.5986,-1.4487,-1.4312,-1.3911,-1.3176,-1.3105,-1.3395,-1.4042,-1.4765,-1.5104,-1.5085,-1.4298,-1.4265,0.0,0.0,0.0,0.0,0.0,0.0,0.0,0.0,0.0,0.0,0.0,0.0,0.0,0.0,0.0,-1.895,-2.0975,-2.2858,-2.3903,-2.3893,-2.3856,-2.4039,-2.4241,-2.4666,-2.537,-2.5588,-2.5707,-2.5707,-2.5707,-2.5707,-2.5707,-2.5707,-2.5707,-2.5707,-2.5707,-2.5707,-2.5707,-2.5707,-2.5707,-2.5707,-2.5707,0.0,-2.5707,-2.5707,-2.5707,-2.5707,-2.5707,-2.5707,-2.5707,-2.5707,-2.5707,-2.5707,-2.5707,-2.5707,-2.5707,-2.5707,-2.5707,-2.5707,-2.5707,-2.5707,-2.5707,-2.5707,-2.5707,-2.5707,-2.5707,-2.5707,0.0,-2.5707,-2.5707,-2.5707,-2.5707,-2.5707,-2.5707,-2.5707,-2.557,-2.5453,-2.5453,-2.5317,-2.4947,-2.4072,-2.3353,-2.2614,-2.1796,-2.1055,-2.0565,-2.0517,-2.0493,-2.0503,-2.0474,-2.0424,-2.0395,-2.0405,-2.0396,-2.0402,-2.0402,-1.9583,-1.9003,-1.8855,-1.804,-1.7404,-1.7083,-1.7045,-1.69,-1.6632,-1.6616,-1.6662,-1.6739,-1.6891,-1.699,-1.6966,-1.6694,-1.6341,0.0,0.0,0.0,0.0,0.0,0.0,0.0,0.0,0.0,0.0,0.0,-1.6064,-1.6473,0.0,-2.0632,-2.1501,-2.2785,-2.3961,-2.4879,-2.4997,-2.5007,-2.5007,-2.5037,-2.5218,-2.5668,-2.5707,-2.5707,-2.5707,-2.5707,-2.5707,-2.5707,-2.5707,-2.5707,-2.5707,-2.5707,-2.5707,-2.5707,-2.5707,-2.5707,-2.5707,-2.5707,-2.5707,-2.5707,-2.5707,-2.5707,-2.5707,-2.5707,-2.5707,-2.5707,-2.5707,-2.5707,-2.5707,-2.5707,-2.5707,-2.5707,-2.5707,-2.5707,-2.5707,-2.5707,-2.5707,-2.5707,-2.5707,-2.5707,-2.5707,-2.5707,-2.5707,-2.5707,-2.5707,-2.5707,-2.5707,-2.5707,-2.5707,-2.5707,-2.5707,-2.5707,-2.5707,-2.5707,-2.5707,-2.5434,-2.4577,-2.4056,-2.3473,-2.2634,-2.1816,-2.1094,-2.0623,-2.0544,-2.054,-2.0504,-2.047,-2.0446,-2.0405,-2.0393,-2.0399,-2.0405,-1.9609,-1.9106,-1.9106,-1.8277,-1.7805,-1.7804,-1.7805,-1.777,-1.7695,-1.7634,-1.7581,-1.7556,-1.7923,-1.8113,-1.816,-1.8535,-1.825,0.0,0.0,0.0,0.0,0.0,0.0,0.0,-1.4844,-1.5068,-1.5887,-1.7425,-1.8844,-1.948,-2.0997,-2.2602,-2.4068,-2.4449,-2.4828,-2.5579,-2.5684,-2.5707,-2.5707,-2.5707,-2.5707,-2.5707,-2.5707,-2.5707,-2.5707,-2.5707,-2.5707,-2.5707,-2.5707,-2.5707,-2.5707,-2.5707,-2.5707,-2.5707,-2.5707,-2.5707,-2.5707,-2.5707,-2.5707,-2.5707,-2.5707,-2.5707,-2.5707,-2.5707,-2.5707,-2.5707,-2.5707,-2.5707,-2.5707,-2.5707,-2.5707,-2.5707,-2.5707,-2.5707,-2.5707,-2.5707,-2.5707,-2.5707,-2.5707,-2.5707,-2.5707,-2.5707,-2.5707,-2.5707,-2.5707,-2.5707,-2.5707,-2.5707,-2.5707,-2.5707,-2.5707,-2.5707,-2.5707,-2.5707,-2.5707,-2.5492,-2.4789,-2.4523,-2.4176,-2.3473,-2.2695,-2.1914,-2.1191,-2.0801,-2.0644,-2.0755,-2.0615,-2.0482,-2.0422,-2.0405,-2.0395,-2.0408,-1.9764,-1.9357,-1.9357,-1.8684,-1.8316,-1.8316,-1.8306,-1.8301,-1.8291,-1.8187,-1.8113,-1.8115,-1.8707,-1.9016,-1.9085,-1.9788,-1.9707,-1.1241,-1.2046,-1.3066,-1.4702,-1.46,-1.4717,0.0,-1.7514,-1.7713,-1.8593,-2.0091,-2.1293,-2.139,-2.2833,-2.4066,-2.4263,-2.5003,-2.5556,-2.5591,-2.5654,-2.5707,-2.5707,-2.5707,-2.5707,-2.5707,-2.5707,-2.5707,-2.5707,-2.5707,-2.5707,-2.5707,-2.5707,-2.5707,-2.5707,-2.5707,-2.5707,-2.5707,-2.5707,-2.5707,-2.5707,-2.5707,-2.5707,-2.5707,-2.5707,-2.5707,-2.5707,-2.5707,-2.5707,-2.5707,-2.5707,-2.5707,-2.5707,-2.5707,-2.5707,-2.5707,-2.5707,-2.5707,-2.5707,-2.5707,-2.5707,-2.5707,-2.5707,-2.5707,-2.5707,-2.5707,-2.5707,-2.5707,-2.5707,-2.5707,-2.5707,-2.5707,-2.5707,-2.5707,-2.5707,-2.5707,-2.5707,-2.5707,-2.5707,-2.5668,-2.557,-2.4933,-2.4372,-2.4274,-2.3593,-2.3008,-2.2832,-2.1543,-2.0879,-2.164,-2.1011,-2.0508,-2.0497,-2.0443,-2.0395,-2.0408,-2.0305,-2.0247,-2.0247,-2.017,-2.0112,-2.0112,-2.0105,-2.0083,-2.0018,-2.0004,-1.9973,-1.9916,-1.9984,-2.0041,-2.005,-2.0146,-2.0106,-1.3435,-1.4434,-1.5249,-1.5978,-1.6644,-1.7545,-1.9098,-1.9438,-1.98,-2.1186,-2.2404,-2.3213,-2.3213,-2.4214,-2.5062,-2.5106,-2.5405,-2.5645,-2.5651,-2.5681,-2.5707,-2.5707,-2.5707,-2.5707,-2.5707,-2.5707,-2.5707,-2.5707,-2.5707,-2.5707,-2.5707,-2.5707,-2.5707,-2.5707,-2.5707,-2.5707,-2.5707,-2.5707,-2.5707,-2.5707,-2.5707,-2.5707,-2.5707,-2.5707,-2.5707,-2.5707,-2.5707,-2.5707,-2.5707,-2.5707,-2.5707,-2.5707,-2.5707,-2.5707,-2.5707,-2.5707,-2.5707,-2.5707,-2.5707,-2.5707,-2.5707,-2.5707,-2.5707,-2.5707,-2.5707,-2.5707,-2.5707,-2.5707,-2.5707,-2.5707,-2.5707,-2.5707,-2.5707,-2.5707,-2.5707,-2.5707,-2.5707,-2.5707,-2.5707,-2.5707,-2.5402,-2.5153,-2.5153,-2.4452,-2.4062,-2.4531,-2.3184,-2.2227,-2.2559,-2.1855,-2.1105,-2.0563,-2.0439,-2.0393,-2.0402,-2.0402,-2.0402,-2.0402,-2.0402,-2.0402,-2.0402,-2.0402,-2.0392,-2.035,-2.0318,-2.0292,-2.0265,-2.021,-2.0214,-2.0265,-2.0265,-2.0484,-1.5059,-1.6033,-1.6865,-1.7594,-1.8712,-1.9926,-2.0987,-2.1391,-2.1936,-2.3205,-2.4102,-2.4687,-2.4687,-2.5191,-2.5645,-2.5684,-2.5653,-2.5645,-2.5685,-2.5707,-2.5707,-2.5707,-2.5707,-2.5707,-2.5707,-2.5707,-2.5707,-2.5707,-2.5707,-2.5707,-2.5707,-2.5707,-2.5707,-2.5707,-2.5707,-2.5824,-2.6058,-2.6058,-2.6058,-2.6058,-2.6058,-2.5922,-2.5707,-2.5707,-2.5707,-2.5707,-2.5707,-2.5707,-2.5707,-2.5707,-2.5707,-2.5707,-2.5707,-2.5707,-2.5707,-2.5707,-2.5707,-2.5707,-2.5707,-2.5707,-2.5707,-2.5707,-2.5707,-2.5707,-2.5707,-2.5707,-2.5707,-2.5707,-2.5707,-2.5707,-2.5707,-2.5707,-2.5707,-2.5709,-2.5709,-2.5709,-2.5691,-2.5692,-2.5692,-2.5692,-2.5698,-2.5701,-2.5701,-2.5175,-2.4961,-2.5605,-2.4668,-2.3789,-2.3496,-2.2538,-2.1513,-2.0602,-2.0437,-2.0402,-2.0402,-2.0402,-2.0402,-2.0402,-2.0402,-2.0402,-2.0402,-2.0402,-2.0402,-2.0402,-2.0346,-2.0325,-2.0325,-2.0285,-2.0285,-2.0325,-2.056,-2.1004,-1.5389,-1.6033,-1.7302,-1.9853,-2.0515,-2.0984,-2.2642,-2.3675,-2.4299,-2.4357,-2.5041,-2.5667,-2.5667,-2.5686,-2.5706,-2.5707,-2.5706,-2.5706,-2.5707,-2.5707,-2.5707,-2.5707,-2.5707,-2.5707,-2.5707,-2.5707,-2.5707,-2.5707,-2.5707,-2.5707,-2.5707,-2.5707,-2.5707,-2.5707,-2.5707,-2.6117,-2.6957,-2.6957,-2.6957,-2.6957,-2.6957,-2.6528,-2.5707,-2.5707,-2.5707,-2.5707,-2.5707,-2.5707,-2.5707,-2.5707,-2.5707,-2.5707,-2.5707,-2.5707,-2.5707,-2.5707,-2.5707,-2.5707,-2.5707,-2.5707,-2.5707,-2.5707,-2.5707,-2.5707,-2.5707,-2.5707,-2.5707,-2.5707,-2.5707,-2.5707,-2.5707,-2.5707,-2.5708,-2.5693,-2.5694,-2.5695,-2.5699,-2.57,-2.57,-2.57,-2.5701,-2.5702,-2.5702,-2.5683,-2.5664,-2.5703,-2.5664,-2.5312,-2.4473,-2.2857,-2.1461,-2.0597,-2.0437,-2.0402,-2.0402,-2.0402,-2.0402,-2.0402,-2.0402,-2.0402,-2.0402,-2.0402,-2.0402,-2.0402,-2.0399,-2.0399,-2.0399,-2.0395,-2.0395,-2.0418,-2.1256,-2.1665,-1.7519,-1.82,-1.8897,-2.0905,-2.1431,-2.19,-2.3578,-2.4183,-2.4553,-2.514,-2.5042,-2.4847,-2.4847,-2.4847,-2.4847,-2.4847,-2.5316,-2.5707,-2.5707,-2.5707,-2.5707,-2.5707,-2.5707,-2.5707,-2.5707,-2.5707,-2.5707,-2.5707,-2.5707,-2.5707,-2.5707,-2.5707,-2.5961,-2.6547,-2.6567,-2.6977,-2.7854,-2.7854,-2.7854,-2.7854,-2.7289,-2.6547,-2.5707,-2.5707,-2.5707,-2.5707,-2.5707,-2.5707,-2.5707,-2.5707,-2.5707,-2.5707,-2.5707,-2.5707,-2.5707,-2.5707,-2.5707,-2.5707,-2.5707,-2.5707,-2.5707,-2.5707,-2.5707,-2.5707,-2.5707,-2.5707,-2.5707,-2.5707,-2.5707,-2.5707,-2.5707,-2.5709,-2.5692,-2.5694,-2.5696,-2.5699,-2.57,-2.57,-2.57,-2.57,-2.5702,-2.5702,-2.5702,-2.5703,-2.5703,-2.5703,-2.5703,-2.539,-2.4506,-2.3859,-2.3122,-2.2245,-2.1618,-2.1259,-2.1259,-2.073,-2.0402,-2.0402,-2.0402,-2.0402,-2.0402,-2.0402,-2.0402,-2.0402,-2.0402,-2.0672,-2.1259,-2.1259,-2.1549,-2.2068,-2.2362,-2.2807,-1.9313,-1.9993,-2.0631,-2.2309,-2.2758,-2.3168,-2.4554,-2.4613,-2.4553,-2.512,-2.4301,-2.3597,-2.3871,-2.3696,-2.3695,-2.43,-2.4867,-2.5335,-2.5668,-2.5707,-2.5707,-2.5707,-2.5707,-2.5707,-2.5707,-2.5707,-2.5707,-2.5707,-2.5707,-2.5844,-2.6156,-2.6156,-2.6567,-2.7445,-2.7465,-2.7875,-2.8752,-2.8752,-2.8752,-2.8752,-2.7875,-2.7016,-2.6156,-2.6156,-2.598,-2.5707,-2.5707,-2.5707,-2.5707,-2.5707,-2.5707,-2.5707,-2.5707,-2.5707,-2.5707,-2.5707,-2.5707,-2.5707,-2.5707,-2.5707,-2.5707,-2.5707,-2.5707,-2.5707,-2.5707,-2.5707,-2.5707,-2.5707,-2.5707,-2.5707,-2.5709,-2.5692,-2.5694,-2.5697,-2.57,-2.5701,-2.5702,-2.5702,-2.5702,-2.5702,-2.5702,-2.5703,-2.5703,-2.5703,-2.5703,-2.5703,-2.5703,-2.539,-2.4517,-2.434,-2.3973,-2.3095,-2.2478,-2.2133,-2.2133,-2.1623,-2.1179,-2.0888,-2.0869,-2.0711,-2.0402,-2.0402,-2.0556,-2.0869,-2.0869,-2.1275,-2.2133,-2.2133,-2.2381,-2.2903,-2.3213,-2.3654,-2.0691,-2.1335,-2.2368,-2.4046,-2.4436,-2.4613,-2.5434,-2.4984,-2.4378,-2.428,-2.2973,-2.2056,-2.2779,-2.235,-2.2427,-2.4007,-2.4378,-2.4769,-2.559,-2.5707,-2.5707,-2.5707,-2.5746,-2.5765,-2.5765,-2.5805,-2.5824,-2.5824,-2.5785,-2.6156,-2.7016,-2.7074,-2.7465,-2.8342,-2.8362,-2.8771,-2.9651,-2.9651,-2.9631,-2.9592,-2.8752,-2.7913,-2.7074,-2.7074,-2.6625,-2.5824,-2.5824,-2.5805,-2.5765,-2.5765,-2.5746,-2.5707,-2.5707,-2.5707,-2.5707,-2.5707,-2.5707,-2.5707,-2.5707,-2.5707,-2.5707,-2.5707,-2.5707,-2.5707,-2.5707,-2.5707,-2.5707,-2.5708,-2.5708,-2.5709,-2.5693,-2.5694,-2.5696,-2.5702,-2.5702,-2.5703,-2.5703,-2.5703,-2.5703,-2.5703,-2.5703,-2.5703,-2.5703,-2.5703,-2.5703,-2.5703,-2.5703,-2.5409,-2.4575,-2.4417,-2.4051,-2.3226,-2.3034,-2.2961,-2.2961,-2.2923,-2.2575,-2.1804,-2.1765,-2.1395,-2.0556,-2.0537,-2.0927,-2.1746,-2.1765,-2.2152,-2.2961,-2.2961,-2.3,-2.3058,-2.3886,-2.4254,-2.2115,-2.2623,-2.3208,-2.4946,-2.4886,-2.4456,-2.4671,-2.4553,-2.4046,-2.2797,-2.1687,-2.081,-2.0359,-2.116,-2.204,-2.2466,-2.4125,-2.5453,-2.5668,-2.569,-2.5691,-2.5707,-2.6277,-2.6668,-2.6664,-2.7268,-2.7639,-2.7639,-2.7035,-2.7055,-2.7913,-2.7971,-2.8362,-2.9241,-2.9261,-2.965,-3.0489,-3.0489,-3.0196,-2.9592,-2.9378,-2.881,-2.7971,-2.7971,-2.7854,-2.7639,-2.7639,-2.7268,-2.6664,-2.6664,-2.6293,-2.5707,-2.5707,-2.5707,-2.5707,-2.5707,-2.5707,-2.5707,-2.5707,-2.5707,-2.5707,-2.5707,-2.5707,-2.5708,-2.5691,-2.5692,-2.5693,-2.5697,-2.5698,-2.5698,-2.5699,-2.57,-2.5701,-2.5702,-2.5703,-2.5703,-2.5703,-2.5703,-2.5703,-2.5703,-2.5703,-2.5703,-2.5703,-2.5703,-2.5703,-2.5703,-2.5703,-2.5602,-2.533,-2.5276,-2.5162,-2.4893,-2.4265,-2.3867,-2.3867,-2.3271,-2.2807,-2.2613,-2.2594,-2.2497,-2.2262,-2.2262,-2.2378,-2.2594,-2.2594,-2.3019,-2.3867,-2.3867,-2.4196,-2.4834,-2.5066,-2.512,-2.3306,-2.395,-2.4477,-2.5453,-2.5042,-2.43,-2.393,-2.3266,-2.2252,-2.0535,-1.9503,-1.8625,-1.7745,-1.9015,-2.044,-2.1217,-2.315,-2.4829,-2.5593,-2.5692,-2.5694,-2.5694,-2.6477,-2.7005,-2.7003,-2.7783,-2.8467,-2.8837,-2.8052,-2.7953,-2.881,-2.8869,-2.9259,-3.0099,-3.0138,-3.0333,-3.08,-3.08,-3.0567,-3.0138,-3.0138,-2.9689,-2.8869,-2.8869,-2.8654,-2.8303,-2.8303,-2.801,-2.7562,-2.7562,-2.7288,-2.68,-2.6429,-2.6274,-2.6215,-2.5844,-2.5708,-2.569,-2.569,-2.5692,-2.5694,-2.5691,-2.569,-2.5691,-2.5696,-2.5697,-2.5698,-2.57,-2.57,-2.57,-2.5701,-2.5702,-2.5702,-2.5703,-2.5703,-2.5703,-2.5703,-2.5703,-2.5703,-2.5703,-2.5703,-2.5703,-2.5703,-2.5703,-2.5703,-2.5703,-2.5702,-2.5673,-2.5609,-2.5601,-2.5574,-2.5515,-2.5066,-2.4776,-2.4776,-2.4312,-2.3886,-2.348,-2.3461,-2.331,-2.2923,-2.2903,-2.3077,-2.3461,-2.3461,-2.3906,-2.4776,-2.4776,-2.5027,-2.5507,-2.5507,-2.5452,-2.4301,-2.512,-2.5707,-2.5707,-2.5042,-2.4144,-2.3151,-2.1648,-1.9892,-1.804,-1.6967,-1.6129,-1.5366,-1.6654,-1.845,-2.0302,-2.2019,-2.3719,-2.5459,-2.5694,-2.5696,-2.57,-2.6579,-2.7165,-2.7165,-2.8064,-2.8961,-2.9723,-2.9072,-2.8988,-2.973,-2.9769,-3.008,-3.0781,-3.08,-3.08,-3.08,-3.08,-3.08,-3.08,-3.08,-3.0431,-2.9768,-2.9768,-2.9357,-2.8635,-2.8635,-2.8576,-2.8479,-2.8479,-2.8401,-2.8225,-2.7466,-2.7095,-2.6919,-2.6158,-2.5809,-2.5694,-2.5694,-2.5698,-2.57,-2.5696,-2.5694,-2.5696,-2.57,-2.57,-2.57,-2.57,-2.5701,-2.5701,-2.5702,-2.5703,-2.5703,-2.5703,-2.5703,-2.5703,-2.5703,-2.5703,-2.5703,-2.5703,-2.5703,-2.5703,-2.5703,-2.5703,-2.5703,-2.5703,-2.5699,-2.5683,-2.5614,-2.56,-2.5554,-2.5514,-2.549,-2.5507,-2.5507,-2.5507,-2.5182,-2.4428,-2.437,-2.4022,-2.329,-2.3252,-2.3596,-2.435,-2.437,-2.4737,-2.5507,-2.5507,-2.5507,-2.5507,-2.5507,-2.5484,-2.5043,-2.559,-2.5707,-2.5707,-2.5042,-2.4008,-2.245,-2.0772,-1.8839,-1.6363,-1.5154,-1.4509,-1.4352,-1.5757,-1.7728,-2.0206,-2.2003,-2.3702,-2.5459,-2.5699,-2.5701,-2.57,-2.7107,-2.8064,-2.8063,-2.9508,-3.0504,-3.066,-3.0522,-3.052,-3.0672,-3.0672,-3.0709,-3.08,-3.08,-3.08,-3.08,-3.08,-3.08,-3.08,-3.08,-3.0722,-3.0587,-3.0587,-3.0507,-3.0371,-3.0371,-2.9982,-2.9378,-2.9378,-2.8947,-2.8283,-2.8133,-2.7627,-2.6983,-2.683,-2.6324,-2.5699,-2.5699,-2.57,-2.57,-2.5699,-2.5699,-2.57,-2.5702,-2.5702,-2.5702,-2.5703,-2.5703,-2.5703,-2.5703,-2.5703,-2.5703,-2.5703,-2.5703,-2.5703,-2.5703,-2.5703,-2.5703,-2.5703,-2.5703,-2.5703,-2.5703,-2.5703,-2.5703,-2.5703,-2.5703,-2.57,-2.5684,-2.5591,-2.5514,-2.5499,-2.5499,-2.5507,-2.5507,-2.5507,-2.543,-2.5275,-2.5279,-2.5221,-2.5066,-2.5047,-2.5124,-2.5279,-2.5279,-2.5352,-2.5507,-2.5507,-2.5507,-2.5507,-2.5507,-2.5444,-2.4671,-2.5355,-2.5707,-2.5707,-2.4692,-2.3287,-2.1612,-1.9523,-1.722,-1.4627,-1.3769,-1.3202,-1.2284,-1.4256,-1.6422,-1.7689,-1.9701,-2.1889,-2.4037,-2.4353,-2.4843,-2.621,-2.7519,-2.8476,-2.8925,-3.0136,-3.0897,-3.0897,-3.0897,-3.0896,-3.0892,-3.0892,-3.0891,-3.085,-3.085,-3.085,-3.085,-3.085,-3.085,-3.085,-3.085,-3.0848,-3.0845,-3.0848,-3.0848,-3.0845,-3.0845,-3.0632,-3.0283,-3.0281,-3.0028,-2.9561,-2.8645,-2.8041,-2.7572,-2.6657,-2.6052,-2.5701,-2.5701,-2.5702,-2.5702,-2.5702,-2.5702,-2.5702,-2.5703,-2.5703,-2.5703,-2.5703,-2.5703,-2.5703,-2.5703,-2.5703,-2.5703,-2.5703,-2.5703,-2.5703,-2.5703,-2.5703,-2.5703,-2.5703,-2.5703,-2.5703,-2.5703,-2.5703,-2.5703,-2.5703,-2.5702,-2.5697,-2.5708,-2.5609,-2.5546,-2.5499,-2.5495,-2.5507,-2.5507,-2.5507,-2.5507,-2.5507,-2.5507,-2.5507,-2.5507,-2.5507,-2.5507,-2.5507,-2.5507,-2.5507,-2.5507,-2.5507,-2.5507,-2.5507,-2.5507,-2.5476,-2.4165,-2.5043,-2.5707,-2.5707,-2.4399,-2.2663,-2.0988,-1.843,-1.5757,-1.3398,-1.2597,-1.1972,-1.08,-1.2773,-1.4823,-1.5563,-1.7555,-1.9977,-2.2712,-2.326,-2.4218,-2.6465,-2.7656,-2.8574,-2.9258,-3.0273,-3.0898,-3.0898,-3.0898,-3.0898,-3.0895,-3.0895,-3.0894,-3.0894,-3.0894,-3.0894,-3.0894,-3.0894,-3.0894,-3.0894,-3.0894,-3.0893,-3.0909,-3.0893,-3.0893,-3.0909,-3.0909,-3.0892,-3.0894,-3.0891,-3.0892,-3.0758,-2.9195,-2.8453,-2.8102,-2.6541,-2.5858,-2.5703,-2.5703,-2.5703,-2.5703,-2.5703,-2.5703,-2.5703,-2.5703,-2.5703,-2.5703,-2.5703,-2.5703,-2.5703,-2.5703,-2.5703,-2.5703,-2.5703,-2.5703,-2.5703,-2.5703,-2.5703,-2.5703,-2.5703,-2.5703,-2.5703,-2.5703,-2.5703,-2.5703,-2.5703,-2.5698,-2.5685,-2.5681,-2.5613,-2.5566,-2.5508,-2.5505,-2.5507,-2.5492,-2.5507,-2.5507,-2.5507,-2.5507,-2.5507,-2.5507,-2.5507,-2.5507,-2.5507,-2.5507,-2.5507,-2.5507,-2.5507,-2.5507,-2.5507,-2.5507,-2.5507,-2.4169,-2.5045,-2.5707,-2.5707,-2.4399,-2.2664,-2.0971,-1.7964,-1.5016,-1.3262,-1.1641,-1.0723,-1.1367,-1.1738,-1.2968,-1.6073,-1.7459,-1.9295,-2.2636,-2.3788,-2.4667,-2.5703,-2.7285,-2.832,-2.8418,-2.9922,-3.0898,-3.0898,-3.0898,-3.0898,-3.0897,-3.0895,-3.0894,-3.0894,-3.0894,-3.0894,-3.0894,-3.0894,-3.0894,-3.0894,-3.0894,-3.0894,-3.0894,-3.0894,-3.0894,-3.0894,-3.0894,-3.0894,-3.0894,-3.0894,-3.0894,-3.0816,-2.9842,-2.9002,-2.8182,-2.7226,-2.6387,-2.5703,-2.5703,-2.5703,-2.5703,-2.5703,-2.5703,-2.5703,-2.5703,-2.5703,-2.5703,-2.5703,-2.5703,-2.5703,-2.5703,-2.5703,-2.5703,-2.5703,-2.5703,-2.5703,-2.5703,-2.5703,-2.5703,-2.5703,-2.5703,-2.5703,-2.5703,-2.5703,-2.5703,-2.5703,-2.5698,-2.568,-2.5611,-2.5547,-2.5505,-2.5511,-2.5499,-2.5506,-2.5496,-2.5507,-2.5507,-2.5507,-2.5507,-2.5507,-2.5507,-2.5507,-2.5507,-2.5507,-2.5507,-2.5507,-2.5507,-2.5507,-2.5507,-2.5507,-2.5507,-2.5507,-2.3256,-2.4251,-2.4915,-2.4915,-2.3997,-2.2514,-2.0329,-1.7537,-1.492,-1.3242,-1.1504,-1.041,-1.0742,-1.125,-1.2226,-1.4101,-1.5117,-1.6679,-1.9628,-2.0781,-2.2226,-2.4629,-2.6465,-2.793,-2.8984,-3.0176,-3.0898,-3.0898,-3.0898,-3.0898,-3.0898,-3.0898,-3.0898,-3.0898,-3.0898,-3.0879,-3.0836,-3.0879,-3.0879,-3.0836,-3.0879,-3.0897,-3.0896,-3.0897,-3.0897,-3.0896,-3.0896,-3.0897,-3.0898,-3.0897,-3.0584,-3.0038,-2.916,-2.8281,-2.7402,-2.6543,-2.5996,-2.5703,-2.5703,-2.5703,-2.5703,-2.5703,-2.5703,-2.5703,-2.5703,-2.5703,-2.5703,-2.5703,-2.5703,-2.5703,-2.5703,-2.5703,-2.5703,-2.5703,-2.5703,-2.5703,-2.5703,-2.5703,-2.5703,-2.5703,-2.5703,-2.5703,-2.5703,-2.5701,-2.5698,-2.5698,-2.5661,-2.5637,-2.5603,-2.5585,-2.5532,-2.5509,-2.5508,-2.5506,-2.5492,-2.5507,-2.5507,-2.5507,-2.5507,-2.5507,-2.5507,-2.5507,-2.5507,-2.5507,-2.5507,-2.5507,-2.5507,-2.5507,-2.5507,-2.5507,-2.5507,-2.5507,-2.197,-2.3161,-2.402,-2.402,-2.318,-2.1755,-1.9432,-1.6893,-1.453,-1.2852,-1.1328,-1.0293,-1.0293,-1.1016,-1.1894,-1.2754,-1.3789,-1.539,-1.8027,-1.9355,-2.1152,-2.4043,-2.5937,-2.7578,-2.9062,-3.0234,-3.0898,-3.0898,-3.0898,-3.0898,-3.0898,-3.0878,-3.0878,-3.0898,-3.0878,-3.0854,-3.08,-3.083,-3.0827,-3.077,-3.0827,-3.0835,-3.0837,-3.0834,-3.0856,-3.0879,-3.0879,-3.0878,-3.0877,-3.0878,-3.035,-2.9467,-2.8607,-2.7748,-2.687,-2.599,-2.5678,-2.5678,-2.5678,-2.5678,-2.5678,-2.5678,-2.5678,-2.5678,-2.5678,-2.568,-2.5702,-2.5702,-2.5702,-2.5702,-2.5702,-2.5681,-2.5678,-2.5678,-2.5678,-2.5678,-2.5678,-2.5678,-2.5678,-2.5678,-2.5678,-2.5678,-2.5678,-2.5668,-2.5676,-2.5676,-2.5609,-2.5561,-2.5561,-2.5569,-2.5543,-2.5515,-2.5503,-2.5507,-2.5507,-2.5507,-2.5507,-2.5507,-2.5507,-2.5507,-2.5507,-2.5507,-2.5507,-2.5507,-2.5507,-2.5507,-2.5507,-2.5507,-2.5507,-2.5507,-2.5507,-2.5507,-2.039,-2.1834,-2.3102,-2.3102,-2.1852,-2.0172,-1.8417,-1.5995,-1.3632,-1.1953,-1.0918,-1.0293,-1.0293,-1.1016,-1.1895,-1.2754,-1.4296,-1.6308,-1.8926,-2.0781,-2.2499,-2.4199,-2.5937,-2.7344,-2.8223,-2.9883,-3.0898,-3.0898,-3.0898,-3.0898,-3.0898,-3.0832,-3.0831,-3.0898,-3.0832,-3.0801,-3.08,-3.0732,-3.0691,-3.0691,-3.0691,-3.0691,-3.0691,-3.0691,-3.0734,-3.0801,-3.0801,-3.0801,-3.0801,-3.0801,-3.0258,-2.9327,-2.8524,-2.7669,-2.6796,-2.5915,-2.5601,-2.5601,-2.5601,-2.5601,-2.5601,-2.5601,-2.5601,-2.5601,-2.5601,-2.5647,-2.5707,-2.5707,-2.5707,-2.5707,-2.5707,-2.5648,-2.5601,-2.5601,-2.5601,-2.5601,-2.5601,-2.5601,-2.5601,-2.5601,-2.5601,-2.5601,-2.5601,-2.5601,-2.5601,-2.5601,-2.5542,-2.5504,-2.5504,-2.5501,-2.5492,-2.5492,-2.5511,-2.5507,-2.5507,-2.5507,-2.5507,-2.5507,-2.5507,-2.5507,-2.5507,-2.5507,-2.5507,-2.5507,-2.5507,-2.5507,-2.5507,-2.5507,-2.5507,-2.5507,-2.5507,-2.5507,-1.7695,-1.8769,-1.9472,-1.8867,-1.8769,-1.8203,-1.5879,-1.4687,-1.3613,-1.1953,-1.0918,-1.0293,-1.0293,-1.0527,-1.1562,-1.418,-1.5059,-1.6523,-1.9746,-2.1172,-2.2324,-2.3457,-2.6133,-2.8457,-2.9922,-3.0586,-3.0898,-3.0898,-3.0856,-3.0831,-3.0831,-3.0768,-3.0765,-3.083,-3.0768,-3.0715,-3.0659,-3.0699,-3.0672,-3.063,-3.0672,-3.0709,-3.0709,-3.0709,-3.0717,-3.073,-3.073,-3.073,-3.073,-3.073,-2.9883,-2.8544,-2.8308,-2.7297,-2.5974,-2.5699,-2.5601,-2.5601,-2.5601,-2.5601,-2.5601,-2.5601,-2.5601,-2.5595,-2.5542,-2.5587,-2.5639,-2.5639,-2.5639,-2.5639,-2.5639,-2.5611,-2.5601,-2.5601,-2.5601,-2.5601,-2.5601,-2.5601,-2.5601,-2.5601,-2.5601,-2.5601,-2.5601,-2.5554,-2.5532,-2.5532,-2.5515,-2.5506,-2.5506,-2.5507,-2.5507,-2.5507,-2.5507,-2.5507,-2.5507,-2.5507,-2.5507,-2.5507,-2.5507,-2.5507,-2.5507,-2.5507,-2.5507,-2.5507,-2.5507,-2.5507,-2.5507,-2.5507,-2.5507,-2.5507,-2.5507,-2.5507,-1.5389,-1.6367,-1.6894,-1.6348,-1.6367,-1.6016,-1.4082,-1.3398,-1.2773,-1.1387,-1.0684,-1.0293,-1.0293,-1.084,-1.1973,-1.4102,-1.5254,-1.6875,-1.9707,-2.1133,-2.2578,-2.4414,-2.709,-2.9219,-3.0293,-3.0703,-3.0898,-3.0898,-3.0832,-3.08,-3.08,-3.0715,-3.0675,-3.0722,-3.0675,-3.0639,-3.0597,-3.0633,-3.0639,-3.0607,-3.0639,-3.0662,-3.0662,-3.0662,-3.0655,-3.0659,-3.0659,-3.0659,0.0,-3.0659,-2.9847,-2.8576,-2.8245,-2.7254,-2.5987,-2.5679,-2.5563,-2.5563,-2.5563,-2.5563,-2.5563,-2.5563,-2.5563,-2.5557,-2.5515,-2.5529,-2.5554,-2.5554,-2.5554,-2.5554,-2.5554,-2.5559,-2.5563,-2.5563,-2.5563,-2.5563,-2.5563,-2.5563,-2.5563,-2.5563,-2.5563,-2.5563,-2.5563,-2.5531,-2.5502,-2.5502,-2.5503,-2.5507,-2.5507,-2.5507,-2.5507,-2.5507,-2.5507,-2.5507,-2.5507,-2.5507,-2.5507,-2.5507,-2.5507,-2.5507,-2.5507,-2.5507,-2.5507,-2.5507,-2.5507,-2.5507,-2.5507,-2.5507,-2.5507,-2.5507,-2.5507,-2.5507,0.0,-1.4451,-1.5117,-1.5058,-1.4473,-1.3691,-1.289,-1.2129,0.0,-1.0488,-1.0293,-1.0332,-1.0449,-1.1758,-1.293,-1.3281,-1.5332,-1.7539,-1.9394,-2.1152,-2.3457,-2.6719,-2.8574,-2.9629,-2.9687,-3.043,-3.0898,-3.0898,-3.0829,-3.0795,-3.0795,-3.0675,-3.0605,-3.0605,-3.0605,-3.0605,-3.0605,-3.0604,-3.0598,-3.0598,-3.0598,-3.0598,-3.0598,-3.0598,-3.0608,-3.0605,-3.0605,-3.0605,-3.0605,-3.0605,-3.0098,-2.9229,-2.8416,-2.7561,-2.6706,-2.5952,-2.5642,-2.5584,-2.5584,-2.5546,-2.5507,-2.5507,-2.5507,-2.5507,-2.5507,-2.5501,-2.5495,-2.5495,-2.5495,-2.5495,-2.5495,-2.5505,-2.5507,-2.5507,-2.5507,-2.5507,-2.5507,-2.5507,-2.5507,-2.5507,-2.5507,-2.5507,-2.5507,-2.5507,-2.5507,-2.5507,-2.5507,-2.5507,-2.5507,-2.5507,-2.5507,-2.5507,-2.5507,-2.5507,-2.5507,-2.5507,-2.5507,-2.5507,-2.5507,-2.5507,-2.5507,-2.5507,-2.5507,-2.5507,-2.5507,-2.5488,-2.5488,-2.5488,-2.5507,-2.5507,-2.548,-2.548,-1.1013,0.0,-1.2254,-1.1589,-1.1765,-1.1883,0.0,-1.1198,-1.1298,-1.0463,-1.0265,-1.0631,-1.1961,-1.2044,-1.3179,-1.7082,-1.826,-1.9746,-2.2773,-2.4707,-2.6348,-2.7812,-2.8945,-2.9863,-3.0527,-3.0738,-3.0828,-3.0828,-3.0715,-3.0642,-3.0642,-3.0614,-3.0595,-3.0595,-3.0595,-3.0595,-3.0595,-3.0592,-3.0598,-3.0598,-3.0598,-3.0598,-3.0598,-3.0598,-3.0592,-3.0595,-3.0595,-3.0595,-3.0595,-3.0595,-3.0098,-2.9287,-2.9074,-2.8455,-2.7681,-2.7488,-2.6981,-2.6416,-2.6416,-2.6029,-2.5507,-2.5507,-2.5507,-2.5507,-2.5507,-2.5503,-2.5499,-2.5499,-2.5499,-2.5499,-2.5499,-2.5503,-2.5507,-2.5507,-2.5507,-2.5507,-2.5507,-2.5507,-2.5507,-2.5507,-2.5507,-2.5507,-2.5507,-2.5507,-2.5507,-2.5507,-2.5507,-2.5507,-2.5507,-2.5507,-2.5507,-2.5507,-2.5507,-2.5507,-2.5507,-2.5507,-2.5507,-2.5507,-2.5507,-2.5507,-2.5507,-2.5507,-2.5507,-2.5507,-2.5456,-2.5429,-2.5429,-2.5429,-2.5456,-2.5507,-2.534,-2.5279,-1.0198,-1.0831,-1.1398,-1.0909,-1.1144,-1.1378,-1.0909,-1.0853,-1.078,-1.0336,-1.0545,-1.1085,-1.2025,-1.2837,-1.4386,-1.7549,-1.91,-2.0957,-2.3984,-2.625,-2.7773,-2.8242,-2.9393,-3.0347,-3.0816,-3.0799,-3.0742,-3.0742,-3.0653,-3.0593,-3.0593,-3.0593,-3.0598,-3.0598,-3.0598,-3.0598,-3.0598,-3.0598,-3.0598,-3.0598,-3.0598,-3.0598,-3.0598,-3.0598,-3.0598,-3.0598,-3.0598,-3.0598,-3.0598,-3.0598,-3.0327,-2.9863,-2.9457,-2.9016,-2.8552,-2.8146,-2.7701,-2.7232,-2.6841,-2.6165,-2.5507,-2.5507,-2.5507,-2.5507,-2.5507,-2.5507,-2.5507,-2.5507,-2.5507,-2.5507,-2.5507,-2.5507,-2.5507,-2.5507,-2.5507,-2.5507,-2.5507,-2.5507,-2.5507,-2.5507,-2.5507,-2.5507,-2.5507,-2.5507,-2.5507,-2.5507,-2.5507,-2.5507,-2.5507,-2.5507,-2.5507,-2.5507,-2.5507,-2.5507,-2.5507,-2.5507,-2.5484,-2.5456,-2.5456,-2.5452,-2.5444,-2.5444,-2.5444,-2.5444,-2.5412,-2.5408,-2.5408,-2.5408,-2.5412,-2.544,-2.5269,-2.5194,-1.0352,-1.1121,-1.1827,-1.1557,-1.1595,-1.1673,-1.1673,-1.1112,-1.0571,-1.0594,-1.1172,-1.1811,-1.2207,-1.4102,-1.6006,-1.7277,-1.9568,-2.1972,-2.4277,-2.6737,-2.828,-2.8281,-2.9754,-3.0796,-3.08,-3.0728,-3.0677,-3.0677,-3.0639,-3.0598,-3.0598,-3.0604,-3.0598,-3.0598,-3.0598,-3.0598,-3.0598,-3.0598,-3.0598,-3.0598,-3.0598,-3.0598,-3.0598,-3.0598,-3.0598,-3.0598,-3.0598,-3.0598,-3.0598,-3.0598,-3.0598,-3.052,-2.9785,-2.9495,-2.9399,-2.8668,-2.83,-2.8049,-2.7054,-2.6242,-2.5662,-2.5546,-2.5507,-2.5507,-2.5507,-2.5507,-2.5507,-2.5507,-2.5507,-2.5507,-2.5507,-2.5507,-2.5507,-2.5507,-2.5507,-2.5507,-2.5507,-2.5507,-2.5507,-2.5507,-2.5507,-2.5507,-2.5507,-2.5507,-2.5507,-2.5507,-2.5507,-2.5507,-2.5507,-2.5507,-2.5507,-2.5507,-2.5507,-2.5507,-2.5507,-2.5507,-2.546,-2.5401,-2.5401,-2.5393,-2.5391,-2.541,-2.5406,-2.5406,-2.5406,-2.5406,-2.5406,-2.5369,-2.5364,-2.5364,-2.5198,-2.5113,-1.1105,-1.2425,-1.328,-1.1853,-1.2006,-1.2527,-1.2527,-1.2411,-1.2323,-1.2388,-1.2451,-1.3187,-1.5414,-1.6198,-1.7482,-2.0516,-2.2586,-2.4207,-2.534,-2.7078,-2.8225,-2.821,-2.9691,-3.0734,-3.0799,-3.0697,-3.0614,-3.0614,-3.0614,-3.0601,-3.0601,-3.0607,-3.0598,-3.0598,-3.0598,-3.0598,-3.0598,-3.0598,-3.0598,-3.0598,-3.0598,-3.0598,-3.0598,-3.0598,-3.0598,-3.0598,-3.0598,-3.0598,-3.0598,-3.0598,-3.0598,-3.0598,-3.0443,-3.0404,-3.0385,-3.025,-2.9727,-2.8876,-2.7267,-2.6625,-2.6397,-2.572,-2.5507,-2.5507,-2.5507,-2.5507,-2.5507,-2.5507,-2.5507,-2.5507,-2.5507,-2.5507,-2.5507,-2.5507,-2.5507,-2.5507,-2.5507,-2.5507,-2.5507,-2.5507,-2.5507,-2.5507,-2.5507,-2.5507,-2.5507,-2.5507,-2.5507,-2.5507,-2.5507,-2.5507,-2.5507,-2.5507,-2.5507,-2.5507,-2.5507,-2.5507,-2.546,-2.5401,-2.5401,-2.5393,-2.5391,-2.541,-2.5402,-2.5403,-2.5403,-2.5403,-2.5403,-2.5234,-2.5179,-2.5214,-2.4929,-2.4785,-1.0699,-1.1703,-1.2688,-1.2821,-1.3848,-1.4682,-1.4218,-1.4102,-1.4108,-1.4144,-1.45,-1.5177,-1.6378,-1.7752,-1.9698,-2.2717,-2.4262,-2.5237,-2.5648,-2.6737,-2.7501,-2.7501,-2.8987,-3.0016,-3.0039,-3.0386,-3.0606,-3.0606,-3.0606,-3.0598,-3.0598,-3.0598,-3.0598,-3.0598,-3.0598,-3.0598,-3.0598,-3.0598,-3.0598,-3.0598,-3.0598,-3.0598,-3.0598,-3.0598,-3.0598,-3.0598,-3.0598,-3.0598,-3.0598,-3.0598,-3.0598,-3.0598,-3.0598,-3.0598,-3.0598,-3.0598,-3.0056,-2.9113,-2.7832,-2.7406,-2.7194,-2.5917,-2.5797,-2.6068,-2.5623,-2.5507,-2.5507,-2.5507,-2.5507,-2.5507,-2.5507,-2.5507,-2.5507,-2.5507,-2.5507,-2.5507,-2.5507,-2.5507,-2.5507,-2.5507,-2.5507,-2.5507,-2.5507,-2.5507,-2.5507,-2.5507,-2.5507,-2.5507,-2.5507,-2.5507,-2.5507,-2.5507,-2.5507,-2.5507,-2.5507,-2.5507,-2.5476,-2.5408,-2.5395,-2.5373,-2.5346,-2.5346,-2.5341,-2.5351,-2.5351,-2.5351,-2.5351,-2.5239,-2.5224,-2.5248,-2.4942,-2.4799,-1.0426,-1.1121,-1.2088,-1.3361,-1.4854,-1.6036,-1.6155,-1.6039,-1.6,-1.6406,-1.7023,-1.7556,-1.7784,-1.9748,-2.2066,-2.4326,-2.5223,-2.565,-2.565,-2.6359,-2.6863,-2.6877,-2.8362,-2.9379,-2.9396,-3.0132,-3.0598,-3.0598,-3.0598,-3.0598,-3.0598,-3.0598,-3.0598,-3.0598,-3.0598,-3.0598,-3.0598,-3.0598,-3.0598,-3.0598,-3.0598,-3.0598,-3.0598,-3.0598,-3.0598,-3.0598,-3.0598,-3.0598,-3.0598,-3.0598,-3.0598,-3.0598,-3.0598,-3.0598,-3.0598,-3.0598,-3.0172,-2.9457,-2.8378,-2.7991,-2.772,-2.6033,-2.6048,-2.6551,-2.5739,-2.5623,-2.5739,-2.5546,-2.5507,-2.5507,-2.5507,-2.5507,-2.5507,-2.5507,-2.5507,-2.5507,-2.5507,-2.5507,-2.5507,-2.5507,-2.5507,-2.5507,-2.5507,-2.5507,-2.5507,-2.5507,-2.5507,-2.5507,-2.5507,-2.5507,-2.5507,-2.5507,-2.5484,-2.548,-2.5476,-2.548,-2.5444,-2.5406,-2.5407,-2.5361,-2.5308,-2.5308,-2.5308,-2.5308,-2.5308,-2.5308,-2.5308,-2.5264,-2.5253,-2.5248,-2.4981,-2.4854,-1.1112,-1.1945,-1.2647,-1.2763,-1.3498,-1.5006,-1.812,-1.82,-1.8084,-1.9706,-2.0073,-2.0385,-2.1266,-2.2898,-2.4426,-2.5356,-2.551,-2.5515,-2.5515,-2.6213,-2.6738,-2.6795,-2.8287,-2.933,-2.9392,-3.0132,-3.0598,-3.0598,-3.0598,-3.0598,-3.0598,-3.0598,-3.0598,-3.0598,-3.0598,-3.0598,-3.0598,-3.0598,-3.0598,-3.0598,-3.0598,-3.0598,-3.0598,-3.0598,-3.0598,-3.0598,-3.0598,-3.0598,-3.0598,-3.0598,-3.0598,-3.0598,-3.0598,-3.0598,-3.0598,-3.0598,-3.0559,-3.0269,-2.8571,-2.7991,-2.772,-2.6033,-2.6048,-2.6551,-2.5739,-2.6029,-2.6455,-2.57,-2.5507,-2.5507,-2.5507,-2.5507,-2.5507,-2.5507,-2.5507,-2.5507,-2.5507,-2.5507,-2.5507,-2.5507,-2.5507,-2.5507,-2.5507,-2.5507,-2.5507,-2.5507,-2.5507,-2.5507,-2.5507,-2.5507,-2.5507,-2.5507,-2.5433,-2.5417,-2.5415,-2.5412,-2.5404,-2.5403,-2.5398,-2.5361,-2.5308,-2.5308,-2.5308,-2.5308,-2.5308,-2.5308,-2.5308,-2.5171,-2.5101,-2.5115,-2.4832,-2.4704,-1.0568,-1.1662,-1.2837,-1.3376,-1.4543,-1.6042,-1.7866,-1.9286,-2.0543,-2.172,-2.1952,-2.222,-2.3126,-2.3859,-2.4607,-2.5403,-2.5518,-2.5501,-2.5501,-2.5749,-2.5968,-2.5982,-2.6982,-2.769,-2.7726,-2.8975,-2.9785,-2.9785,-3.0288,-3.0598,-3.0598,-3.0598,-3.0598,-3.0598,-3.0598,-3.0598,-3.0598,-3.0598,-3.0598,-3.0598,-3.0598,-3.0598,-3.0598,-3.0598,-3.0598,-3.0598,-3.0598,-3.0598,-3.0598,-3.0598,-3.0598,-3.0598,-3.0598,-3.0598,-3.0598,-3.0598,-3.0598,-3.0346,-2.861,-2.8358,-2.8436,-2.6227,-2.6048,-2.6551,-2.5739,-2.57,-2.5894,-2.5584,-2.5507,-2.5507,-2.5507,-2.5507,-2.5507,-2.5507,-2.5507,-2.5507,-2.5507,-2.5507,-2.5507,-2.5507,-2.5507,-2.5507,-2.5507,-2.5507,-2.5507,-2.5507,-2.5507,-2.5484,-2.5433,-2.5433,-2.5448,-2.5436,-2.5427,-2.54,-2.5391,-2.5395,-2.541,-2.5398,-2.5398,-2.5361,-2.5308,-2.5308,-2.5308,-2.5308,-2.5308,-2.5308,-2.5308,-2.5248,-2.5208,-2.5222,-2.4955,-2.4818,-1.0579,-1.163,-1.2916,-1.3788,-1.5462,-1.7216,-1.8324,-2.0189,-2.2065,-2.3441,-2.3714,-2.3899,-2.449,-2.4646,-2.4857,-2.5415,-2.5509,-2.5509,-2.5509,-2.5506,-2.5507,-2.5507,-2.6203,-2.6702,-2.6702,-2.8025,-2.8997,-2.9287,-2.9843,-3.0308,-3.0598,-3.0598,-3.0462,-3.0192,-3.0462,-3.0462,-3.0192,-3.0462,-3.0598,-3.0598,-3.0598,-3.0598,-3.0598,-3.0598,-3.0598,-3.0598,-3.0598,-3.0598,-3.0598,-3.0598,-3.0598,-3.0598,-3.0598,-3.0598,-3.0598,-3.0598,-3.0598,-3.0346,-2.861,-2.8397,-2.8513,-2.6246,-2.6048,-2.6551,-2.5739,-2.5681,-2.5836,-2.5565,-2.5507,-2.5507,-2.5507,-2.5507,-2.5507,-2.5507,-2.5507,-2.5507,-2.5507,-2.5507,-2.5507,-2.5507,-2.5507,-2.5507,-2.5507,-2.5507,-2.5488,-2.546,-2.546,-2.5452,-2.5412,-2.5393,-2.5404,-2.5402,-2.5406,-2.5382,-2.5364,-2.5393,-2.5388,-2.5365,-2.5361,-2.5351,-2.5308,-2.5308,-2.5308,-2.5308,-2.5308,-2.5308,-2.5308,-2.5308,-2.5308,-2.5284,-2.5012,-2.4902,-1.1408,-1.2042,-1.2911,-1.38,-1.5926,-1.8263,-1.9922,-2.0981,-2.2357,-2.4966,-2.5492,-2.5502,-2.5503,-2.5495,-2.5499,-2.5503,-2.5507,-2.5507,-2.5507,-2.5507,-2.5507,-2.5507,-2.6203,-2.6683,-2.6683,-2.7484,-2.8358,-2.921,-2.9287,-2.965,-3.052,-3.0578,-3.0172,-2.9306,-3.0133,-3.0172,-2.9306,-3.0153,-3.0598,-3.0598,-3.0598,-3.0598,-3.0598,-3.0598,-3.0598,-3.0598,-3.0598,-3.0598,-3.0598,-3.0598,-3.0598,-3.0598,-3.0598,-3.0598,-3.0598,-3.0598,-3.0598,-3.0346,-2.861,-2.7991,-2.772,-2.6033,-2.6048,-2.6551,-2.5758,-2.6068,-2.6532,-2.5739,-2.5507,-2.5507,-2.5507,-2.5507,-2.5507,-2.5507,-2.5507,-2.5507,-2.5507,-2.5507,-2.5507,-2.5507,-2.5507,-2.5507,-2.5507,-2.5507,-2.5484,-2.5406,-2.5401,-2.5393,-2.5391,-2.541,-2.5402,-2.5398,-2.5397,-2.5369,-2.5313,-2.5356,-2.5365,-2.5308,-2.5308,-2.5308,-2.5308,-2.5308,-2.5308,-2.5308,-2.5308,-2.5308,-2.5308,-2.5308,-2.5308,-2.5298,-2.5031,-2.4902,-1.1404,-1.2454,-1.3758,-1.4624,-1.7215,-1.9847,-2.0959,-2.2353,-2.3802,-2.5158,-2.5461,-2.5499,-2.5496,-2.5511,-2.5499,-2.5492,-2.5507,-2.5507,-2.5507,-2.5507,-2.5507,-2.5507,-2.57,-2.5855,-2.5855,-2.659,-2.7189,-2.7441,-2.8045,-2.8494,-2.8765,-2.8765,-2.8649,-2.8397,-2.9229,-2.9553,-2.9306,-3.0153,-3.0598,-3.0598,-3.0598,-3.0598,-3.0598,-3.0598,-3.0598,-3.0598,-3.0598,-3.0598,-3.0598,-3.0598,-3.0598,-3.0598,-3.0598,-3.0598,-3.0598,-3.0598,-3.0598,-3.0346,-2.861,-2.7991,-2.772,-2.6033,-2.6048,-2.6663,-2.6416,-2.6513,-2.6644,-2.6416,-2.5932,-2.5488,-2.5433,-2.5429,-2.5433,-2.5488,-2.5507,-2.5507,-2.5507,-2.5507,-2.5484,-2.5433,-2.5429,-2.5425,-2.5432,-2.5427,-2.5427,-2.54,-2.54,-2.5391,-2.5407,-2.5365,-2.5327,-2.5322,-2.5327,-2.5327,-2.5308,-2.5317,-2.5317,-2.5308,-2.5308,-2.5308,-2.5308,-2.5308,-2.5308,-2.5308,-2.5308,-2.5308,-2.5308,-2.5308,-2.5253,-2.5154,-2.4987,-2.4847,-1.2724,-1.3909,-1.5291,-1.6843,-1.9048,-2.1217,-2.2767,-2.3949,-2.4853,-2.5336,-2.546,-2.5507,-2.5507,-2.5507,-2.5507,-2.5507,-2.5507,-2.5507,-2.5507,-2.5507,-2.5507,-2.5507,-2.5507,-2.5507,-2.5507,-2.5932,-2.6358,-2.6683,-2.7189,-2.7619,-2.7972,-2.7991,-2.7836,-2.7484,-2.8664,-2.9132,-2.8784,-2.9998,-3.0598,-3.0598,-3.0598,-3.0598,-3.0598,-3.0598,-3.0598,-3.0598,-3.0598,-3.0598,-3.0598,-3.0598,-3.0598,-3.0598,-3.0598,-3.0598,-3.0598,-3.0598,-3.0598,-3.0404,-2.8997,-2.8281,-2.7778,-2.6416,-2.6064,-2.6172,-2.6172,-2.6187,-2.6178,-2.6178,-2.5831,-2.5444,-2.5412,-2.5408,-2.5412,-2.5444,-2.5468,-2.5468,-2.5468,-2.5468,-2.5444,-2.5412,-2.5408,-2.5404,-2.5391,-2.541,-2.5406,-2.5397,-2.5388,-2.5355,-2.5361,-2.5317,-2.5423,-2.5788,-2.5519,-2.5442,-2.5788,-2.55,-2.5442,-2.5788,-2.55,-2.5462,-2.5808,-2.5481,-2.5308,-2.5308,-2.5248,-2.5228,-2.5228,-2.516,-2.5103,-2.5031,-2.4881,-2.4779,-1.4654,-1.5715,-1.7003,-1.9635,-2.1078,-2.2465,-2.4859,-2.5447,-2.5484,-2.5484,-2.5484,-2.5488,-2.5507,-2.5507,-2.5507,-2.5507,-2.5507,-2.5507,-2.5507,-2.5507,-2.5507,-2.5507,-2.5507,-2.5507,-2.5507,-2.5507,-2.5797,-2.6551,-2.6586,-2.6938,-2.7739,-2.7778,-2.7406,-2.6629,-2.8199,-2.8687,-2.7894,-2.9611,-3.0443,-3.0361,-3.0438,-3.0438,-3.0361,-3.052,-3.0598,-3.0598,-3.0598,-3.0598,-3.0598,-3.0598,-3.0598,-3.0593,-3.0593,-3.0593,-3.0593,-3.0593,-3.0593,-3.0477,-2.9587,-2.878,-2.7967,-2.7011,-2.6202,-2.561,-2.5532,-2.552,-2.5526,-2.5526,-2.5468,-2.541,-2.5406,-2.5406,-2.5406,-2.5382,-2.5406,-2.541,-2.541,-2.541,-2.541,-2.5406,-2.5406,-2.5406,-2.5382,-2.5382,-2.5397,-2.5394,-2.5346,-2.5327,-2.5404,-2.5423,-2.575,-2.664,-2.6,-2.5865,-2.6659,-2.5981,-2.5865,-2.6678,-2.5962,-2.588,-2.6657,-2.5773,-2.5274,-2.5274,-2.5149,-2.5072,-2.5072,-2.4968,-2.4895,-2.4881,-2.4757,-2.4692,-1.3901,-1.4824,-1.625,-1.9481,-2.1944,-2.3895,-2.5127,-2.5415,-2.5423,-2.5423,-2.5417,-2.5433,-2.5488,-2.5507,-2.5507,-2.5507,-2.5507,-2.5507,-2.5507,-2.5507,-2.5507,-2.5507,-2.5507,-2.5507,-2.5507,-2.5507,-2.5565,-2.5758,-2.5758,-2.5836,-2.6033,-2.6033,-2.5956,-2.5758,-2.6725,-2.717,-2.6977,-2.8702,-2.9235,-2.8579,-2.926,-2.9192,-2.8531,-2.9945,-3.0598,-3.0598,-3.0598,-3.0598,-3.0598,-3.0598,-3.0564,-3.0525,-3.0525,-3.0515,-3.0519,-3.0519,-3.051,-3.0404,-2.9521,-2.912,-2.8767,-2.7204,-2.7002,-2.7248,-2.6611,-2.6418,-2.6414,-2.6414,-2.5931,-2.5406,-2.5407,-2.5403,-2.5398,-2.5332,-2.536,-2.541,-2.541,-2.541,-2.5406,-2.5407,-2.5403,-2.5374,-2.5332,-2.5327,-2.5322,-2.5317,-2.5313,-2.5558,-2.6231,-2.6327,-2.6659,-2.7525,-2.7448,-2.7409,-2.7601,-2.7448,-2.7409,-2.7601,-2.7448,-2.7341,-2.7383,-2.5941,-2.5149,-2.5149,-2.5,-2.4929,-2.4929,-2.4922,-2.484,-2.4734,-2.4704,-2.4637,-1.4069,-1.5154,-1.6734,-2.0542,-2.2806,-2.4321,-2.5158,-2.5351,-2.5355,-2.5393,-2.5391,-2.5408,-2.5459,-2.544,-2.5444,-2.5452,-2.5456,-2.546,-2.5507,-2.5507,-2.5507,-2.5507,-2.5507,-2.5507,-2.5507,-2.5507,-2.5507,-2.5507,-2.5507,-2.5507,-2.5507,-2.5507,-2.5507,-2.5507,-2.6272,-2.6709,-2.6709,-2.798,-2.8391,-2.7952,-2.8401,-2.8377,-2.7957,-2.9313,-3.0158,-3.0545,-3.0545,-3.0545,-3.0545,-3.0545,-3.0535,-3.05,-3.05,-3.0495,-3.0504,-3.0504,-3.049,-3.0442,-2.9988,-2.9564,-2.911,-2.8193,-2.762,-2.72,-2.6776,-2.6362,-2.6025,-2.6025,-2.5697,-2.5351,-2.5356,-2.5298,-2.5257,-2.5198,-2.5279,-2.5337,-2.5274,-2.5264,-2.5259,-2.5268,-2.5262,-2.5273,-2.5284,-2.5564,-2.5636,-2.5223,-2.5614,-2.5962,-2.5971,-2.6923,-2.7769,-2.8236,-2.8044,-2.8068,-2.8434,-2.8027,-2.7928,-2.8356,-2.7905,-2.7751,-2.8075,-2.6788,-2.6098,-2.6147,-2.5636,-2.5386,-2.5386,-2.493,-2.4665,-2.4607,-2.4607,-2.4566,-1.4109,-1.5824,-1.7834,-2.1624,-2.3336,-2.4317,-2.5115,-2.5308,-2.5313,-2.5365,-2.5388,-2.5406,-2.541,-2.541,-2.5395,-2.5393,-2.5397,-2.5425,-2.5464,-2.5488,-2.5507,-2.5507,-2.5507,-2.5507,-2.5507,-2.5507,-2.5507,-2.5507,-2.5507,-2.5507,-2.5507,-2.5507,-2.5507,-2.5507,-2.6125,-2.6483,-2.6483,-2.7291,-2.7624,-2.747,-2.746,-2.7538,-2.7692,-2.8425,-2.9317,-3.0272,-3.0427,-3.0504,-3.0504,-3.0504,-3.0479,-3.0474,-3.0474,-3.0474,-3.0488,-3.0488,-3.0469,-3.0474,-3.0488,-3.0006,-2.9375,-2.9235,-2.8115,-2.68,-2.6646,-2.5996,-2.5308,-2.5308,-2.5308,-2.5308,-2.5308,-2.5228,-2.5138,-2.5138,-2.5323,-2.5446,-2.5128,-2.508,-2.508,-2.508,-2.5078,-2.5176,-2.5435,-2.5841,-2.5861,-2.5107,-2.6034,-2.6517,-2.5757,-2.7299,-2.8572,-2.8916,-2.8537,-2.8537,-2.9178,-2.8485,-2.8297,-2.9029,-2.8252,-2.8058,-2.875,-2.7978,-2.7568,-2.7668,-2.6631,-2.6001,-2.587,-2.5089,-2.4648,-2.45,-2.4648,-2.4704,-1.262,-1.5747,-1.9146,-2.1177,-2.2893,-2.4317,-2.5115,-2.5308,-2.5308,-2.5313,-2.5361,-2.5407,-2.5406,-2.541,-2.5391,-2.5395,-2.5408,-2.5401,-2.5406,-2.546,-2.5507,-2.5507,-2.5507,-2.5507,-2.5507,-2.5507,-2.5507,-2.5507,-2.5507,-2.5507,-2.5507,-2.5507,-2.5507,-2.5507,-2.5549,-2.5575,-2.5575,-2.6423,-2.6482,-2.5731,-2.5659,-2.6029,-2.6785,-2.6881,-2.7836,-2.9423,-3.0176,-3.0504,-3.0504,-3.0504,-3.0469,-3.0403,-3.0403,-3.0406,-3.0416,-3.0416,-3.0414,-3.0417,-3.0408,-3.0342,-3.0128,-2.9355,-2.8478,-2.7588,-2.6837,-2.5986,-2.5308,-2.5308,-2.5308,-2.5308,-2.5308,-2.5298,-2.5269,-2.5269,-2.5855,-2.614,-2.5146,-2.4935,-2.4935,-2.4935,-2.5012,-2.5344,-2.6121,-2.5806,-2.5337,-2.5049,-2.6277,-2.7161,-2.7058,-2.7293,-2.8115,-2.9746,-2.9856,-2.9801,-2.9802,-2.9676,-2.9641,-2.9755,-2.9637,-2.9536,-2.9475,-2.9335,-2.9214,-2.9124,-2.7568,-2.6423,-2.5735,-2.5605,-2.5187,-2.4518,-2.5224,-2.554,-1.336,-1.5763,-1.8238,-2.085,-2.2447,-2.3586,-2.4452,-2.4981,-2.5308,-2.5308,-2.5317,-2.5332,-2.5341,-2.5346,-2.5351,-2.5388,-2.5402,-2.5391,-2.5404,-2.5421,-2.5433,-2.5433,-2.5484,-2.5507,-2.5507,-2.5507,-2.5507,-2.5507,-2.5507,-2.5507,-2.5507,-2.546,-2.5433,-2.5433,-2.5423,-2.5406,-2.5406,-2.5745,-2.5726,-2.5346,-2.5313,-2.55,-2.5885,-2.639,-2.729,-2.849,-2.8876,-2.93,-2.9723,-2.9723,-2.9982,-3.0408,-3.0408,-3.0396,-3.0404,-3.0404,-3.039,-3.0402,-3.041,-3.0396,-3.0344,-2.9948,-2.8948,-2.7838,-2.7448,-2.639,-2.5308,-2.5308,-2.5308,-2.5308,-2.5308,-2.5608,-2.5784,-2.5269,-2.6109,-2.7001,-2.6885,-2.6569,-2.6275,-2.6151,-2.6237,-2.6341,-2.6394,-2.6638,-2.6344,-2.4941,-2.685,-2.8474,-2.8474,-2.8474,-2.8846,-2.9769,-2.9945,-2.9969,-2.9902,-2.9803,-2.9742,-2.9742,-2.9663,-2.9579,-2.9482,-2.9501,-2.9461,-2.9407,-2.8189,-2.7185,-2.6368,-2.5931,-2.5299,-2.4518,-2.5336,-2.5708,-1.3341,-1.4935,-1.6567,-1.9731,-2.135,-2.2509,-2.3802,-2.4567,-2.5058,-2.5269,-2.5308,-2.5308,-2.5308,-2.5308,-2.5313,-2.5361,-2.5394,-2.5403,-2.5402,-2.54,-2.5393,-2.5393,-2.5429,-2.546,-2.546,-2.5488,-2.5507,-2.5507,-2.5507,-2.5488,-2.5484,-2.5429,-2.5397,-2.5393,-2.5397,-2.5398,-2.5398,-2.5322,-2.5308,-2.5308,-2.5308,-2.5308,-2.5327,-2.5962,-2.6621,-2.7255,-2.7703,-2.8242,-2.8819,-2.9011,-2.9486,-3.0096,-3.0308,-3.0404,-3.0404,-3.0404,-3.0404,-3.0404,-3.0404,-3.0404,-3.0404,-3.0404,-2.941,-2.8203,-2.8203,-2.7159,-2.5962,-2.5962,-2.5808,-2.563,-2.558,-2.6011,-2.6266,-2.5532,-2.6592,-2.7844,-2.8049,-2.771,-2.7368,-2.7419,-2.7231,-2.702,-2.6863,-2.7104,-2.6819,-2.5333,-2.7567,-2.9396,-2.9396,-2.9396,-2.947,-2.9617,-2.9707,-2.976,-2.976,-2.9645,-2.9551,-2.9551,-2.947,-2.9396,-2.9396,-2.9396,-2.9396,-2.9396,-2.8765,-2.8021,-2.7204,-2.6405,-2.5708,-2.5132,-2.5949,-2.6312,-1.1133,-1.2632,-1.4584,-1.7227,-1.9177,-2.1062,-2.3533,-2.4129,-2.4375,-2.5135,-2.5308,-2.5308,-2.5308,-2.5308,-2.5308,-2.5308,-2.5356,-2.5398,-2.5398,-2.5397,-2.5391,-2.5391,-2.5389,-2.5401,-2.5401,-2.546,-2.5507,-2.5507,-2.5507,-2.546,-2.5406,-2.5401,-2.5393,-2.5391,-2.5407,-2.5398,-2.5398,-2.5322,-2.5308,-2.5308,-2.5308,-2.5308,-2.5308,-2.5346,-2.5385,-2.5538,-2.7178,-2.7915,-2.803,-2.88,-2.9127,-2.9261,-3.0077,-3.0404,-3.0404,-3.0404,-3.0404,-3.0404,-3.0404,-3.0404,-3.0404,-3.0404,-2.9775,-2.905,-2.905,-2.8434,-2.7761,-2.7761,-2.7178,-2.6498,-2.6387,-2.6477,-2.6545,-2.6375,-2.7593,-2.8529,-2.749,-2.7228,-2.7426,-2.8198,-2.7311,-2.6787,-2.7821,-2.6587,-2.5729,-2.6645,-2.8263,-2.9396,-2.9396,-2.9396,-2.9407,-2.9399,-2.9409,-2.9438,-2.9438,-2.9427,-2.9417,-2.9417,-2.9407,-2.9396,-2.9396,-2.9396,-2.9396,-2.9396,-2.937,-2.8913,-2.804,-2.7222,-2.6814,-2.6795,-2.7594,-2.7984,-1.1711,-1.258,-1.3583,-1.5596,-1.7788,-1.9692,-2.0627,-2.209,-2.3509,-2.4356,-2.4529,-2.4697,-2.5192,-2.5308,-2.5308,-2.5308,-2.5317,-2.5346,-2.5346,-2.537,-2.5407,-2.5407,-2.5406,-2.54,-2.54,-2.5427,-2.5432,-2.5432,-2.5432,-2.5427,-2.54,-2.5406,-2.5397,-2.5407,-2.5361,-2.5346,-2.5346,-2.5313,-2.5308,-2.5308,-2.5308,-2.5308,-2.5308,-2.5308,-2.5308,-2.5327,-2.5962,-2.6544,-2.7082,-2.7371,-2.8121,-2.9127,-2.9429,-2.991,-3.0327,-2.9775,-2.9929,-3.0327,-2.9756,-2.9929,-3.0404,-3.0404,-2.9813,-2.9107,-2.9107,-2.8549,-2.7895,-2.7895,-2.7579,-2.7114,-2.6548,-2.7147,-2.8015,-2.8524,-2.917,-2.9531,-2.9039,-2.8822,-2.8811,-2.8997,-2.8651,-2.8455,-2.8857,-2.8388,-2.8068,-2.8452,-2.9006,-2.9396,-2.9396,-2.9396,-2.9396,-2.9396,-2.9396,-2.9396,-2.9396,-2.9396,-2.9396,-2.9396,-2.9396,-2.9396,-2.9396,-2.9396,-2.9396,-2.9396,-2.8839,-2.8412,-2.8096,-2.7817,-2.7408,-2.6925,-2.7724,-2.8096,-1.1403,-1.1965,-1.2716,-1.4709,-1.6247,-1.767,-1.9104,-2.0527,-2.1855,-2.299,-2.3451,-2.3913,-2.4736,-2.4909,-2.4981,-2.5269,-2.5308,-2.5308,-2.5308,-2.5346,-2.5361,-2.5361,-2.5384,-2.5397,-2.5397,-2.5406,-2.541,-2.541,-2.541,-2.5406,-2.5402,-2.5403,-2.5394,-2.5361,-2.5317,-2.5308,-2.5308,-2.5308,-2.5308,-2.5308,-2.5308,-2.5308,-2.5308,-2.5308,-2.5308,-2.5308,-2.5308,-2.5635,-2.6192,-2.6486,-2.7255,-2.8299,-2.8588,-2.9044,-2.9486,-2.8909,-2.9063,-2.9486,-2.8896,-2.9083,-2.9552,-2.9478,-2.9063,-2.8583,-2.8542,-2.8351,-2.8172,-2.8172,-2.8058,-2.7735,-2.6882,-2.7403,-2.8415,-2.9538,-2.9921,-2.9988,-2.9779,-2.9716,-2.9653,-2.9511,-2.9429,-2.9396,-2.9396,-2.9396,-2.9396,-2.9396,-2.9396,-2.9396,-2.9396,-2.9396,-2.9396,-2.9396,-2.9396,-2.9396,-2.9396,-2.9396,-2.9396,-2.9396,-2.9396,-2.9396,-2.9396,-2.9396,-2.9396,-2.9396,-2.882,-2.8542,-2.8542,-2.8244,-2.7984,-2.7743,-2.8282,-2.8542,0.0,0.0,0.0,-1.4412,-1.4459,-1.4956,-1.9154,-1.9488,-1.9377,-2.1119,-2.212,-2.297,-2.3898,-2.4072,-2.4356,-2.5135,-2.5288,-2.5308,-2.5308,-2.5308,-2.5308,-2.5308,-2.5356,-2.5394,-2.5394,-2.5397,-2.5406,-2.5406,-2.5406,-2.5397,-2.5398,-2.5394,-2.5361,-2.5308,-2.5308,-2.5308,-2.5308,-2.5308,-2.5308,-2.5308,-2.5308,-2.5308,-2.5308,-2.5308,-2.5308,-2.5308,-2.5308,-2.5308,-2.5365,-2.6212,-2.6582,-2.6678,-2.7525,-2.7876,-2.7895,-2.7876,-2.7876,-2.7895,-2.7871,-2.7871,-2.7849,-2.7656,-2.7593,-2.7574,-2.7438,-2.7994,-2.8669,-2.8669,-2.8616,-2.8353,-2.7451,-2.7221,-2.7626,-2.9223,-2.9751,-2.9794,-2.948,-2.9654,-2.9836,-2.9635,-2.9482,-2.9396,-2.9396,-2.9396,-2.9396,-2.9396,-2.9396,-2.9396,-2.9396,-2.9396,-2.9396,-2.9396,-2.9396,-2.9396,-2.9396,-2.9396,-2.9396,-2.9396,-2.9396,-2.9396,-2.9396,-2.9396,-2.9396,-2.9396,-2.9396,-2.9396,-2.9407,-2.8542,-2.856,-2.9396,-2.9396,-2.9396,-1.0146,0.0,0.0,0.0,0.0,0.0,-1.5266,-1.5962,-1.708,-2.0019,-2.0327,-2.0692,-2.2778,-2.3663,-2.4168,-2.4394,-2.4928,-2.5308,-2.5308,-2.5308,-2.5308,-2.5308,-2.5313,-2.5322,-2.5322,-2.5327,-2.5332,-2.5332,-2.5332,-2.5327,-2.5322,-2.5322,-2.5317,-2.5308,-2.5308,-2.5308,-2.5308,-2.5308,-2.5308,-2.5308,-2.5308,-2.5308,-2.5308,-2.5308,-2.5308,-2.5308,-2.5308,-2.5308,-2.5327,-2.5558,-2.6019,-2.6621,-2.6871,-2.7332,-2.7818,-2.7198,-2.7351,-2.7802,-2.7066,-2.7209,-2.765,-2.7501,-2.7452,-2.7445,-2.7409,-2.7566,-2.7748,-2.7748,-2.7683,-2.7631,-2.7811,-2.7848,-2.8128,-2.9209,-2.957,-2.9662,-2.957,-2.9617,-2.9635,-2.9491,-2.9419,-2.9396,-2.9396,-2.9396,-2.9396,-2.9396,-2.9396,-2.9396,-2.9396,-2.9396,-2.9396,-2.9396,-2.9396,-2.9396,-2.9396,-2.9396,-2.9396,-2.9396,-2.9396,-2.9396,-2.9396,-2.9396,-2.9396,-2.9396,-2.9396,-2.9396,-2.9396,-2.9155,-2.9155,-2.9396,-2.9396,-2.9396,-1.1188,-1.1345,-1.1831,-1.2115,0.0,0.0,-1.4552,-1.4824,-1.542,-1.8154,-1.8577,-1.9135,-2.135,-2.2177,-2.2855,-2.3937,-2.449,-2.4928,-2.525,-2.5308,-2.5308,-2.5308,-2.5308,-2.5308,-2.5308,-2.5308,-2.5308,-2.5308,-2.5308,-2.5308,-2.5308,-2.5308,-2.5308,-2.5308,-2.5308,-2.5308,-2.5308,-2.5308,-2.5308,-2.5308,-2.5308,-2.5308,-2.5308,-2.5308,-2.5308,-2.5308,-2.5308,-2.5308,-2.5308,-2.5308,-2.5596,-2.6058,-2.6058,-2.637,-2.6755,-2.6231,-2.6339,-2.6642,-2.605,-2.6123,-2.644,-2.6313,-2.6269,-2.6254,-2.6211,-2.6422,-2.6696,-2.6696,-2.6877,-2.7232,-2.7921,-2.8096,-2.8319,-2.9192,-2.9451,-2.9522,-2.9522,-2.9522,-2.9512,-2.9501,-2.944,-2.9396,-2.9396,-2.9396,-2.9396,-2.9396,-2.9396,-2.9396,-2.9396,-2.9396,-2.9396,-2.9396,-2.9396,-2.9396,-2.9396,-2.9396,-2.9396,-2.9396,-2.9396,-2.9396,-2.9396,-2.9396,-2.9396,-2.9396,-2.9396,-2.9396,-2.9396,-2.9396,-2.9396,-2.9396,-2.9396,-2.9396,-1.2795,-1.2689,-1.3134,-1.4573,-1.3373,0.0,-1.5539,-1.5071,-1.4516,-1.6157,-1.6987,-1.7946,-1.9692,-2.0096,-2.0908,-2.3167,-2.3687,-2.4163,-2.5154,-2.5308,-2.5308,-2.5308,-2.5308,-2.5308,-2.5308,-2.5308,-2.5308,-2.5308,-2.5308,-2.5308,-2.5308,-2.5308,-2.5308,-2.5308,-2.5308,-2.5308,-2.5308,-2.5308,-2.5308,-2.5308,-2.5308,-2.5308,-2.5308,-2.5308,-2.5308,-2.5308,-2.5308,-2.5308,-2.5308,-2.5308,-2.5308,-2.5308,-2.5308,-2.5298,-2.5269,-2.5269,-2.5187,-2.5086,-2.5055,-2.4987,-2.4854,-2.4712,-2.4676,-2.4653,-2.4542,-2.5001,-2.5578,-2.5578,-2.6154,-2.6925,-2.765,-2.7966,-2.83,-2.9062,-2.9322,-2.9396,-2.9396,-2.9396,-2.944,-2.9561,-2.9491,-2.9396,-2.9396,-2.9396,-2.9396,-2.9396,-2.9396,-2.9396,-2.9396,-2.9396,-2.9396,-2.9396,-2.9396,-2.9396,-2.9396,-2.9396,-2.9396,-2.9396,-2.9396,-2.9396,-2.9396,-2.9396,-2.9396,-2.9396,-2.9396,-2.9396,-2.9396,-2.9396,-2.9396,-2.9396,-2.9396,-2.9396,-1.4513,-1.4794,-1.5067,-1.4139,-1.4608,0.0,-1.4488,-1.4654,-1.5231,-1.6292,-1.6061,-1.6195,-1.7911,-1.8788,-1.9423,-1.9915,-2.1124,-2.2774,-2.5,-2.5308,-2.5308,-2.5308,-2.5308,-2.5308,-2.5308,-2.5308,-2.5308,-2.5308,-2.5308,-2.5308,-2.5308,-2.5308,-2.5308,-2.5308,-2.5308,-2.5308,-2.5308,-2.5308,-2.5308,-2.5308,-2.5308,-2.5308,-2.5308,-2.5308,-2.5308,-2.5308,-2.5308,-2.5308,-2.5308,-2.5308,-2.5308,-2.5308,-2.5308,-2.5238,-2.5143,-2.5143,-2.5043,-2.4929,-2.4823,-2.4757,-2.473,-2.4582,-2.4551,-2.4524,-2.4508,-2.4611,-2.4723,-2.4723,-2.5317,-2.5968,-2.6126,-2.713,-2.8133,-2.8319,-2.8895,-2.9396,-2.9396,-2.9396,-2.9417,-2.944,-2.9409,-2.9396,-2.9396,-2.9396,-2.9396,-2.9396,-2.9396,-2.9396,-2.9396,-2.9396,-2.9396,-2.9396,-2.9396,-2.9396,-2.9396,-2.9396,-2.9396,-2.9396,-2.9396,-2.9396,-2.9396,-2.9396,-2.9396,-2.9396,-2.9396,-2.9396,-2.9396,-2.9396,-2.9396,-2.9396,-2.9396,-2.9396,-1.6275,-1.623,-1.6476,-1.6136,-1.6097,0.0,0.0,-1.5632,-1.559,-1.7305,-1.6339,-1.5846,-1.7949,-1.835,-1.8638,-1.9508,-2.0696,-2.1947,-2.3231,-2.3769,-2.4216,-2.4659,-2.4697,-2.4697,-2.4697,-2.5058,-2.5308,-2.5308,-2.5308,-2.5308,-2.5308,-2.5308,-2.5308,-2.5308,-2.5308,-2.5308,-2.5308,-2.5308,-2.5308,-2.5308,-2.5308,-2.5308,-2.5308,-2.5308,-2.5308,-2.5308,-2.5308,-2.5308,-2.5284,-2.5233,-2.5192,-2.5192,-2.5192,-2.516,-2.5084,-2.5018,-2.4922,-2.4794,-2.4712,-2.4653,-2.459,-2.4525,-2.45,-2.45,-2.45,-2.45,-2.45,-2.45,-2.5076,-2.5801,-2.6182,-2.7185,-2.8207,-2.8635,-2.9081,-2.9396,-2.9396,-2.9396,-2.9396,-2.9396,-2.9396,-2.9396,-2.9396,-2.9396,-2.9396,-2.9396,-2.9396,-2.9396,-2.9396,-2.9396,-2.9396,-2.9396,-2.9396,-2.9396,-2.9396,-2.9396,-2.9396,-2.9396,-2.9396,-2.9396,-2.9396,-2.9396,-2.9396,-2.9396,-2.9396,-2.9396,-2.9396,-2.9396,-2.9396,-2.9396,-2.9396,-2.9396,-1.8414,-1.8042,-1.8105,-1.8391,-1.7822,-1.735,0.0,0.0,0.0,-1.8213,-1.7026,-1.6292,-1.8372,-1.8049,-1.793,-1.935,-2.0235,-2.0773,-2.0773,-2.1528,-2.2451,-2.3471,-2.3744,-2.3918,-2.4072,-2.4543,-2.4942,-2.5288,-2.5,-2.4962,-2.5288,-2.5308,-2.5308,-2.5308,-2.5308,-2.5308,-2.5308,-2.5308,-2.5308,-2.5308,-2.5308,-2.5308,-2.5308,-2.5308,-2.5308,-2.5303,-2.5269,-2.5259,-2.5248,-2.5121,-2.5055,-2.5055,-2.5055,-2.5056,-2.5,-2.4902,-2.4779,-2.466,-2.466,-2.459,-2.45,-2.45,-2.45,-2.45,-2.45,-2.45,-2.45,-2.45,-2.5076,-2.5856,-2.6498,-2.7371,-2.8282,-2.8969,-2.9266,-2.9396,-2.9396,-2.9396,-2.9396,-2.9396,-2.9396,-2.9396,-2.9396,-2.9396,-2.9396,-2.9396,-2.9396,-2.9396,-2.9396,-2.9396,-2.9396,-2.9396,-2.9396,-2.9396,-2.9396,-2.9396,-2.9396,-2.9396,-2.9396,-2.9396,-2.9396,-2.9396,-2.9396,-2.9396,-2.9396,-2.9396,-2.9396,-2.9396,-2.9396,-2.9396,-2.9396,-2.9396,-2.1495,-2.1439,-2.0938,-1.8854,-1.9924,-2.0583,-1.7096,0.0,-1.9033,-1.7967,0.0,-1.7432,-1.7782,0.0,0.0,-1.6907,-1.7603,-1.8122,-1.8122,-1.8876,-2.0031,-2.16,-2.2489,-2.324,-2.4033,-2.3471,-2.3697,-2.5192,-2.3928,-2.3735,-2.5231,-2.5308,-2.5308,-2.5308,-2.5308,-2.5308,-2.5308,-2.5308,-2.5308,-2.5308,-2.5308,-2.5308,-2.5308,-2.5308,-2.5308,-2.5284,-2.5171,-2.5132,-2.5101,-2.4987,-2.4929,-2.4929,-2.4929,-2.4847,-2.4742,-2.4738,-2.4637,-2.4525,-2.4525,-2.4517,-2.45,-2.45,-2.45,-2.45,-2.45,-2.45,-2.45,-2.45,-2.5076,-2.5726,-2.5819,-2.6962,-2.8114,-2.8226,-2.8839,-2.9396,-2.9396,-2.9396,-2.9396,-2.9396,-2.9396,-2.9396,-2.9396,-2.9396,-2.9396,-2.9396,-2.9396,-2.9396,-2.9396,-2.9396,-2.9396,-2.9396,-2.9396,-2.9396,-2.9396,-2.9396,-2.9396,-2.9396,-2.9396,-2.9396,-2.9396,-2.9396,-2.9396,-2.9396,-2.9396,-2.9396,-2.9396,-2.9396,-2.9396,-2.9396,-2.9396,-2.9396,-2.2076,-2.1972,-2.1778,-2.0805,-2.0987,-2.0938,-1.9289,-1.9011,-1.9175,-1.9514,0.0,0.0,0.0,0.0,0.0,0.0,-1.7487,-1.7353,-1.6388,-1.7007,-1.8161,-1.9854,-2.0369,-2.1119,-2.247,-2.2254,-2.2543,-2.3755,-2.2735,-2.2793,-2.4505,-2.4601,-2.4812,-2.5288,-2.5308,-2.5308,-2.5308,-2.5308,-2.5308,-2.5308,-2.5308,-2.5308,-2.5308,-2.5308,-2.5308,-2.5303,-2.5243,-2.5222,-2.5217,-2.508,-2.4962,-2.4902,-2.4902,-2.483,-2.4692,-2.4604,-2.4541,-2.45,-2.45,-2.45,-2.45,-2.45,-2.45,-2.45,-2.45,-2.45,-2.45,-2.45,-2.5076,-2.5819,-2.6275,-2.7241,-2.8226,-2.8728,-2.9118,-2.9396,-2.9396,-2.9396,-2.9396,-2.9396,-2.9396,-2.9396,-2.9396,-2.9396,-2.9396,-2.9396,-2.9396,-2.9396,-2.9396,-2.9396,-2.9396,-2.9396,-2.9396,-2.9396,-2.9396,-2.9396,-2.9396,-2.9396,-2.9396,-2.9396,-2.9396,-2.9396,-2.9396,-2.9396,-2.9396,-2.9396,-2.9396,-2.9283,-2.9229,-2.9229,-2.9355,-2.9396,-2.2738,-2.258,-2.2489,-2.1924,-2.1444,-2.096,-2.0431,-1.9701,-1.9439,-2.0477,-1.9552,0.0,0.0,0.0,-1.7929,0.0,0.0,-1.7088,-1.5418,-1.5722,-1.6603,-1.7815,-1.8561,-1.9481,-2.0692,-2.06,-2.1004,-2.2331,-2.1427,-2.1778,-2.3975,-2.411,-2.4471,-2.5269,-2.5308,-2.5308,-2.5308,-2.5308,-2.5308,-2.5308,-2.5308,-2.5308,-2.5308,-2.5308,-2.5308,-2.5303,-2.5259,-2.5248,-2.5238,-2.5109,-2.5,-2.4902,-2.4861,-2.4794,-2.4692,-2.459,-2.4524,-2.45,-2.45,-2.45,-2.45,-2.45,-2.45,-2.45,-2.45,-2.45,-2.4555,-2.4778,-2.541,-2.62,-2.7018,-2.7836,-2.8616,-2.9248,-2.9396,-2.9396,-2.9396,-2.9396,-2.9396,-2.9396,-2.9396,-2.9396,-2.9396,-2.9396,-2.9396,-2.9396,-2.9396,-2.9396,-2.9396,-2.9396,-2.9396,-2.9396,-2.9396,-2.9396,-2.9396,-2.9396,-2.9396,-2.9396,-2.9396,-2.9396,-2.9396,-2.9396,-2.9396,-2.9396,-2.9396,-2.9396,-2.9396,-2.9197,-2.9089,-2.9089,-2.9251,-2.9334,-2.422,-2.422,-2.3675,-2.1332,-2.1303,-2.1294,-1.9089,-1.9692,-2.0586,-2.004,-2.0501,-2.0766,-2.0045,-1.9283,0.0,0.0,0.0,0.0,0.0,-1.5172,-1.5269,-1.5327,-1.7507,-1.9027,-1.9073,-1.833,-1.8853,-2.135,-2.0008,-2.055,-2.3918,-2.411,-2.4471,-2.5269,-2.5308,-2.5308,-2.5308,-2.5308,-2.5308,-2.5308,-2.5308,-2.5308,-2.5308,-2.5308,-2.5308,-2.5284,-2.516,-2.5115,-2.5103,-2.4949,-2.4908,-2.4888,-2.4757,-2.4707,-2.47,-2.47,-2.4615,-2.45,-2.45,-2.45,-2.45,-2.45,-2.45,-2.45,-2.45,-2.45,-2.4667,-2.5448,-2.6238,-2.7055,-2.7854,-2.8709,-2.937,-2.9378,-2.9396,-2.9396,-2.9396,-2.9396,-2.9396,-2.9396,-2.9396,-2.9396,-2.9396,-2.9396,-2.9396,-2.9396,-2.9396,-2.9396,-2.9396,-2.9396,-2.9396,-2.9396,-2.9396,-2.9396,-2.9396,-2.9396,-2.9396,-2.9396,-2.9396,-2.9396,-2.9396,-2.9396,-2.9396,-2.9396,-2.9396,-2.9396,-2.9396,-2.9197,-2.9089,-2.9089,-2.9119,-2.91,-2.4257,-2.4266,-2.4007,-2.2736,-2.2166,-2.1606,-2.0483,-2.059,-2.0739,-2.0049,-2.0581,-2.0903,-2.0064,-1.9256,0.0,0.0,0.0,0.0,0.0,-1.3705,-1.3348,-1.3348,-1.521,-1.6484,-1.65,-1.6656,-1.7385,-1.8869,-1.8413,-1.9331,-2.2235,-2.2932,-2.3624,-2.449,-2.5019,-2.5308,-2.5308,-2.5203,-2.5203,-2.5303,-2.5217,-2.5203,-2.5308,-2.5308,-2.5308,-2.5303,-2.5253,-2.5238,-2.5228,-2.5097,-2.4968,-2.4902,-2.4847,-2.4719,-2.4566,-2.4566,-2.4551,-2.45,-2.45,-2.45,-2.45,-2.45,-2.45,-2.45,-2.45,-2.4871,-2.5355,-2.5615,-2.6665,-2.7761,-2.8021,-2.8746,-2.9396,-2.9396,-2.9396,-2.9396,-2.9396,-2.9396,-2.9396,-2.9396,-2.9396,-2.9396,-2.9396,-2.9396,-2.9396,-2.9396,-2.9396,-2.9396,-2.9396,-2.9396,-2.9396,-2.9396,-2.9396,-2.9396,-2.9396,-2.9396,-2.9396,-2.9396,-2.9396,-2.9396,-2.9396,-2.9396,-2.9396,-2.9396,-2.9396,-2.9396,-2.9396,-2.9197,-2.9033,-2.8899,-2.8899,-2.8899,-2.4201,-2.4238,-2.4091,-2.3373,-2.2728,-2.2068,-2.1221,-2.1177,-2.1124,-2.0401,-2.0743,-2.1058,-2.0672,-1.9796,0.0,0.0,0.0,0.0,0.0,-1.3213,-1.2861,-1.2861,-1.4214,-1.5149,-1.5107,-1.5302,-1.5919,-1.7072,-1.7194,-1.8317,-2.0871,-2.215,-2.3201,-2.4072,-2.4836,-2.5233,-2.5233,-2.5103,-2.5103,-2.5233,-2.5143,-2.5149,-2.5233,-2.5233,-2.5233,-2.5233,-2.5171,-2.5176,-2.5228,-2.5072,-2.4987,-2.4902,-2.4847,-2.4719,-2.4566,-2.4566,-2.4532,-2.45,-2.45,-2.45,-2.45,-2.45,-2.45,-2.4555,-2.4834,-2.5299,-2.5819,-2.6386,-2.7297,-2.817,-2.8486,-2.8969,-2.9396,-2.9396,-2.9396,-2.9396,-2.9396,-2.9396,-2.9396,-2.9396,-2.9396,-2.9396,-2.9396,-2.9396,-2.9396,-2.9396,-2.9396,-2.9396,-2.9396,-2.9396,-2.9396,-2.9396,-2.9396,-2.9396,-2.9396,-2.9376,-2.9376,-2.9396,-2.9396,-2.9386,-2.9365,-2.9386,-2.9386,-2.9365,-2.9386,-2.9396,-2.9396,-2.9197,-2.8998,-2.8797,-2.8731,-2.8657]},{"header":{"parameterUnit":"m.s-1","parameterCategory":1,"la1":30.6,"la2":29.2853,"lo1":-89.7004,"lo2":-87.6739,"dy":0.0162,"dx":0.0183,"nx":112,"ny":82,"refTime":"2024-07-25T06:00:00:Z","depth":0,"parameterNumber":3,"parameterNumberName":"V-component_of_WINDS"},"data":[0.0,0.0,0.0,0.0,0.0,0.0,0.0,0.0,0.0,0.0,0.0,0.0,0.0,0.0,0.0,0.0,0.0,0.0,0.0,0.0,0.0,0.0,0.0,0.0,0.0,0.0,0.0,0.0,0.0,0.0,0.0,0.0,0.0,0.0,0.0,0.0,0.0,0.0,0.0,0.0,0.0,0.0,0.0,0.0,0.0,0.0,0.0,0.0,0.0,0.0,0.0,0.0,0.0,0.0,0.0,0.0,0.0,0.0,0.0,0.0,0.0,0.0,0.0,0.0,0.0,0.0,0.0,0.0,0.0,0.0,0.0,0.0,0.0,0.0,0.0,0.0,0.0,0.0,0.0,0.0,0.0,0.0,0.0,0.0,0.0,0.0,0.0,0.0,0.0,0.0,1.0082,1.0835,1.2607,1.4192,1.5348,1.5573,1.4838,1.292,0.0,0.0,0.0,0.0,0.0,0.0,0.0,0.0,0.0,0.0,0.0,0.0,0.0,0.0,0.0,0.0,0.0,0.0,0.0,0.0,0.0,0.0,0.0,0.0,0.0,0.0,0.0,0.0,0.0,0.0,0.0,0.0,0.0,0.0,0.0,0.0,0.0,0.0,0.0,0.0,0.0,0.0,0.0,0.0,0.0,0.0,0.0,0.0,0.0,0.0,0.0,0.0,0.0,0.0,0.0,0.0,0.0,0.0,0.0,0.0,0.0,0.0,0.0,0.0,0.0,0.0,0.0,0.0,0.0,0.0,0.0,0.0,0.0,0.0,0.0,0.0,0.0,0.0,0.0,0.0,0.0,0.0,0.0,0.0,0.0,0.0,0.0,0.0,0.0,0.0,0.0,0.0,0.0,0.0,0.0,0.0,0.0,0.0,0.0,0.0,0.0,0.0,0.0,0.0,1.1095,1.3439,1.4099,1.5071,1.6828,1.6084,1.4988,1.3704,0.0,0.0,0.0,0.0,0.0,0.0,0.0,0.0,0.0,0.0,0.0,0.0,0.0,0.0,0.0,0.0,0.0,0.0,0.0,0.0,0.0,0.0,0.0,0.0,0.0,0.0,0.0,0.0,0.0,0.0,0.0,0.0,0.0,0.0,0.0,0.0,0.0,0.0,0.0,0.0,0.0,0.0,0.0,0.0,0.0,0.0,0.0,0.0,0.0,0.0,0.0,0.0,0.0,0.0,0.0,0.0,0.0,0.0,0.0,0.0,0.0,0.0,0.0,0.0,0.0,0.0,0.0,0.0,0.0,0.0,0.0,0.0,0.0,0.0,0.0,0.0,0.0,0.0,0.0,0.0,0.0,0.0,0.0,0.0,0.0,0.0,0.0,0.0,0.0,0.0,0.0,0.0,0.0,0.0,0.0,0.0,0.0,0.0,0.0,0.0,0.0,0.0,0.0,0.9414,1.1076,1.3847,1.4208,1.5006,1.6822,1.5934,1.4776,1.3594,1.2748,0.0,0.0,0.0,0.0,0.0,0.0,0.0,0.0,0.0,0.0,0.0,0.0,0.0,0.0,0.0,0.0,0.0,0.0,0.0,0.0,0.0,0.0,0.0,0.0,0.0,0.0,0.0,0.0,0.0,0.0,0.0,0.0,0.0,0.0,0.0,0.0,0.0,0.0,0.0,0.0,0.0,0.0,0.0,0.0,0.0,0.0,0.0,0.0,0.0,0.0,0.0,0.0,0.0,0.0,0.0,0.0,0.0,0.0,0.0,0.0,0.0,0.0,0.0,0.0,0.0,0.0,0.0,0.0,0.0,0.0,0.0,0.0,0.0,0.0,0.0,0.0,0.0,0.0,0.0,0.0,0.0,0.0,0.0,0.0,0.0,0.0,0.0,0.0,0.0,0.0,0.0,0.0,0.0,0.0,0.0,0.0,0.0,0.0,0.0,0.0,0.0,0.0,0.9788,1.0773,1.3542,1.4029,1.4826,1.652,1.5561,1.4424,1.3328,1.2093,0.0,0.0,0.0,0.0,0.0,0.0,0.0,0.0,0.0,0.0,0.0,0.0,0.0,0.0,0.0,0.0,0.0,0.0,0.0,0.0,0.0,0.0,0.0,0.0,0.0,0.0,0.0,0.0,0.0,0.0,0.0,0.0,0.0,0.0,0.0,0.0,0.0,0.0,0.0,0.0,0.0,0.0,0.0,0.0,0.0,0.0,0.0,0.0,0.0,0.0,0.0,0.0,0.0,0.0,0.0,0.0,0.0,0.0,0.0,0.0,0.0,0.0,0.0,0.0,0.0,0.0,0.0,0.0,0.0,0.0,0.0,0.0,0.0,0.0,0.0,0.0,0.0,0.0,0.0,0.0,0.0,0.0,0.0,0.0,0.0,0.0,0.0,0.0,0.0,0.0,0.0,0.0,0.0,0.0,0.0,0.0,0.0,0.0,0.0,0.0,0.0,0.0,0.9418,1.0494,1.306,1.3912,1.4887,1.6389,1.5129,1.3934,1.3157,1.1529,0.0,0.0,0.0,0.0,0.0,0.0,0.0,0.0,0.0,0.0,0.0,0.0,0.0,0.0,0.0,0.0,0.0,0.0,0.0,0.0,0.0,0.0,0.0,0.0,0.0,0.0,0.0,0.0,0.0,0.0,0.0,0.0,0.0,0.0,0.0,0.0,0.0,0.0,0.0,0.0,0.0,0.0,0.0,0.0,0.0,0.0,0.0,0.0,0.0,0.0,0.0,0.0,0.0,0.0,0.0,0.0,0.0,0.0,0.0,0.0,0.0,0.0,0.0,0.0,0.0,0.0,0.0,0.0,0.0,0.0,0.0,0.0,0.0,0.0,0.0,0.0,0.0,0.0,0.0,0.0,0.0,0.0,0.0,0.0,0.0,0.0,0.0,0.0,0.0,0.0,0.0,0.0,0.0,0.0,0.0,0.0,0.0,0.0,0.0,0.0,0.0,0.0,0.9032,0.9851,1.2072,1.2792,1.353,1.4546,1.4067,1.3326,1.2405,0.0,0.0,0.0,0.0,0.0,0.0,0.0,0.0,0.0,0.0,0.0,0.0,0.0,0.0,0.0,0.0,0.0,0.0,0.0,0.0,0.0,0.0,0.0,0.0,0.0,0.0,0.0,0.0,0.0,0.0,0.0,0.0,0.0,0.0,0.0,0.0,0.0,0.0,0.0,0.0,0.0,0.0,0.0,0.0,0.0,0.0,0.0,0.0,0.0,0.0,0.0,0.0,0.0,0.0,0.0,0.0,0.0,0.0,0.0,0.0,0.0,0.0,0.0,0.0,0.0,0.0,0.0,0.0,0.0,0.0,0.0,0.0,0.0,0.0,0.0,0.0,0.0,0.0,0.0,0.0,0.0,0.0,0.0,0.0,0.0,0.0,0.0,0.0,0.0,0.0,0.0,0.0,0.0,0.0,0.0,0.0,0.0,0.0,0.0,0.0,0.0,0.0,0.8387,0.8493,0.9176,1.1084,1.1803,1.2422,1.313,1.2979,1.2514,1.1705,0.0,0.0,0.0,0.0,0.0,0.0,0.0,0.0,0.0,0.0,0.0,0.0,0.0,0.0,0.0,0.0,0.0,0.0,0.0,0.0,0.0,0.0,0.0,0.0,0.0,0.0,0.0,0.0,0.0,0.0,0.0,0.0,0.0,0.0,0.0,0.0,0.0,0.0,0.0,0.0,0.0,0.0,0.0,0.0,0.0,0.0,0.0,0.0,0.0,0.0,0.0,0.0,0.0,0.0,0.0,0.0,0.0,0.0,0.0,0.0,0.0,0.0,0.0,0.0,0.0,0.0,0.0,0.0,0.0,0.0,0.0,0.0,0.0,0.0,0.0,0.0,0.0,0.0,0.0,0.0,0.0,0.0,0.0,0.0,0.0,0.0,0.0,0.0,0.0,0.0,0.0,0.0,0.0,0.0,0.0,0.0,0.0,0.0,0.0,0.0,0.0,0.0,0.7401,0.7776,0.8536,1.021,1.1096,1.1828,1.2416,1.1981,1.1504,0.0,0.0,0.0,0.0,0.0,0.0,0.0,0.0,0.0,0.0,0.0,0.0,0.0,0.0,0.0,0.0,0.0,0.0,0.0,0.0,0.0,0.0,0.0,0.0,0.0,0.0,0.0,0.0,0.0,0.0,0.0,0.0,0.0,0.0,0.0,0.0,0.0,0.0,0.0,0.0,0.0,0.0,0.0,0.0,0.0,0.0,0.0,0.0,0.0,0.0,0.0,0.0,0.0,0.0,0.0,0.0,0.0,0.0,0.0,0.0,0.0,0.0,0.0,0.0,0.0,0.0,0.0,0.0,0.0,0.0,0.0,0.0,0.0,0.0,0.0,0.0,0.0,0.0,0.0,0.0,0.0,0.0,0.0,0.0,0.0,0.0,0.0,0.0,0.0,0.0,0.0,0.0,0.0,0.0,0.0,0.0,0.0,0.0,0.0,0.0,0.0,0.0,0.0,0.7047,0.7212,0.7763,0.925,0.979,1.0118,1.0308,1.0302,1.0123,0.9715,0.0,0.0,0.0,0.0,0.0,0.0,0.0,0.0,0.0,0.0,0.0,0.0,0.0,0.0,0.0,0.0,0.0,0.0,0.0,0.0,0.0,0.0,0.0,0.0,0.0,0.0,0.0,0.0,0.0,0.0,0.0,0.0,0.0,0.0,0.0,0.0,0.0,0.0,0.0,0.0,0.0,0.0,0.0,0.0,0.0,0.0,0.0,0.0,0.0,0.0,0.0,0.0,0.0,0.0,0.0,0.0,0.0,0.0,0.0,0.0,0.0,0.0,0.0,0.0,0.0,0.0,0.0,0.0,0.0,0.0,0.0,0.0,0.0,0.0,0.0,0.0,0.0,0.0,0.0,0.0,0.0,0.0,0.0,0.0,0.0,0.0,0.0,0.0,0.0,0.0,0.0,0.0,0.0,0.0,0.0,0.0,0.0,0.0,0.0,0.0,0.0,0.0,0.6419,0.6666,0.7158,0.8353,0.8725,0.8933,0.9078,0.9392,0.9356,0.8852,0.0,0.0,0.0,0.0,0.0,0.0,0.0,0.0,0.0,0.0,0.0,0.0,0.0,0.0,0.0,0.0,0.0,0.0,0.0,0.0,0.0,0.0,0.0,0.0,0.0,0.0,0.0,0.0,0.0,0.0,0.0,0.0,0.0,0.0,0.0,0.0,0.0,0.0,0.0,0.0,0.0,0.0,0.0,0.0,0.0,0.0,0.0,0.0,0.0,0.0,0.0,0.0,0.0,0.0,0.0,0.0,0.0,0.0,0.0,0.0,0.0,0.0,0.0,0.0,0.0,0.0,0.0,0.0,0.0,0.0,0.0,0.0,0.0,0.0,0.0,0.0,0.0,0.0,0.0,0.0,0.0,0.0,0.0,0.0,0.0,0.0,0.0,0.0,0.0,0.0,0.0,0.0,0.0,0.0,0.0,0.0,0.0,0.0,0.0,0.0,0.0,0.0,0.5651,0.6119,0.6665,0.755,0.7868,0.8149,0.8449,0.8923,0.8935,0.8304,0.0,0.0,0.0,0.0,0.0,0.0,0.0,0.0,0.0,0.0,0.0,0.0,0.0,0.0,0.0,0.0,0.0,0.0,0.0,0.0,0.0,0.0,0.0,0.0,0.0,0.0,0.0,0.0,0.0,0.0,0.0,0.0,0.0,0.0,0.0,0.0,0.0,0.0,0.0,0.0,0.0,0.0,0.0,0.0,0.0,0.0,0.0,0.0,0.0,0.0,0.0,0.0,0.0,0.0,0.0,0.0,0.0,0.0,0.0,0.0,0.318,0.3643,0.0,0.0,0.0,0.0,0.0,0.0,0.0,0.0,0.0,0.0,0.0,0.0,0.0,0.0,0.0,0.0,0.0,0.0,0.0,0.0,0.0,0.0,0.0,0.0,0.0,0.0,0.0,0.0,0.0,0.0,0.0,0.0,0.0,0.0,0.0,0.0,0.0,0.0,0.0,0.0,0.5105,0.5559,0.614,0.7117,0.7325,0.7423,0.7496,0.7657,0.7593,0.7235,0.6774,0.0,0.0,0.0,0.0,0.0,0.0,0.0,0.0,0.0,0.0,0.0,0.0,0.0,0.0,0.0,0.0,0.0,0.0,0.0,0.0,0.0,0.0,0.0,0.0,0.0,0.0,0.0,0.0,0.0,0.0,0.0,0.0,0.0,0.0,0.0,0.0,0.0,0.0,0.0,0.0,0.0,0.0,0.0,0.0,0.0,0.0,0.0,0.0,0.0,0.0,0.0,0.0,0.0,0.0,0.0,0.0,0.0,0.0,0.0,0.2411,0.2746,0.0,0.0,0.0,0.0,0.0,0.0,0.0,0.0,0.0,0.0,0.0,0.0,0.0,0.0,0.0,0.0,0.0,0.0,0.0,0.0,0.0,0.0,0.0,0.0,0.0,0.0,0.0,0.0,0.0,0.0,0.0,0.0,0.0,0.0,0.0,0.0,0.0,0.0,0.0,0.0,0.4515,0.4991,0.5606,0.6485,0.6601,0.676,0.7118,0.7187,0.7108,0.6873,0.6617,0.0,0.0,0.0,0.0,0.0,0.0,0.0,0.0,0.0,0.0,0.0,0.0,0.0,0.0,0.0,0.0,0.0,0.0,0.0,0.0,0.0,0.0,0.0,0.0,0.0,0.0,0.0,0.0,0.0,0.0,0.0,0.0,0.0,0.0,0.0,0.0,0.0,0.0,0.0,0.0,0.0,0.0,0.0,0.0,0.0,0.0,0.0,0.0,0.0,0.0,0.0,0.0,0.0,0.2153,0.2174,0.1952,0.1971,0.1857,0.1642,0.1917,0.2015,0.1974,0.2114,0.0,0.0,0.0,0.0,0.0,0.0,0.0,0.0,0.0,0.0,0.0,0.0,0.0,0.0,0.0,0.0,0.0,0.0,0.0,0.0,0.0,0.0,0.2307,0.2526,0.2688,0.2928,0.3405,0.0,0.0,0.0,0.0,0.0,0.0,0.0,0.0,0.0,0.0,0.0,0.3963,0.4483,0.5068,0.5743,0.5821,0.6075,0.6683,0.6796,0.6748,0.6552,0.6657,0.6377,0.0,0.0,0.0,0.0,0.0,0.0,0.0,0.0,0.0,0.0,0.0,0.0,0.0,0.0,0.0,0.0,0.0,0.0,0.0,0.0,0.0,0.0,0.0,0.0,0.0,0.0,0.0,0.0,0.0,0.0,0.0,0.0,0.136,0.0929,0.0,0.0,0.0,0.0,0.0,0.0,0.0,0.0,0.0,0.0,0.0,0.0,0.0,0.0688,0.0603,0.1109,0.1342,0.1299,0.1414,0.1448,0.141,0.1467,0.1276,0.093,0.0982,0.0,0.1833,0.1966,0.0,0.0,0.0,0.0,0.0,0.0,0.0,0.0,0.0,0.0,0.0,0.0,0.0,0.0,0.0,0.0,0.0,0.0,0.0,0.0,0.0,0.0,0.2468,0.2503,0.2232,0.2111,0.2626,0.3201,0.3556,0.3382,0.3161,0.2901,0.0,0.0,0.0,0.0,0.0,0.0,0.3626,0.4137,0.4618,0.5011,0.5093,0.5165,0.5275,0.555,0.5642,0.5502,0.5828,0.6004,0.5943,0.5497,0.0,0.0,0.0,0.0,0.0,0.0,0.0,0.0,0.0,0.0,0.0,0.0,0.0,0.0,0.0,0.0,0.0,0.0,0.0,0.0,0.0,0.0,0.0,0.0,0.0,0.0,0.0,0.0,0.0,0.0936,0.0538,0.0317,0.0296,0.0231,0.0,0.0,0.0,0.0,0.0,0.0,0.0,0.0,0.0,-0.0119,0.0051,0.0209,0.0331,0.0535,0.0637,0.0638,0.0696,0.0747,0.0747,0.0761,0.0695,0.0527,0.0527,0.069,0.0959,0.0904,0.0855,0.0792,0.0,0.0,0.0,0.0,0.0747,0.0749,0.0834,0.0835,0.0766,0.0524,0.0,0.0,0.0,0.0,0.0,0.0,0.0,0.0689,0.0922,0.1193,0.1443,0.1524,0.1536,0.1588,0.1814,0.2185,0.2553,0.284,0.2826,0.2673,0.2366,0.2302,0.0,0.0,0.0,0.2866,0.302,0.3466,0.3912,0.4237,0.4446,0.4654,0.4925,0.5084,0.515,0.5133,0.5225,0.5383,0.5597,0.5313,0.5269,0.0,0.0,0.0,0.0,0.0,0.0,0.0,0.0,0.0,0.0,0.0,0.0,0.0,0.0,0.0,0.0,0.0,0.0,0.0,0.0,0.0,0.0,0.0,0.0,0.0,0.0,0.0,0.0,0.027,-0.0093,-0.0278,-0.048,-0.064,0.0,0.0,0.0,0.0,0.0,0.0,-0.0708,-0.0603,-0.0477,-0.0328,-0.0254,-0.0121,0.0063,0.0179,0.0231,0.0231,0.0297,0.0332,0.0332,0.0336,0.0259,0.0181,0.0181,0.0103,0.0,0.0044,0.0081,0.0117,0.0056,0.0018,0.0037,0.0076,0.0076,0.0056,0.0162,0.0162,0.0118,0.002,-0.0039,-0.0132,-0.0217,0.0,0.0,0.0,0.0,0.0155,0.0235,0.0491,0.0746,0.0853,0.0984,0.1132,0.1267,0.1309,0.1542,0.2276,0.2479,0.2465,0.2279,0.2339,0.0,0.2198,0.2475,0.2694,0.2694,0.3054,0.3398,0.3646,0.3935,0.424,0.4593,0.4648,0.4738,0.4879,0.4769,0.4849,0.5181,0.5131,0.5165,0.5319,0.0,0.0,0.0,0.0,0.0,0.0,0.0,0.0,0.0,0.0,0.0,0.0,0.0,0.0,0.0,0.0,0.0,0.0,0.0,0.0,0.0,0.0,0.0,0.0,0.0,0.0,0.0,0.0,0.0,-0.0801,-0.1033,0.0,0.0,0.0,0.0,-0.1923,-0.1519,-0.126,-0.126,-0.0891,-0.0681,-0.0667,-0.0369,-0.0216,-0.0274,0.01,0.0301,0.0301,0.0365,0.0398,0.0398,0.0385,0.0195,-0.0167,-0.0167,-0.0438,-0.0792,-0.0098,0.0188,0.0187,0.0113,0.0089,0.0089,0.0089,0.0137,0.0187,0.0188,0.0188,0.0142,-0.0172,-0.0461,-0.0585,-0.0229,-0.0323,0.0,0.0,0.0,0.0268,0.0582,0.0871,0.107,0.1093,0.0804,0.0671,0.1183,0.0909,0.089,0.1991,0.2268,0.2389,0.2629,0.0,0.2606,0.241,0.2719,0.2979,0.2979,0.3176,0.3314,0.3314,0.362,0.383,0.3849,0.3971,0.4219,0.4592,0.4504,0.4568,0.4912,0.4854,0.4823,0.4833,0.4245,0.0,0.0,0.0,0.0,0.0,0.0,0.0,0.0,0.0,0.0,0.0,0.0,0.0,0.0,0.0,0.0,0.0,0.0,0.0,0.0,0.0,0.0,0.0,0.0,0.0,0.0,0.0,0.0,-0.137,-0.1587,0.0,-0.2069,-0.1761,-0.1612,-0.1799,-0.1242,-0.0932,-0.0981,-0.0853,-0.0764,-0.0775,-0.0638,-0.0597,-0.063,-0.0516,-0.047,-0.047,-0.046,-0.044,-0.0441,-0.0446,-0.0505,-0.0645,-0.0645,-0.0752,-0.088,-0.0616,-0.049,-0.0444,-0.0463,-0.0484,-0.0484,-0.0484,-0.0464,-0.0444,-0.0444,-0.0444,-0.047,-0.0577,-0.0687,-0.0736,-0.0593,-0.0634,-0.0701,-0.0625,-0.0508,-0.0413,-0.0295,-0.0192,-0.0093,-0.0023,-0.0069,-0.009,0.0157,0.0133,0.0262,0.0964,0.1326,0.1677,0.2102,0.2153,0.2221,0.2484,0.2616,0.2681,0.2681,0.2902,0.3053,0.3053,0.3301,0.3571,0.3782,0.372,0.3823,0.4181,0.4053,0.4107,0.4436,0.4509,0.4465,0.4297,0.4281,0.4038,0.0,0.0,0.0,0.0,0.0,0.0,0.0,0.0,0.0,0.0,0.0,0.0,0.0,0.0,0.0,0.0,0.0,0.0,0.0,0.0,0.0,0.0,0.0,0.0,0.0,-0.119,-0.1648,-0.193,-0.2006,-0.2147,-0.2411,-0.1936,-0.1684,-0.1864,-0.1315,-0.0995,-0.1045,-0.0907,-0.0822,-0.0822,-0.0832,-0.0838,-0.0838,-0.0884,-0.0895,-0.0895,-0.0887,-0.0898,-0.0898,-0.0898,-0.0898,-0.0898,-0.0898,-0.0898,-0.0898,-0.0898,-0.0874,-0.0838,-0.0838,-0.0838,-0.0838,-0.0838,-0.0838,-0.0838,-0.0838,-0.0838,-0.0836,-0.0825,-0.0822,-0.082,-0.081,-0.0814,-0.0822,-0.0822,-0.0822,-0.0822,-0.0822,-0.0825,-0.0778,-0.0681,-0.0591,-0.0528,-0.0482,-0.0363,-0.0157,0.0202,0.0641,0.1138,0.1635,0.1831,0.2028,0.2378,0.2554,0.2626,0.2626,0.2792,0.2896,0.2896,0.3158,0.3418,0.364,0.3623,0.3653,0.378,0.365,0.3667,0.3886,0.3918,0.3901,0.3836,0.3981,0.3824,0.3367,0.0,0.0,0.0,0.0,0.0,0.0,0.0,0.0,0.0,0.0,0.0,0.0,0.0,0.0,0.0,0.0,0.0,0.0,0.0,0.0,0.0,0.0,0.0,-0.0983,-0.1556,-0.212,-0.2467,-0.2277,-0.2261,-0.265,-0.2385,-0.2189,-0.2193,-0.1742,-0.1492,-0.1468,-0.1099,-0.0907,-0.0907,-0.091,-0.0898,-0.0898,-0.0898,-0.0898,-0.0898,-0.0898,-0.0898,-0.0898,-0.0898,-0.0898,-0.0898,-0.0898,-0.0898,-0.0898,-0.0898,-0.0898,-0.0898,-0.0898,-0.0898,-0.0898,-0.0898,-0.0898,-0.0898,-0.0898,-0.0898,-0.0892,-0.0891,-0.0907,-0.0901,-0.0819,-0.0856,-0.0907,-0.0907,-0.0907,-0.0907,-0.0907,-0.0857,-0.0808,-0.0808,-0.0713,-0.0599,-0.0599,-0.051,-0.0361,-0.0225,0.0269,0.0829,0.1299,0.1744,0.2077,0.2099,0.2551,0.0,0.289,0.289,0.289,0.289,0.3198,0.3398,0.3398,0.3622,0.3667,0.342,0.3323,0.3294,0.3294,0.3104,0.3171,0.3501,0.3313,0.3308,0.3511,0.0,0.0,0.0,0.0,0.0,0.0,0.0,0.0,0.0,0.0,0.0,0.0,0.0,0.0,0.0,0.0,0.0,0.0,0.0,0.0,0.0,-0.188,-0.2307,-0.2083,-0.2071,-0.2206,-0.26,-0.2362,-0.2221,-0.2336,-0.1942,-0.1707,-0.175,-0.1337,-0.1062,-0.1062,-0.0963,-0.0912,-0.0912,-0.0894,-0.0898,-0.0898,-0.0898,-0.0898,-0.0898,-0.0898,-0.0898,-0.0898,-0.0898,-0.0898,-0.0898,-0.0898,-0.0898,-0.0898,-0.0898,-0.0898,-0.0898,-0.0898,-0.0898,-0.0898,-0.0898,-0.0898,-0.0898,-0.0898,-0.0898,-0.0896,-0.0887,-0.0912,-0.0883,-0.0875,-0.0878,-0.0912,-0.0912,-0.0912,-0.0912,-0.0912,-0.0889,-0.0866,-0.0866,-0.0817,-0.0745,-0.0745,-0.0641,-0.051,-0.0378,-0.0141,0.0232,0.0788,0.1006,0.1319,0.1988,0.2235,0.246,0.2845,0.289,0.289,0.289,0.2979,0.3132,0.3376,0.3239,0.3227,0.3382,0.3158,0.3003,0.3003,0.3143,0.3377,0.3714,0.3523,0.3519,0.0,0.0,0.0,0.0,0.0,0.0,0.0,0.0,0.0,0.0,0.0,0.0,0.0,0.0,0.0,0.0,0.0,0.0,0.0,0.0,0.0,0.0,-0.2132,-0.2478,-0.2377,-0.2404,-0.2447,-0.2483,-0.2168,-0.196,-0.1952,-0.1516,-0.1278,-0.1302,-0.1061,-0.0907,-0.0896,-0.0898,-0.0898,-0.0898,-0.0898,-0.0898,-0.0898,-0.0898,-0.0898,-0.0898,-0.0898,-0.0898,-0.0898,-0.0898,-0.0898,-0.0898,-0.0898,-0.0898,-0.0898,-0.0898,-0.0898,-0.0898,0.0,0.0,0.0,0.0,-0.0898,-0.0898,-0.0898,-0.0898,-0.0898,-0.0898,-0.0898,-0.0898,-0.0898,-0.0898,-0.0898,-0.0898,-0.0898,-0.0898,-0.0898,-0.0912,-0.0898,-0.0898,-0.0874,-0.0851,-0.0851,-0.0765,-0.0649,-0.0506,-0.0382,0.0,0.0248,0.0537,0.0895,0.1431,0.1676,0.199,0.2504,0.2573,0.264,0.2868,0.289,0.2979,0.3179,0.3066,0.0,0.0,0.0,0.2743,0.262,0.2967,0.0,0.0,0.0,0.0,0.0,0.0,0.0,0.0,0.3904,0.4011,0.0,0.0,0.0,0.0,0.0,0.0,0.0,0.0,0.0,0.0,0.0,0.0,0.0,0.0,0.0,0.0,-0.2166,-0.2143,-0.2232,-0.2531,-0.2604,-0.2193,-0.1772,-0.1516,-0.1522,-0.1156,-0.0898,-0.0898,-0.0898,-0.0898,-0.0898,-0.0898,0.0,0.0,0.0,-0.0898,-0.0898,-0.0898,-0.0898,-0.0898,-0.0898,-0.0898,-0.0898,-0.0898,-0.0898,-0.0898,-0.0898,-0.0898,-0.0898,-0.0898,-0.0898,-0.0898,-0.0898,-0.0898,-0.0898,-0.0898,-0.0898,-0.0898,-0.0898,0.0,0.0,-0.0898,-0.0898,-0.0898,-0.0898,-0.0898,-0.0898,-0.0898,-0.0898,-0.0898,-0.0898,-0.0898,-0.0898,-0.0898,-0.0904,-0.0911,-0.0911,-0.0862,-0.0783,-0.0634,-0.0506,-0.0356,-0.0228,0.0247,0.0649,0.0693,0.1052,0.1499,0.1966,0.2077,0.2279,0.2754,0.2868,0.0,0.289,0.2988,0.2899,0.2548,0.2617,0.2568,0.2295,0.2733,0.2941,0.2831,0.3056,0.3433,0.396,0.413,0.4224,0.4219,0.4201,0.431,0.0,0.0,0.0,0.0,0.0,0.0,0.0,0.0,0.0,0.0,0.0,0.0,0.0,0.0,0.0,-0.2959,-0.2575,-0.2251,-0.2407,-0.209,-0.1825,-0.1734,-0.1323,-0.1023,-0.1025,-0.0949,-0.0898,-0.0898,-0.0898,-0.0898,-0.0898,-0.0898,-0.0898,-0.0898,-0.0898,-0.0898,-0.0898,-0.0898,-0.0898,-0.0898,-0.0898,0.0,-0.0898,-0.0898,-0.0898,-0.0898,-0.0898,-0.0898,-0.0898,-0.0898,-0.0898,-0.0898,-0.0898,-0.0898,-0.0898,-0.0898,-0.0898,-0.0898,-0.0898,-0.0898,-0.0898,-0.0898,-0.0898,-0.0898,-0.0898,-0.0898,0.0,-0.0898,-0.0898,-0.0898,-0.0898,-0.0898,-0.0898,-0.0898,-0.0893,-0.0889,-0.0889,-0.0884,-0.0844,-0.0709,-0.0535,-0.0345,-0.0214,-0.0023,0.0269,0.0649,0.0783,0.1007,0.1477,0.1854,0.2144,0.2235,0.264,0.289,0.289,0.2818,0.2734,0.2671,0.2575,0.2601,0.2763,0.2871,0.3132,0.3573,0.3646,0.3885,0.431,0.4349,0.4354,0.4368,0.463,0.4513,0.0,0.0,0.0,0.0,0.0,0.0,0.0,0.0,0.0,0.0,0.0,-0.1866,-0.2059,0.0,-0.2488,-0.245,-0.2395,-0.2202,-0.1767,-0.1447,-0.1256,-0.1256,-0.1038,-0.0908,-0.0896,-0.0898,-0.0898,-0.0898,-0.0898,-0.0898,-0.0898,-0.0898,-0.0898,-0.0898,-0.0898,-0.0898,-0.0898,-0.0898,-0.0898,-0.0898,-0.0898,-0.0898,-0.0898,-0.0898,-0.0898,-0.0898,-0.0898,-0.0898,-0.0898,-0.0898,-0.0898,-0.0898,-0.0898,-0.0898,-0.0898,-0.0898,-0.0898,-0.0898,-0.0898,-0.0898,-0.0898,-0.0898,-0.0898,-0.0898,-0.0898,-0.0898,-0.0898,-0.0898,-0.0898,-0.0898,-0.0898,-0.0898,-0.0898,-0.0898,-0.0898,-0.0898,-0.0898,-0.0898,-0.0888,-0.0805,-0.0577,-0.0384,-0.0321,-0.0143,0.0069,0.0315,0.0359,0.0515,0.0985,0.1252,0.1587,0.2055,0.2346,0.2618,0.2868,0.2778,0.2706,0.2706,0.2569,0.2562,0.2701,0.282,0.3034,0.334,0.3648,0.3898,0.4094,0.4407,0.4453,0.4255,0.4536,0.455,0.0,0.0,0.0,0.0,0.0,0.0,0.0,-0.1071,-0.1219,-0.1268,-0.162,-0.196,-0.2069,-0.2392,-0.245,-0.1868,-0.2005,-0.1927,-0.1173,-0.0981,-0.0898,-0.0898,-0.0898,-0.0898,-0.0898,-0.0898,-0.0898,-0.0898,-0.0898,-0.0898,-0.0898,-0.0898,-0.0898,-0.0898,-0.0898,-0.0898,-0.0898,-0.0898,-0.0898,-0.0898,-0.0898,-0.0898,-0.0898,-0.0898,-0.0898,-0.0898,-0.0898,-0.0898,-0.0898,-0.0898,-0.0898,-0.0898,-0.0898,-0.0898,-0.0898,-0.0898,-0.0898,-0.0898,-0.0898,-0.0898,-0.0898,-0.0898,-0.0898,-0.0898,-0.0898,-0.0898,-0.0898,-0.0898,-0.0898,-0.0898,-0.0898,-0.0898,-0.0898,-0.0898,-0.0898,-0.0898,-0.0898,-0.0898,-0.089,-0.0893,-0.0642,-0.0396,-0.041,-0.0173,0.0,0.0,0.0,0.0135,0.0521,0.0652,0.1029,0.1876,0.2055,0.2324,0.2845,0.28,0.2742,0.2742,0.2626,0.2574,0.2574,0.2777,0.2939,0.2999,0.3473,0.3747,0.383,0.4319,0.4368,0.4057,0.4229,0.4414,0.0454,0.0329,0.0071,-0.0401,-0.051,-0.053,0.0,-0.0937,-0.12,-0.1219,-0.1625,-0.2003,-0.2013,-0.1872,-0.1894,-0.2336,-0.1666,-0.1228,-0.1649,-0.1232,-0.0898,-0.0898,-0.0898,-0.0898,-0.0898,-0.0898,-0.0898,-0.0898,-0.0898,-0.0898,-0.0898,-0.0898,-0.0898,-0.0898,-0.0898,-0.0898,-0.0898,-0.0898,-0.0898,-0.0898,-0.0898,-0.0898,-0.0898,-0.0898,-0.0898,-0.0898,-0.0898,-0.0898,-0.0898,-0.0898,-0.0898,-0.0898,-0.0898,-0.0898,-0.0898,-0.0898,-0.0898,-0.0898,-0.0898,-0.0898,-0.0898,-0.0898,-0.0898,-0.0898,-0.0898,-0.0898,-0.0898,-0.0898,-0.0898,-0.0898,-0.0898,-0.0898,-0.0898,-0.0898,-0.0898,-0.0898,-0.0898,-0.0898,-0.0896,-0.0893,-0.0626,-0.0399,-0.0397,-0.018,0.0,0.0,0.0,0.0023,0.0071,0.0436,0.0895,0.1433,0.1856,0.2324,0.2845,0.2876,0.2868,0.2868,0.2857,0.2849,0.2849,0.2893,0.3046,0.3327,0.3415,0.3589,0.3894,0.3952,0.3964,0.392,0.3939,0.4136,0.0249,-0.0016,-0.0366,-0.075,-0.0727,-0.0689,-0.0938,-0.1168,-0.1319,-0.1365,-0.1591,-0.1776,-0.1776,-0.1746,-0.167,-0.1591,-0.1498,-0.14,-0.1288,-0.1065,-0.0898,-0.0898,-0.0898,-0.0898,-0.0898,-0.0898,-0.0898,-0.0898,-0.0898,-0.0898,-0.0898,-0.0898,-0.0898,-0.0898,-0.0898,-0.0898,-0.0898,-0.0898,-0.0898,-0.0898,-0.0898,-0.0898,-0.0898,-0.0898,-0.0898,-0.0898,-0.0898,-0.0898,-0.0898,-0.0898,-0.0898,-0.0898,-0.0898,-0.0898,-0.0898,-0.0898,-0.0898,-0.0898,-0.0898,-0.0898,-0.0898,-0.0898,-0.0898,-0.0898,-0.0898,-0.0898,-0.0898,-0.0898,-0.0898,-0.0898,-0.0898,-0.0898,-0.0898,-0.0898,-0.0898,-0.0898,-0.0898,-0.0898,-0.0898,-0.0898,-0.0637,-0.0412,-0.0412,-0.0187,0.0,0.0,0.0,0.0,0.0,0.0167,0.0576,0.1325,0.2103,0.2662,0.289,0.289,0.289,0.289,0.289,0.289,0.289,0.289,0.2957,0.3109,0.3309,0.3464,0.3619,0.3814,0.3792,0.3619,0.3619,0.3727,-0.0016,-0.028,-0.0571,-0.0903,-0.0837,-0.0783,-0.11,-0.1215,-0.127,-0.1318,-0.1369,-0.1402,-0.1402,-0.1486,-0.14,-0.0981,-0.126,-0.14,-0.0953,-0.0898,-0.0898,-0.0898,-0.0898,-0.0898,-0.0898,-0.0898,-0.0898,-0.0898,-0.0898,-0.0898,-0.0898,-0.0898,-0.0898,-0.0898,-0.0898,-0.0902,-0.091,-0.091,-0.091,-0.091,-0.091,-0.0905,-0.0898,-0.0898,-0.0898,-0.0898,-0.0898,-0.0898,-0.0898,-0.0898,-0.0898,-0.0898,-0.0898,-0.0898,-0.0898,-0.0898,-0.0898,-0.0898,-0.0898,-0.0898,-0.0898,-0.0898,-0.0898,-0.0898,-0.0898,-0.0898,-0.0898,-0.0898,-0.0898,-0.0898,-0.0898,-0.0898,-0.0898,-0.0842,-0.0842,-0.0842,-0.0785,-0.0757,-0.0757,-0.0757,-0.0533,-0.0336,-0.0336,-0.0165,0.0,0.0,0.0,0.0,0.0,0.0221,0.0657,0.1328,0.2306,0.289,0.289,0.289,0.289,0.289,0.289,0.289,0.289,0.289,0.289,0.289,0.3132,0.3265,0.3265,0.3508,0.3508,0.3265,0.3279,0.335,-0.0252,-0.0245,-0.0283,-0.0628,-0.0716,-0.071,-0.0791,-0.0878,-0.0928,-0.093,-0.0929,-0.0924,-0.0924,-0.0925,-0.0926,-0.0898,-0.0926,-0.0926,-0.0898,-0.0898,-0.0898,-0.0898,-0.0898,-0.0898,-0.0898,-0.0898,-0.0898,-0.0898,-0.0898,-0.0898,-0.0898,-0.0898,-0.0898,-0.0898,-0.0898,-0.0912,-0.0912,-0.0912,-0.0912,-0.0912,-0.0912,-0.0897,-0.0898,-0.0898,-0.0898,-0.0898,-0.0898,-0.0898,-0.0898,-0.0898,-0.0898,-0.0898,-0.0898,-0.0898,-0.0898,-0.0898,-0.0898,-0.0898,-0.0898,-0.0898,-0.0898,-0.0898,-0.0898,-0.0898,-0.0898,-0.0898,-0.0898,-0.0898,-0.0898,-0.0898,-0.0898,-0.0898,-0.087,-0.0729,-0.0701,-0.0645,-0.0449,-0.0421,-0.0421,-0.0421,-0.0308,-0.0196,-0.0196,-0.0084,0.0,0.0,0.0,0.0,0.0,0.0798,0.136,0.1395,0.2306,0.289,0.289,0.289,0.289,0.289,0.289,0.289,0.289,0.289,0.289,0.289,0.2912,0.2912,0.2912,0.2934,0.2934,0.2915,0.2987,0.3021,-0.0172,-0.0338,-0.0577,-0.073,-0.0772,-0.0789,-0.0849,-0.0871,-0.0911,-0.0905,-0.0902,-0.0895,-0.0895,-0.0895,-0.0895,-0.0895,-0.0912,-0.0898,-0.0898,-0.0898,-0.0898,-0.0898,-0.0898,-0.0898,-0.0898,-0.0898,-0.0898,-0.0898,-0.0898,-0.0898,-0.0898,-0.0898,-0.0907,-0.0898,-0.0899,-0.0913,-0.0973,-0.0973,-0.0973,-0.0973,-0.0923,-0.0898,-0.0898,-0.0898,-0.0898,-0.0898,-0.0898,-0.0898,-0.0898,-0.0898,-0.0898,-0.0898,-0.0898,-0.0898,-0.0898,-0.0898,-0.0898,-0.0898,-0.0898,-0.0898,-0.0898,-0.0898,-0.0898,-0.0898,-0.0898,-0.0898,-0.0898,-0.0898,-0.0898,-0.0898,-0.0898,-0.0842,-0.0757,-0.0701,-0.0589,-0.0477,-0.0421,-0.0393,-0.0393,-0.0393,-0.028,-0.0196,-0.0196,-0.0084,0.0,0.0,0.0,0.0138,0.0535,0.1146,0.1693,0.2093,0.263,0.2964,0.2964,0.2937,0.289,0.289,0.289,0.289,0.289,0.289,0.289,0.289,0.289,0.2928,0.2964,0.2964,0.3005,0.3101,0.3118,0.318,-0.0337,-0.0524,-0.0743,-0.0828,-0.0844,-0.086,-0.0884,-0.0886,-0.0911,-0.0905,-0.0875,-0.0876,-0.086,-0.0853,-0.0879,-0.0902,-0.0896,-0.0912,-0.0896,-0.0898,-0.0898,-0.0898,-0.0898,-0.0898,-0.0898,-0.0898,-0.0898,-0.0898,-0.0898,-0.0902,-0.0913,-0.0913,-0.0899,-0.0928,-0.0929,-0.0943,-0.1004,-0.1004,-0.1004,-0.1004,-0.0943,-0.0914,-0.0913,-0.0913,-0.0907,-0.0898,-0.0898,-0.0898,-0.0898,-0.0898,-0.0898,-0.0898,-0.0898,-0.0898,-0.0898,-0.0898,-0.0898,-0.0898,-0.0898,-0.0898,-0.0898,-0.0898,-0.0898,-0.0898,-0.0898,-0.0898,-0.0898,-0.0898,-0.0898,-0.0898,-0.0842,-0.0757,-0.0673,-0.0561,-0.0421,-0.0308,-0.028,-0.0252,-0.0252,-0.0252,-0.0196,-0.014,-0.014,-0.0056,0.0,0.0,0.0,0.0222,0.0829,0.1302,0.1834,0.2427,0.2835,0.3061,0.3061,0.3039,0.2976,0.2936,0.2933,0.2934,0.289,0.289,0.2912,0.2933,0.2933,0.299,0.3061,0.3061,0.3121,0.3193,0.3237,0.3324,-0.07,-0.0745,-0.0806,-0.0892,-0.0907,-0.0886,-0.0888,-0.09,-0.0905,-0.0901,-0.0827,-0.0794,-0.0795,-0.078,-0.0808,-0.0891,-0.0905,-0.0892,-0.0894,-0.0898,-0.0898,-0.0898,-0.0899,-0.09,-0.09,-0.0901,-0.0902,-0.0902,-0.09,-0.0913,-0.0914,-0.0916,-0.0929,-0.099,-0.099,-0.1005,-0.1003,-0.1003,-0.1002,-0.1001,-0.1004,-0.0975,-0.0916,-0.0916,-0.0901,-0.0902,-0.0902,-0.0901,-0.09,-0.09,-0.0899,-0.0898,-0.0898,-0.0898,-0.0898,-0.0898,-0.0898,-0.0898,-0.0898,-0.0898,-0.0898,-0.0898,-0.0898,-0.0898,-0.0898,-0.0898,-0.0898,-0.087,-0.087,-0.0842,-0.0729,-0.0673,-0.0589,-0.028,-0.0196,-0.0168,-0.0028,0.0,0.0,0.0,0.0,0.0,0.0,0.0,0.0,0.0,0.0,0.0222,0.0858,0.1333,0.184,0.2492,0.2956,0.3201,0.3201,0.3196,0.3148,0.3016,0.3011,0.2983,0.2912,0.2909,0.2941,0.3008,0.3011,0.3064,0.3201,0.3201,0.3207,0.3215,0.3357,0.3409,-0.0772,-0.079,-0.081,-0.0871,-0.0896,-0.0907,-0.0888,-0.0911,-0.0892,-0.0846,-0.0734,-0.0659,-0.0711,-0.0693,-0.0697,-0.0809,-0.0869,-0.0889,-0.0896,-0.0813,-0.0785,-0.0898,-0.0803,-0.0786,-0.0902,-0.0952,-0.0965,-0.0965,-0.0915,-0.0915,-0.0975,-0.0977,-0.099,-0.0989,-0.099,-0.1035,-0.1065,-0.1065,-0.1054,-0.1001,-0.0994,-0.1006,-0.0977,-0.0977,-0.0973,-0.0965,-0.0965,-0.0952,-0.0902,-0.0902,-0.0889,-0.0898,-0.0898,-0.0898,-0.0898,-0.0898,-0.0898,-0.0898,-0.0898,-0.0898,-0.0898,-0.0898,-0.0898,-0.087,-0.0785,-0.0757,-0.0729,-0.0561,-0.0533,-0.0533,-0.0477,-0.0393,-0.0308,-0.0224,-0.0112,-0.0028,0.0,0.0,0.0,0.0,0.0,0.0,0.0,0.0,0.0,0.0,0.0,0.0391,0.1438,0.1684,0.2146,0.3194,0.3329,0.3354,0.3354,0.3245,0.318,0.3153,0.315,0.3137,0.3129,0.3129,0.3145,0.315,0.315,0.321,0.3354,0.3354,0.34,0.349,0.3523,0.3698,-0.0814,-0.0836,-0.0855,-0.0889,-0.0902,-0.0902,-0.0862,-0.0838,-0.0777,-0.0695,-0.0575,-0.0528,-0.0562,-0.056,-0.0602,-0.0741,-0.0808,-0.084,-0.081,-0.0757,-0.0701,-0.0673,-0.0607,-0.0589,-0.0678,-0.0728,-0.0745,-0.0787,-0.0888,-0.0946,-0.1006,-0.1008,-0.1022,-0.1051,-0.1052,-0.1059,-0.1109,-0.1109,-0.1067,-0.1052,-0.1052,-0.1037,-0.1008,-0.1008,-0.1001,-0.0988,-0.0988,-0.0978,-0.0932,-0.0932,-0.0953,-0.0936,-0.0923,-0.0889,-0.0887,-0.0902,-0.087,-0.0813,-0.0813,-0.0757,-0.0701,-0.0785,-0.0813,-0.0785,-0.0617,-0.0561,-0.0533,-0.0421,-0.0393,-0.0393,-0.0336,-0.0252,-0.0196,-0.014,-0.0056,0.0,0.0,0.0,0.0,0.0,0.0,0.0,0.0,0.0,0.0,0.0,0.0224,0.0728,0.1679,0.179,0.2153,0.3105,0.3383,0.3482,0.3482,0.3417,0.3357,0.33,0.3297,0.325,0.3196,0.3193,0.3218,0.3297,0.3297,0.336,0.3482,0.3482,0.3517,0.3613,0.3613,0.3719,-0.0875,-0.0905,-0.0898,-0.0898,-0.0902,-0.087,-0.0783,-0.0732,-0.0651,-0.0512,-0.0426,-0.037,-0.0386,-0.0436,-0.0523,-0.0665,-0.0745,-0.0751,-0.0694,-0.0673,-0.0589,-0.0421,-0.0406,-0.0385,-0.0415,-0.0398,-0.0442,-0.0486,-0.0761,-0.0949,-0.0973,-0.0975,-0.1018,-0.1109,-0.1109,-0.1109,-0.1109,-0.1109,-0.1109,-0.1109,-0.1109,-0.1063,-0.1007,-0.1007,-0.1025,-0.1,-0.1,-0.0998,-0.0994,-0.0994,-0.0992,-0.0986,-0.0899,-0.0887,-0.0881,-0.0856,-0.076,-0.0673,-0.0673,-0.0533,-0.0421,-0.0617,-0.0673,-0.0617,-0.0421,-0.0364,-0.0364,-0.0364,-0.0336,-0.0308,-0.0196,-0.0168,-0.014,-0.0028,0.0,0.0,0.0,0.0,0.0,0.0,0.0,0.0,0.0,0.0,0.0,0.0,0.0449,0.1009,0.1595,0.1818,0.2151,0.2766,0.3299,0.3613,0.3613,0.3613,0.3539,0.3433,0.3425,0.3376,0.3247,0.3242,0.3316,0.3422,0.3425,0.3477,0.3613,0.3613,0.3613,0.3613,0.3613,0.3638,-0.0875,-0.0894,-0.0898,-0.0898,-0.0902,-0.0865,-0.0686,-0.0635,-0.0555,-0.0375,-0.0281,-0.0253,-0.0313,-0.0378,-0.0464,-0.0595,-0.0624,-0.0647,-0.0694,-0.0449,-0.0308,-0.0393,-0.0355,-0.0367,-0.0459,-0.0483,-0.0499,-0.0502,-0.0566,-0.0666,-0.0837,-0.0837,-0.0905,-0.1109,-0.1109,-0.1109,-0.1109,-0.1109,-0.1109,-0.1109,-0.1109,-0.1106,-0.1068,-0.1068,-0.1099,-0.1094,-0.1094,-0.1047,-0.0994,-0.0994,-0.1011,-0.0988,-0.0798,-0.0723,-0.0707,-0.0556,-0.0459,-0.0449,-0.0449,-0.0421,-0.0393,-0.0449,-0.0449,-0.0421,-0.028,-0.0224,-0.0224,-0.0112,-0.0056,-0.0056,-0.0028,-0.0028,-0.0028,0.0,0.0,0.0,0.0,0.0,0.0,0.0,0.0,0.0,0.0,0.0,0.0,0.0,0.0084,0.0364,0.0981,0.193,0.2766,0.3385,0.3527,0.3613,0.3613,0.3613,0.3602,0.358,0.3553,0.3545,0.3523,0.352,0.3531,0.3553,0.3553,0.3591,0.3613,0.3613,0.3613,0.3613,0.3613,0.3774,-0.0888,-0.0913,-0.0898,-0.0898,-0.0862,-0.0813,-0.0637,-0.0575,-0.0489,-0.0239,-0.0165,-0.0158,-0.0188,-0.0249,-0.034,-0.0483,-0.0494,-0.0502,-0.0551,-0.0345,-0.019,-0.02,-0.015,-0.0155,-0.0221,-0.023,-0.0236,-0.0236,-0.0236,-0.0371,-0.064,-0.064,-0.0674,-0.0774,-0.0774,-0.0774,-0.0774,-0.0774,-0.0774,-0.0774,-0.0774,-0.0841,-0.0942,-0.0841,-0.0841,-0.0942,-0.0942,-0.0869,-0.076,-0.0859,-0.0819,-0.0742,-0.0625,-0.0581,-0.0572,-0.0436,-0.0369,-0.0308,-0.0308,-0.0252,-0.0196,-0.0196,-0.0252,-0.028,-0.014,-0.0084,-0.0084,-0.0028,0.0,0.0,0.0,0.0,0.0,0.0,0.0,0.0,0.0,0.0,0.0,0.0,0.0,0.0,0.0,0.0,0.0,0.0,0.028,0.0561,0.087,0.1679,0.246,0.3074,0.3413,0.3613,0.3613,0.3613,0.3613,0.3613,0.3613,0.3613,0.3613,0.3613,0.3613,0.3613,0.3613,0.3613,0.3613,0.3613,0.3613,0.3613,0.3613,0.3694,-0.0844,-0.0875,-0.0898,-0.0898,-0.0852,-0.0767,-0.0595,-0.0523,-0.0395,-0.0132,-0.0082,-0.0078,-0.0082,-0.0139,-0.021,-0.034,-0.0364,-0.037,-0.0347,-0.0254,-0.0159,-0.0029,0.0,0.0,0.0,0.0,0.0,0.0,0.0,-0.0135,-0.0438,-0.0472,-0.0506,-0.0506,-0.0506,-0.0506,-0.0506,-0.0506,-0.0506,-0.0506,-0.0506,-0.0573,-0.0742,-0.0573,-0.0573,-0.0742,-0.0742,-0.064,-0.0506,-0.0674,-0.064,-0.0503,-0.0478,-0.0466,-0.046,-0.0347,-0.0254,-0.0168,-0.0168,-0.0084,0.0,0.0,-0.0084,-0.014,-0.0028,0.0,0.0,0.0,0.0,0.0,0.0,0.0,0.0,0.0,0.0,0.0,0.0,0.0,0.0,0.0,0.0,0.0,0.0,0.0,0.0,0.0,0.0505,0.0953,0.1065,0.1623,0.2237,0.2822,0.3188,0.3471,0.3583,0.3613,0.3613,0.3613,0.3613,0.3613,0.3613,0.3613,0.3613,0.3613,0.3613,0.3613,0.3613,0.3613,0.3613,0.3613,0.3613,0.3613,-0.0712,-0.082,-0.0898,-0.0898,-0.0852,-0.0742,-0.048,-0.0412,-0.0328,-0.0058,-0.0013,-0.0012,-0.0012,-0.0064,-0.0127,-0.021,-0.0267,-0.0295,-0.0222,-0.0208,-0.0161,-0.0028,0.0,0.0,0.0,0.0,0.0,0.0,0.0,-0.0101,-0.0303,-0.0438,-0.0506,-0.0506,-0.0506,-0.0506,-0.0506,-0.0506,-0.0506,-0.0506,-0.0506,-0.0506,-0.0539,-0.0506,-0.0506,-0.0539,-0.0539,-0.0506,-0.0506,-0.0506,-0.0506,-0.0504,-0.0358,-0.0316,-0.0307,-0.0119,-0.0029,-0.0028,-0.0028,0.0,0.0,0.0,0.0,-0.0028,0.0,0.0,0.0,0.0,0.0,0.0,0.0,0.0,0.0,0.0,0.0,0.0,0.0,0.0,0.0,0.0,0.0,0.0,0.0,0.0,0.0,0.0,0.0505,0.1093,0.1651,0.2235,0.285,0.3444,0.3074,0.3019,0.3555,0.3613,0.3613,0.3613,0.3613,0.3613,0.3613,0.3613,0.3613,0.3613,0.3613,0.3613,0.3613,0.3613,0.3613,0.3613,0.3613,0.3613,-0.0507,-0.0556,-0.0598,-0.0598,-0.0576,-0.0516,-0.0333,-0.0287,-0.0228,-0.0043,0.0,0.0,0.0,-0.0025,-0.0067,-0.0123,-0.0132,-0.0127,-0.0128,-0.0113,-0.0048,0.0,0.0,0.0,0.0,0.0,0.0,0.0,0.0,-0.0034,-0.0101,-0.0169,-0.0202,-0.0202,-0.0202,0.0,0.0471,0.0034,0.0034,0.0471,0.0,-0.027,-0.0371,-0.027,-0.027,-0.0371,-0.0371,-0.0303,-0.0202,-0.0337,-0.03,-0.0197,-0.0127,-0.0123,-0.012,-0.0029,0.0,0.0,0.0,0.0,0.0,0.0,0.0,0.0,0.0,0.0,0.0,0.0,0.0,0.0,0.0,0.0,0.0,0.0,0.0,0.0,0.0,0.0,0.0,0.0,0.0,0.0,0.0,0.0308,0.0533,0.0533,0.1064,0.154,0.1762,0.2014,0.2402,0.2991,0.316,0.333,0.3583,0.3613,0.3613,0.3613,0.3613,0.3613,0.3613,0.3613,0.3613,0.3613,0.3613,0.3613,0.3613,0.3613,0.3613,0.3613,0.3613,0.3613,-0.0336,-0.0379,-0.0393,-0.0393,-0.0405,-0.0356,-0.0233,-0.0203,-0.0159,-0.0028,0.0,0.0,0.0,0.0,-0.0013,-0.007,-0.006,-0.0067,-0.0079,-0.0063,-0.0046,0.0,0.0,0.0,0.0,0.0,0.0,0.0,0.0,0.0,0.0,0.0202,0.0236,0.0,0.0202,0.0572,0.1109,0.0774,0.0875,0.1377,0.0875,0.0538,0.0404,0.0572,0.0438,0.0101,0.0101,0.0202,0.0303,0.0168,0.0298,0.0579,0.0593,0.0575,0.0528,0.0539,0.0532,0.0532,0.0532,0.0532,0.0532,0.0532,0.0532,0.0532,0.0532,0.042,0.0252,0.0252,0.0252,0.0252,0.0252,0.0392,0.0532,0.0532,0.0532,0.0532,0.0532,0.0532,0.0532,0.0532,0.0532,0.0532,0.0532,0.0896,0.1177,0.1177,0.1679,0.2068,0.2068,0.2209,0.2488,0.2935,0.3357,0.3613,0.3613,0.3613,0.3613,0.3613,0.3613,0.3613,0.3613,0.3613,0.3613,0.3613,0.3613,0.3613,0.3613,0.3613,0.3613,0.3613,0.3613,0.3613,-0.02,-0.031,-0.0403,-0.0403,-0.0405,-0.0374,-0.0221,-0.0192,-0.0164,-0.0026,0.0,0.0,0.0,0.0,0.0,0.0,-0.0109,-0.016,-0.0021,-0.0113,-0.0147,-0.0026,0.0,0.0,0.0,0.0,0.0,0.0,0.0,0.0,0.0,0.0706,0.074,0.0034,0.0706,0.1076,0.1109,0.1745,0.2079,0.2079,0.2079,0.2079,0.2079,0.2079,0.1712,0.1076,0.1076,0.1076,0.1076,0.1076,0.1453,0.1986,0.1995,0.1904,0.1786,0.1784,0.179,0.179,0.179,0.179,0.179,0.179,0.179,0.179,0.179,0.1372,0.0898,0.0898,0.0898,0.0898,0.0898,0.1344,0.179,0.179,0.179,0.179,0.179,0.179,0.179,0.179,0.179,0.179,0.179,0.179,0.179,0.179,0.2291,0.2681,0.2681,0.3216,0.3583,0.3583,0.3585,0.3613,0.3613,0.3613,0.3613,0.3613,0.3613,0.3613,0.3613,0.3613,0.3613,0.3613,0.3613,0.3613,0.3613,0.3613,0.3613,0.3613,0.3613,0.3613,-0.0019,-0.0102,-0.0127,-0.0123,-0.0123,-0.0119,-0.0069,-0.0064,-0.0045,-0.0013,0.0,0.0,0.0,0.0,0.0,0.0,-0.0033,-0.0054,0.0,-0.0046,-0.0049,0.0,0.0,0.0,0.0,0.0,0.0,0.0,0.0471,0.074,0.074,0.1411,0.1478,0.0774,0.1411,0.2013,0.2514,0.2248,0.2347,0.2848,0.2347,0.2114,0.2114,0.2114,0.198,0.1779,0.1779,0.1779,0.1779,0.1779,0.186,0.1996,0.201,0.1909,0.1788,0.1797,0.179,0.179,0.179,0.179,0.179,0.179,0.179,0.1874,0.2291,0.1986,0.1512,0.1512,0.1512,0.1512,0.1512,0.1651,0.179,0.179,0.179,0.179,0.179,0.179,0.179,0.179,0.179,0.179,0.179,0.2151,0.2402,0.2402,0.2935,0.333,0.333,0.3471,0.3613,0.3613,0.3613,0.3613,0.3613,0.3613,0.3613,0.3613,0.3613,0.3613,0.3613,0.3613,0.3613,0.3613,0.3613,0.3613,0.3613,0.3613,0.3613,0.3613,0.3613,0.3613,0.0252,0.0071,0.0,0.0,0.0,0.0,0.0,0.0,0.0,0.0,0.0,0.0,0.0,0.0,0.0,0.0,0.0,0.0,0.0,0.0,0.0,0.0,0.0,0.0,0.0,0.0,0.0,0.0,0.0673,0.1109,0.1109,0.2013,0.2313,0.1913,0.2313,0.2748,0.3182,0.3017,0.3153,0.3623,0.3153,0.2919,0.2919,0.2919,0.2783,0.2514,0.2514,0.2514,0.0,0.2514,0.2611,0.2783,0.2751,0.2654,0.256,0.2501,0.249,0.249,0.249,0.249,0.249,0.249,0.249,0.2545,0.2935,0.2627,0.2151,0.2151,0.2151,0.2151,0.2151,0.232,0.249,0.249,0.249,0.249,0.249,0.249,0.249,0.249,0.249,0.249,0.249,0.2796,0.3047,0.3047,0.3357,0.3613,0.3613,0.3613,0.3613,0.3613,0.3613,0.3613,0.3613,0.3613,0.3613,0.3613,0.3613,0.3613,0.3613,0.3613,0.3613,0.3613,0.3613,0.3613,0.3613,0.3613,0.3613,0.3613,0.3613,0.3613,0.0,0.0252,0.0049,0.0049,0.0047,0.0045,0.0056,0.0053,0.0,0.0034,0.0045,0.0045,0.0046,0.0038,0.0028,0.0043,0.0017,0.0,0.0,0.0,0.0,0.0,0.0,0.0,0.0,0.0033,0.0067,0.0067,0.0807,0.1244,0.1244,0.2549,0.3284,0.3284,0.3284,0.3284,0.3284,0.3961,0.43,0.43,0.43,0.43,0.43,0.43,0.3928,0.3284,0.3284,0.3284,0.3284,0.3284,0.3596,0.4075,0.3962,0.3873,0.3783,0.3676,0.3632,0.3624,0.3624,0.3619,0.3613,0.3613,0.3613,0.3613,0.3613,0.3216,0.2764,0.2764,0.2764,0.2764,0.2764,0.3188,0.3613,0.3613,0.3613,0.3613,0.3613,0.3613,0.3613,0.3613,0.3613,0.3613,0.3613,0.3613,0.3613,0.3613,0.3613,0.3613,0.3613,0.3613,0.3613,0.3613,0.3613,0.3613,0.3613,0.3613,0.3613,0.3613,0.3613,0.3613,0.3613,0.3613,0.3613,0.3613,0.3613,0.361,0.361,0.361,0.3613,0.3613,0.3666,0.3666,0.0963,0.0,0.0535,0.0531,0.0539,0.0532,0.0,0.0538,0.0493,0.0343,0.0426,0.0534,0.0535,0.0407,0.0359,0.0503,0.0239,0.0,0.0,0.0,0.0,0.0,0.0,0.0,0.0,0.0503,0.0841,0.0841,0.2013,0.2714,0.2714,0.3556,0.4028,0.4028,0.4028,0.4028,0.4028,0.4197,0.43,0.43,0.43,0.43,0.43,0.43,0.4197,0.4028,0.4028,0.4028,0.4028,0.4028,0.4063,0.4083,0.4054,0.3967,0.386,0.3833,0.3792,0.3742,0.3742,0.3687,0.3613,0.3613,0.3613,0.3613,0.3613,0.3499,0.3385,0.3385,0.3385,0.3385,0.3385,0.3499,0.3613,0.3613,0.3613,0.3613,0.3613,0.3613,0.3613,0.3613,0.3613,0.3613,0.3613,0.3613,0.3613,0.3613,0.3613,0.3613,0.3613,0.3613,0.3613,0.3613,0.3613,0.3613,0.3613,0.3613,0.3613,0.3613,0.3613,0.3613,0.3613,0.3613,0.3613,0.3613,0.3691,0.3744,0.3744,0.3744,0.3691,0.3613,0.4184,0.4429,0.1241,0.1019,0.0797,0.0787,0.0791,0.0796,0.0787,0.0747,0.0671,0.0564,0.0668,0.0787,0.0788,0.0603,0.0487,0.0594,0.0271,0.0,0.0,0.0,0.0,0.0,0.0289,0.0497,0.0504,0.1143,0.1544,0.1544,0.2581,0.3215,0.3215,0.3892,0.43,0.43,0.43,0.43,0.43,0.43,0.43,0.43,0.43,0.43,0.43,0.43,0.43,0.43,0.43,0.43,0.43,0.43,0.4262,0.4197,0.414,0.4046,0.3981,0.3924,0.3862,0.3827,0.3802,0.3706,0.3613,0.3613,0.3613,0.3613,0.3613,0.3613,0.3613,0.3613,0.3613,0.3613,0.3613,0.3613,0.3613,0.3613,0.3613,0.3613,0.3613,0.3613,0.3613,0.3613,0.3613,0.3613,0.3613,0.3613,0.3613,0.3613,0.3613,0.3613,0.3613,0.3613,0.3613,0.3613,0.3613,0.3613,0.3613,0.3613,0.3638,0.3691,0.3691,0.3719,0.3774,0.3774,0.3774,0.3774,0.3855,0.3882,0.3882,0.3882,0.3855,0.3802,0.4484,0.4783,0.142,0.1255,0.1061,0.1011,0.1027,0.1034,0.1034,0.0948,0.0855,0.0811,0.0928,0.102,0.0974,0.0739,0.0559,0.0528,0.0299,0.0144,0.0132,0.0233,0.0278,0.0154,0.0812,0.121,0.1109,0.1812,0.228,0.228,0.295,0.3351,0.3351,0.3961,0.43,0.43,0.43,0.43,0.43,0.43,0.43,0.43,0.43,0.43,0.43,0.43,0.43,0.43,0.43,0.43,0.43,0.43,0.43,0.4289,0.4186,0.4145,0.4132,0.3997,0.3946,0.3911,0.3832,0.3717,0.3635,0.3619,0.3613,0.3613,0.3613,0.3613,0.3613,0.3613,0.3613,0.3613,0.3613,0.3613,0.3613,0.3613,0.3613,0.3613,0.3613,0.3613,0.3613,0.3613,0.3613,0.3613,0.3613,0.3613,0.3613,0.3613,0.3613,0.3613,0.3613,0.3613,0.3613,0.3613,0.3613,0.3613,0.3613,0.3613,0.3663,0.3796,0.3796,0.3852,0.3993,0.3996,0.4024,0.4024,0.4024,0.4024,0.4024,0.4132,0.4159,0.4159,0.4869,0.5195,0.1536,0.1691,0.1778,0.1547,0.1581,0.1663,0.1663,0.1648,0.1568,0.1343,0.1487,0.1575,0.1298,0.1026,0.0801,0.0694,0.0715,0.0766,0.0774,0.1301,0.1448,0.0831,0.1459,0.1712,0.1143,0.2281,0.3015,0.3015,0.3725,0.4131,0.4131,0.4233,0.43,0.43,0.43,0.43,0.43,0.43,0.43,0.43,0.43,0.43,0.43,0.43,0.43,0.43,0.43,0.43,0.43,0.43,0.43,0.43,0.4278,0.4273,0.427,0.4251,0.4178,0.4058,0.3862,0.3801,0.3739,0.3643,0.3613,0.3613,0.3613,0.3613,0.3613,0.3613,0.3613,0.3613,0.3613,0.3613,0.3613,0.3613,0.3613,0.3613,0.3613,0.3613,0.3613,0.3613,0.3613,0.3613,0.3613,0.3613,0.3613,0.3613,0.3613,0.3613,0.3613,0.3613,0.3613,0.3613,0.3613,0.3613,0.3613,0.3613,0.3663,0.3796,0.3796,0.3852,0.3993,0.3996,0.4052,0.4166,0.4166,0.4166,0.4166,0.4677,0.4866,0.4787,0.6014,0.6583,0.148,0.1632,0.1783,0.1816,0.1946,0.2047,0.1982,0.1966,0.192,0.1799,0.1941,0.2032,0.1866,0.169,0.1377,0.0893,0.0847,0.0909,0.0896,0.146,0.1772,0.1441,0.2091,0.2461,0.2166,0.3127,0.3792,0.3792,0.4097,0.43,0.43,0.43,0.43,0.43,0.43,0.43,0.43,0.43,0.43,0.43,0.43,0.43,0.43,0.43,0.43,0.43,0.43,0.43,0.43,0.43,0.43,0.43,0.43,0.43,0.43,0.43,0.4224,0.4059,0.3912,0.3852,0.3822,0.3642,0.3654,0.3693,0.363,0.3613,0.3613,0.3613,0.3613,0.3613,0.3613,0.3613,0.3613,0.3613,0.3613,0.3613,0.3613,0.3613,0.3613,0.3613,0.3613,0.3613,0.3613,0.3613,0.3613,0.3613,0.3613,0.3613,0.3613,0.3613,0.3613,0.3613,0.3613,0.3613,0.3613,0.3613,0.3694,0.3882,0.3965,0.4104,0.427,0.427,0.4298,0.4356,0.4356,0.4356,0.4356,0.4649,0.4732,0.4708,0.5959,0.6529,0.1454,0.1563,0.1699,0.1907,0.2088,0.2236,0.2234,0.2218,0.2213,0.2269,0.2373,0.237,0.2125,0.1945,0.1664,0.1195,0.1239,0.1316,0.1316,0.1872,0.2203,0.2027,0.2762,0.3185,0.3025,0.38,0.43,0.43,0.43,0.43,0.43,0.43,0.43,0.43,0.43,0.43,0.43,0.43,0.43,0.43,0.43,0.43,0.43,0.43,0.43,0.43,0.43,0.43,0.43,0.43,0.43,0.43,0.43,0.43,0.43,0.43,0.424,0.414,0.3957,0.3903,0.3865,0.3659,0.369,0.3761,0.3646,0.363,0.3646,0.3619,0.3613,0.3613,0.3613,0.3613,0.3613,0.3613,0.3613,0.3613,0.3613,0.3613,0.3613,0.3613,0.3613,0.3613,0.3613,0.3613,0.3613,0.3613,0.3613,0.3613,0.3613,0.3613,0.3613,0.3613,0.3638,0.3666,0.3694,0.3666,0.3774,0.4024,0.4138,0.4301,0.4491,0.4491,0.4491,0.4491,0.4491,0.4491,0.4491,0.4625,0.468,0.4708,0.5882,0.6399,0.1624,0.1732,0.1792,0.1808,0.1912,0.2126,0.2567,0.2558,0.2542,0.2791,0.2843,0.2571,0.1627,0.12,0.1147,0.1662,0.2204,0.2569,0.2569,0.319,0.3401,0.2728,0.3442,0.3764,0.3057,0.38,0.43,0.43,0.43,0.43,0.43,0.43,0.43,0.43,0.43,0.43,0.43,0.43,0.43,0.43,0.43,0.43,0.43,0.43,0.43,0.43,0.43,0.43,0.43,0.43,0.43,0.43,0.43,0.43,0.43,0.43,0.4295,0.4254,0.3984,0.3903,0.3865,0.3659,0.369,0.3761,0.3646,0.3687,0.3747,0.3641,0.3613,0.3613,0.3613,0.3613,0.3613,0.3613,0.3613,0.3613,0.3613,0.3613,0.3613,0.3613,0.3613,0.3613,0.3613,0.3613,0.3613,0.3613,0.3613,0.3613,0.3613,0.3613,0.3613,0.3613,0.3716,0.3827,0.3968,0.3855,0.391,0.4166,0.4193,0.4301,0.4491,0.4491,0.4491,0.4491,0.4491,0.4491,0.4491,0.5007,0.525,0.5281,0.648,0.7025,0.1568,0.1782,0.1976,0.1939,0.219,0.2469,0.2551,0.2689,0.2864,0.3053,0.3085,0.2999,0.2686,0.2245,0.1991,0.2306,0.2541,0.2708,0.2708,0.3276,0.3563,0.3305,0.3642,0.3799,0.3527,0.3911,0.4186,0.4186,0.4257,0.43,0.43,0.43,0.43,0.43,0.43,0.43,0.43,0.43,0.43,0.43,0.43,0.43,0.43,0.43,0.43,0.43,0.43,0.43,0.43,0.43,0.43,0.43,0.43,0.43,0.43,0.43,0.43,0.4265,0.3989,0.3954,0.3965,0.3686,0.369,0.3761,0.3646,0.3641,0.3668,0.3624,0.3613,0.3613,0.3613,0.3613,0.3613,0.3613,0.3613,0.3613,0.3613,0.3613,0.3613,0.3613,0.3613,0.3613,0.3613,0.3613,0.3613,0.3613,0.3613,0.3638,0.3716,0.3716,0.3747,0.383,0.3885,0.3938,0.3993,0.3965,0.3996,0.4193,0.4193,0.4301,0.4491,0.4491,0.4491,0.4491,0.4491,0.4491,0.4491,0.4708,0.4814,0.4846,0.5991,0.6534,0.1628,0.1855,0.2103,0.2091,0.238,0.2669,0.2657,0.286,0.3126,0.3294,0.3175,0.312,0.3415,0.2972,0.2667,0.2952,0.2991,0.2991,0.2991,0.333,0.3613,0.3613,0.3712,0.3812,0.3812,0.3939,0.4043,0.4083,0.4194,0.4259,0.43,0.43,0.4281,0.4243,0.4281,0.4281,0.4243,0.4281,0.43,0.43,0.43,0.43,0.43,0.43,0.43,0.43,0.43,0.43,0.43,0.43,0.43,0.43,0.43,0.43,0.43,0.43,0.43,0.4265,0.3989,0.3959,0.3976,0.3689,0.369,0.3761,0.3646,0.3638,0.366,0.3621,0.3613,0.3613,0.3613,0.3613,0.3613,0.3613,0.3613,0.3613,0.3613,0.3613,0.3613,0.3613,0.3613,0.3613,0.3613,0.3613,0.361,0.3663,0.3663,0.3719,0.3855,0.3852,0.391,0.4052,0.4024,0.4049,0.4159,0.4107,0.4135,0.4273,0.4301,0.4356,0.4491,0.4491,0.4491,0.4491,0.4491,0.4491,0.4491,0.4491,0.4491,0.4515,0.566,0.6209,0.1883,0.2002,0.2132,0.2263,0.2451,0.2668,0.2933,0.3112,0.3291,0.3536,0.313,0.2877,0.3499,0.3102,0.2905,0.3499,0.3613,0.3613,0.3613,0.3613,0.3613,0.3613,0.3712,0.3809,0.3809,0.3863,0.3954,0.4073,0.4083,0.4167,0.4289,0.4298,0.424,0.4086,0.4235,0.424,0.4086,0.4238,0.43,0.43,0.43,0.43,0.43,0.43,0.43,0.43,0.43,0.43,0.43,0.43,0.43,0.43,0.43,0.43,0.43,0.43,0.43,0.4265,0.3989,0.3903,0.3865,0.3659,0.369,0.3761,0.3649,0.3693,0.3758,0.3646,0.3613,0.3613,0.3613,0.3613,0.3613,0.3613,0.3613,0.3613,0.3613,0.3613,0.3613,0.3613,0.3613,0.3613,0.3613,0.3613,0.3638,0.3769,0.3796,0.3852,0.3993,0.3996,0.4052,0.4193,0.4079,0.4132,0.4463,0.4328,0.4273,0.4491,0.4491,0.4491,0.4491,0.4491,0.4491,0.4491,0.4491,0.4491,0.4491,0.4491,0.4491,0.4546,0.5664,0.6209,0.1908,0.214,0.2395,0.2431,0.2804,0.3166,0.3132,0.3316,0.3531,0.3704,0.3522,0.3385,0.3555,0.3444,0.3385,0.3583,0.3613,0.3613,0.3613,0.3613,0.3613,0.3613,0.3641,0.3662,0.3662,0.3767,0.3851,0.3887,0.3941,0.3973,0.4011,0.4011,0.3994,0.3959,0.4075,0.4153,0.4086,0.4238,0.43,0.43,0.43,0.43,0.43,0.43,0.43,0.43,0.43,0.43,0.43,0.43,0.43,0.43,0.43,0.43,0.43,0.43,0.43,0.4265,0.3989,0.3903,0.3865,0.3659,0.369,0.3807,0.3742,0.3756,0.3804,0.3742,0.3673,0.361,0.3716,0.3744,0.3716,0.361,0.3613,0.3613,0.3613,0.3613,0.3638,0.3716,0.3744,0.3771,0.3858,0.3885,0.3885,0.3938,0.3938,0.3993,0.4138,0.4273,0.438,0.4408,0.438,0.438,0.4491,0.4436,0.4436,0.4491,0.4491,0.4491,0.4491,0.4491,0.4491,0.4491,0.4491,0.4491,0.4491,0.4491,0.468,0.5089,0.5855,0.6426,0.2186,0.2437,0.2696,0.2894,0.3209,0.3503,0.358,0.3606,0.3631,0.3702,0.3663,0.3613,0.3613,0.3613,0.3613,0.3613,0.3613,0.3613,0.3613,0.3613,0.3613,0.3613,0.3613,0.3613,0.3613,0.3673,0.3734,0.3809,0.3851,0.3882,0.39,0.3903,0.3881,0.3863,0.4028,0.4062,0.4013,0.4216,0.43,0.43,0.43,0.43,0.43,0.43,0.43,0.43,0.43,0.43,0.43,0.43,0.43,0.43,0.43,0.43,0.43,0.43,0.43,0.4273,0.4043,0.3943,0.3873,0.3742,0.3721,0.3795,0.3795,0.3826,0.3883,0.3883,0.3832,0.3774,0.3855,0.3882,0.3855,0.3774,0.3749,0.3749,0.3749,0.3749,0.3774,0.3855,0.3882,0.391,0.3993,0.3996,0.4024,0.4079,0.4135,0.4215,0.4301,0.4436,0.4511,0.4576,0.4528,0.4515,0.4576,0.4525,0.4515,0.4576,0.4525,0.4518,0.458,0.4522,0.4491,0.4491,0.4708,0.4818,0.4818,0.5062,0.5336,0.5664,0.629,0.6756,0.26,0.2771,0.2998,0.3484,0.3622,0.3734,0.4104,0.3888,0.3638,0.3638,0.3638,0.361,0.3613,0.3613,0.3613,0.3613,0.3613,0.3613,0.3613,0.3613,0.3613,0.3613,0.3613,0.3613,0.3613,0.3613,0.3654,0.3761,0.3796,0.3816,0.3868,0.3873,0.3852,0.3772,0.3963,0.4,0.3889,0.4162,0.4278,0.4301,0.4312,0.4312,0.4301,0.4289,0.43,0.43,0.43,0.43,0.43,0.43,0.43,0.4334,0.4334,0.4334,0.4334,0.4334,0.4334,0.4317,0.4191,0.4045,0.3931,0.3856,0.3857,0.3856,0.3844,0.3928,0.4014,0.4014,0.4005,0.3996,0.4024,0.4024,0.4024,0.4049,0.4024,0.3996,0.3996,0.3996,0.3996,0.4024,0.4024,0.4024,0.4049,0.4049,0.4079,0.4221,0.4384,0.4494,0.4508,0.4511,0.4569,0.4697,0.4614,0.459,0.4701,0.461,0.459,0.4704,0.4607,0.4622,0.482,0.4661,0.457,0.457,0.5117,0.5386,0.5386,0.5937,0.6236,0.629,0.6837,0.7139,0.2482,0.2647,0.2884,0.3457,0.3771,0.3945,0.4036,0.3968,0.3913,0.3913,0.3827,0.3716,0.361,0.3613,0.3613,0.3613,0.3613,0.3613,0.3613,0.3613,0.3613,0.3613,0.3613,0.3613,0.3613,0.3613,0.3621,0.3649,0.3649,0.366,0.3659,0.3659,0.3648,0.3649,0.3786,0.3849,0.3821,0.4034,0.4174,0.4207,0.4275,0.433,0.4391,0.4309,0.43,0.43,0.43,0.43,0.43,0.43,0.4398,0.4528,0.4528,0.4595,0.4697,0.4697,0.4628,0.4544,0.4511,0.4417,0.4267,0.4157,0.4186,0.4255,0.4155,0.4125,0.4154,0.4154,0.4078,0.4024,0.4138,0.4166,0.4193,0.4353,0.4187,0.3996,0.3996,0.3996,0.4024,0.4138,0.4166,0.4218,0.4353,0.438,0.4408,0.4436,0.4463,0.4535,0.4655,0.4672,0.4701,0.4853,0.484,0.4833,0.4867,0.484,0.4833,0.4867,0.484,0.5098,0.5696,0.5337,0.5117,0.5117,0.5714,0.6014,0.6014,0.6127,0.6453,0.6918,0.7025,0.7327,0.2544,0.2689,0.2951,0.3622,0.3944,0.4124,0.421,0.4242,0.4215,0.4107,0.3993,0.3882,0.3805,0.3802,0.3774,0.3719,0.3691,0.3663,0.3613,0.3613,0.3613,0.3613,0.3613,0.3613,0.3613,0.3613,0.3613,0.3613,0.3613,0.3613,0.3613,0.3613,0.3613,0.3613,0.378,0.3902,0.3902,0.4119,0.4275,0.4302,0.434,0.4368,0.4397,0.4446,0.4474,0.4531,0.4531,0.4531,0.4531,0.4531,0.4597,0.4694,0.4694,0.4728,0.4797,0.4797,0.4761,0.4686,0.4683,0.4616,0.448,0.4402,0.4405,0.443,0.4361,0.4352,0.4355,0.4355,0.43,0.4242,0.4328,0.4546,0.4767,0.4869,0.4543,0.4325,0.457,0.4625,0.4653,0.4712,0.4739,0.4684,0.4515,0.4825,0.507,0.5046,0.5182,0.5135,0.4667,0.4778,0.4928,0.4979,0.4945,0.4918,0.4982,0.5258,0.546,0.5512,0.5773,0.612,0.6546,0.6555,0.6416,0.6127,0.657,0.6832,0.6832,0.6943,0.716,0.7494,0.7494,0.7628,0.2647,0.2826,0.3125,0.3789,0.4089,0.426,0.4457,0.4491,0.4463,0.4273,0.4135,0.4024,0.3996,0.3996,0.3965,0.3852,0.3824,0.3771,0.3635,0.361,0.3613,0.3613,0.3613,0.3613,0.3613,0.3613,0.3613,0.3613,0.3613,0.3613,0.3613,0.3613,0.3613,0.3613,0.3846,0.3958,0.3958,0.4231,0.4375,0.4351,0.4411,0.4423,0.4448,0.4566,0.4676,0.4761,0.4785,0.4797,0.4797,0.4797,0.4827,0.4861,0.4861,0.4861,0.4897,0.4897,0.4894,0.4861,0.4897,0.482,0.4685,0.4696,0.4642,0.4575,0.4549,0.4525,0.4491,0.4491,0.4491,0.4491,0.4491,0.4818,0.5171,0.5171,0.4836,0.4716,0.5312,0.5445,0.5445,0.5445,0.5359,0.5179,0.4772,0.514,0.5526,0.5595,0.601,0.6,0.5065,0.5214,0.5424,0.5392,0.5289,0.5289,0.5474,0.5957,0.6273,0.6402,0.6815,0.7191,0.7402,0.7792,0.7807,0.7446,0.7605,0.7671,0.7632,0.7851,0.7949,0.7901,0.7949,0.7967,0.2625,0.2919,0.3333,0.3734,0.4011,0.426,0.4457,0.4491,0.4491,0.4463,0.4301,0.4138,0.4024,0.3996,0.3993,0.3965,0.3882,0.3796,0.3769,0.3663,0.3613,0.3613,0.3613,0.3613,0.3613,0.3613,0.3613,0.3613,0.3613,0.3613,0.3613,0.3613,0.3613,0.3613,0.3733,0.3822,0.3822,0.4096,0.4224,0.4219,0.4409,0.456,0.4663,0.4679,0.4658,0.4627,0.4746,0.4797,0.4797,0.4797,0.4894,0.5054,0.5054,0.5156,0.5329,0.5329,0.5226,0.509,0.5259,0.518,0.5042,0.5044,0.4957,0.4833,0.4702,0.4582,0.4491,0.4491,0.4491,0.4491,0.4491,0.4546,0.4598,0.4598,0.4646,0.4933,0.5863,0.6073,0.6073,0.6073,0.566,0.5329,0.5433,0.5016,0.4868,0.5496,0.6339,0.6835,0.6684,0.671,0.6717,0.6595,0.6551,0.6709,0.7052,0.7159,0.7219,0.7247,0.7321,0.7639,0.8313,0.8377,0.8654,0.9148,0.8758,0.8426,0.8207,0.8227,0.8123,0.7907,0.8135,0.8237,0.2809,0.2939,0.3195,0.3676,0.3958,0.4132,0.4284,0.4433,0.4491,0.4491,0.4436,0.4353,0.4298,0.427,0.4242,0.4135,0.4052,0.3993,0.391,0.3799,0.3716,0.3716,0.3638,0.3613,0.3613,0.3613,0.3613,0.3613,0.3613,0.3613,0.3613,0.3663,0.3716,0.3716,0.3913,0.4024,0.4024,0.4251,0.4363,0.4384,0.4463,0.4525,0.4593,0.4653,0.472,0.4768,0.4832,0.4903,0.4974,0.4974,0.5085,0.5259,0.5259,0.5326,0.5395,0.5395,0.5359,0.5292,0.5362,0.5326,0.5282,0.5281,0.5104,0.4877,0.484,0.4653,0.4491,0.4491,0.4491,0.4491,0.4491,0.4804,0.5129,0.5112,0.549,0.5893,0.6145,0.6379,0.6673,0.7068,0.6663,0.6324,0.652,0.6426,0.6477,0.6829,0.7762,0.8401,0.8401,0.8401,0.8169,0.7595,0.7293,0.7195,0.7386,0.7777,0.8004,0.8004,0.8366,0.8727,0.9049,0.9055,0.9183,0.9484,0.9125,0.88,0.8536,0.8363,0.8159,0.7907,0.8171,0.8291,0.2897,0.2903,0.2996,0.3501,0.3765,0.3944,0.4143,0.4304,0.4447,0.4484,0.4491,0.4491,0.4491,0.4491,0.4463,0.4301,0.4221,0.4166,0.4052,0.3938,0.3852,0.3852,0.3744,0.3663,0.3663,0.361,0.3613,0.3613,0.3613,0.361,0.3638,0.3744,0.3824,0.3852,0.4079,0.4193,0.4193,0.4408,0.4491,0.4491,0.4491,0.4491,0.4494,0.4607,0.4694,0.4806,0.4854,0.4948,0.5049,0.5083,0.5199,0.5341,0.5378,0.5395,0.5395,0.5395,0.5395,0.5395,0.5395,0.5395,0.5395,0.5395,0.5186,0.4941,0.4941,0.4789,0.4607,0.4607,0.458,0.4577,0.4741,0.5086,0.5404,0.5573,0.6109,0.6589,0.6572,0.6813,0.7205,0.783,0.7488,0.7145,0.7355,0.7136,0.7218,0.7987,0.889,0.9516,0.9516,0.9516,0.9221,0.8528,0.8134,0.7939,0.7939,0.8431,0.8753,0.8753,0.9221,0.9516,0.9516,0.9516,0.9516,0.9516,0.9312,0.9071,0.8806,0.8548,0.8291,0.8105,0.8369,0.8518,0.2737,0.2757,0.2868,0.3076,0.3381,0.3714,0.4097,0.42,0.4271,0.446,0.4491,0.4491,0.4491,0.4491,0.4491,0.4491,0.4328,0.4193,0.4193,0.4079,0.3993,0.3993,0.3879,0.3796,0.3796,0.3663,0.3613,0.3613,0.3613,0.3663,0.3769,0.3796,0.3852,0.3993,0.4138,0.4193,0.4193,0.4408,0.4491,0.4491,0.4491,0.4491,0.4491,0.4498,0.4505,0.4532,0.4792,0.4891,0.4911,0.5046,0.5103,0.5127,0.5337,0.5395,0.5395,0.5395,0.5395,0.5395,0.5395,0.5395,0.5395,0.5395,0.525,0.509,0.509,0.4982,0.4864,0.4864,0.4792,0.4822,0.5398,0.5147,0.489,0.5456,0.5928,0.6488,0.743,0.7647,0.7735,0.8019,0.7638,0.7334,0.7552,0.5955,0.5586,0.8242,0.9149,0.9516,0.9516,0.9516,0.9484,0.9446,0.9414,0.9388,0.9388,0.942,0.9452,0.9452,0.9484,0.9516,0.9516,0.9516,0.9516,0.9516,0.9472,0.936,0.9077,0.8812,0.868,0.8674,0.8933,0.9059,0.2583,0.2531,0.2487,0.2768,0.3157,0.3494,0.3591,0.3845,0.4119,0.4267,0.4297,0.4355,0.447,0.4491,0.4491,0.4491,0.4436,0.4384,0.4384,0.4245,0.4138,0.4138,0.4024,0.3938,0.3938,0.3885,0.3858,0.3858,0.3858,0.3885,0.3938,0.4024,0.4079,0.4138,0.4301,0.4384,0.4384,0.4463,0.4491,0.4491,0.4491,0.4491,0.4491,0.4491,0.4491,0.4494,0.4607,0.468,0.4775,0.4826,0.4958,0.5103,0.5189,0.5274,0.5382,0.525,0.5277,0.5382,0.5247,0.5277,0.5395,0.5395,0.5257,0.51,0.51,0.5002,0.4887,0.4887,0.5205,0.5547,0.5582,0.5956,0.6371,0.6684,0.6667,0.675,0.7375,0.7892,0.8363,0.89,0.8828,0.8734,0.8823,0.8207,0.8048,0.9073,0.939,0.9516,0.9516,0.9516,0.9516,0.9516,0.9516,0.9516,0.9516,0.9516,0.9516,0.9516,0.9516,0.9516,0.9516,0.9516,0.9516,0.9516,0.9336,0.9197,0.9095,0.9005,0.8872,0.8716,0.8975,0.9095,0.2528,0.2421,0.2342,0.2627,0.2901,0.3155,0.3347,0.3596,0.3829,0.4028,0.4109,0.419,0.4362,0.4392,0.4433,0.4484,0.4491,0.4491,0.4491,0.4384,0.4301,0.4301,0.4162,0.4079,0.4079,0.4024,0.3996,0.3996,0.3996,0.4024,0.4052,0.4166,0.4221,0.4301,0.4436,0.4491,0.4491,0.4491,0.4491,0.4491,0.4491,0.4491,0.4491,0.4491,0.4491,0.4491,0.4491,0.4549,0.4648,0.467,0.4806,0.4958,0.5009,0.5121,0.5199,0.5098,0.5125,0.5199,0.5063,0.5128,0.5277,0.5463,0.5452,0.5362,0.558,0.5639,0.5636,0.5636,0.5996,0.6371,0.633,0.6832,0.7448,0.7708,0.7391,0.7199,0.7944,0.8102,0.8328,0.9022,0.935,0.9516,0.9516,0.9516,0.9516,0.9516,0.9516,0.9516,0.9516,0.9516,0.9516,0.9516,0.9516,0.9516,0.9516,0.9516,0.9516,0.9516,0.9516,0.9516,0.9516,0.9516,0.9516,0.9516,0.933,0.9239,0.9239,0.9143,0.9059,0.8981,0.9155,0.9239,0.0,0.0,0.0,0.2622,0.2582,0.2688,0.3399,0.3414,0.3373,0.3724,0.39,0.4024,0.416,0.419,0.4267,0.446,0.4487,0.4491,0.4491,0.4491,0.4491,0.4491,0.4328,0.4221,0.4221,0.4079,0.4024,0.4024,0.4024,0.4079,0.4193,0.4221,0.4301,0.4491,0.4491,0.4491,0.4491,0.4491,0.4491,0.4491,0.4491,0.4491,0.4491,0.4491,0.4491,0.4491,0.4491,0.4491,0.4501,0.4651,0.4687,0.4704,0.4853,0.4884,0.4887,0.4884,0.4884,0.4887,0.4914,0.4914,0.5036,0.5627,0.5834,0.5924,0.6524,0.6883,0.7082,0.7082,0.7135,0.73,0.7645,0.7741,0.7889,0.8414,0.7972,0.7809,0.9189,0.8398,0.7647,0.8393,0.9049,0.9516,0.9516,0.9516,0.9516,0.9516,0.9516,0.9516,0.9516,0.9516,0.9516,0.9516,0.9516,0.9516,0.9516,0.9516,0.9516,0.9516,0.9516,0.9516,0.9516,0.9516,0.9516,0.9516,0.9516,0.9516,0.9484,0.9239,0.9245,0.9516,0.9516,0.9516,0.2331,0.0,0.0,0.0,0.0,0.0,0.2726,0.2832,0.3012,0.3552,0.3607,0.3672,0.3991,0.4146,0.4207,0.4274,0.4395,0.4491,0.4491,0.4491,0.4491,0.4491,0.4463,0.4408,0.4408,0.438,0.4353,0.4353,0.4353,0.438,0.4408,0.4408,0.4436,0.4491,0.4491,0.4491,0.4491,0.4491,0.4491,0.4491,0.4491,0.4491,0.4491,0.4491,0.4491,0.4491,0.4491,0.4491,0.4494,0.4535,0.4617,0.4694,0.4738,0.4819,0.4874,0.4796,0.4823,0.4965,0.5292,0.5474,0.5657,0.6254,0.6464,0.6494,0.6644,0.6745,0.6822,0.6822,0.7159,0.7728,0.8503,0.8714,0.8801,0.914,0.8689,0.8296,0.8689,0.8458,0.8393,0.9087,0.9382,0.9516,0.9516,0.9516,0.9516,0.9516,0.9516,0.9516,0.9516,0.9516,0.9516,0.9516,0.9516,0.9516,0.9516,0.9516,0.9516,0.9516,0.9516,0.9516,0.9516,0.9516,0.9516,0.9516,0.9516,0.9516,0.9516,0.9438,0.9438,0.9516,0.9516,0.9516,0.2841,0.2776,0.2759,0.2465,0.0,0.0,0.2615,0.2647,0.2754,0.3221,0.3297,0.3395,0.3765,0.391,0.4004,0.4167,0.4291,0.4395,0.4481,0.4491,0.4491,0.4491,0.4491,0.4491,0.4491,0.4491,0.4491,0.4491,0.4491,0.4491,0.4491,0.4491,0.4491,0.4491,0.4491,0.4491,0.4491,0.4491,0.4491,0.4491,0.4491,0.4491,0.4491,0.4491,0.4491,0.4491,0.4491,0.4491,0.4491,0.4491,0.4542,0.4624,0.4624,0.465,0.4718,0.4655,0.4822,0.5118,0.5389,0.5702,0.6074,0.6683,0.6855,0.6912,0.7146,0.7265,0.7372,0.7372,0.7739,0.8261,0.8938,0.9095,0.9167,0.945,0.9215,0.892,0.892,0.892,0.8952,0.9055,0.9318,0.9516,0.9516,0.9516,0.9516,0.9516,0.9516,0.9516,0.9516,0.9516,0.9516,0.9516,0.9516,0.9516,0.9516,0.9516,0.9516,0.9516,0.9516,0.9516,0.9516,0.9516,0.9516,0.9516,0.9516,0.9516,0.9516,0.9516,0.9516,0.9516,0.9516,0.9516,0.3775,0.3579,0.3427,0.3298,0.2934,0.0,0.2863,0.2708,0.2592,0.2849,0.2976,0.3164,0.3494,0.3566,0.3687,0.4033,0.4123,0.4233,0.4464,0.4491,0.4491,0.4491,0.4491,0.4491,0.4491,0.4491,0.4491,0.4491,0.4491,0.4491,0.4491,0.4491,0.4491,0.4491,0.4491,0.4491,0.4491,0.4491,0.4491,0.4491,0.4491,0.4491,0.4491,0.4491,0.4491,0.4491,0.4491,0.4491,0.4491,0.4491,0.4491,0.4491,0.4491,0.4546,0.4598,0.4598,0.4924,0.5418,0.5469,0.5855,0.6399,0.6999,0.7192,0.7273,0.7768,0.8063,0.8249,0.8249,0.8435,0.8716,0.8951,0.9053,0.9161,0.9408,0.9492,0.9516,0.9516,0.9516,0.9318,0.8721,0.9087,0.9516,0.9516,0.9516,0.9516,0.9516,0.9516,0.9516,0.9516,0.9516,0.9516,0.9516,0.9516,0.9516,0.9516,0.9516,0.9516,0.9516,0.9516,0.9516,0.9516,0.9516,0.9516,0.9516,0.9516,0.9516,0.9516,0.9516,0.9516,0.9516,0.9516,0.9516,0.4368,0.4382,0.4356,0.3755,0.349,0.0,0.3046,0.2815,0.2703,0.2873,0.2832,0.2856,0.3138,0.3334,0.3447,0.3467,0.3701,0.4016,0.4436,0.4491,0.4491,0.4491,0.4491,0.4491,0.4491,0.4491,0.4491,0.4491,0.4491,0.4491,0.4491,0.4491,0.4491,0.4491,0.4491,0.4491,0.4491,0.4491,0.4491,0.4491,0.4491,0.4491,0.4491,0.4491,0.4491,0.4491,0.4491,0.4491,0.4491,0.4491,0.4491,0.4491,0.4491,0.4763,0.5144,0.5144,0.5523,0.61,0.6593,0.6837,0.7004,0.7574,0.7741,0.7762,0.7875,0.7937,0.7973,0.7973,0.8165,0.8375,0.8457,0.8782,0.9107,0.9167,0.9354,0.9516,0.9516,0.9516,0.9452,0.9318,0.9414,0.9516,0.9516,0.9516,0.9516,0.9516,0.9516,0.9516,0.9516,0.9516,0.9516,0.9516,0.9516,0.9516,0.9516,0.9516,0.9516,0.9516,0.9516,0.9516,0.9516,0.9516,0.9516,0.9516,0.9516,0.9516,0.9516,0.9516,0.9516,0.9516,0.9516,0.9516,0.5151,0.5098,0.5096,0.4665,0.437,0.0,0.0,0.3483,0.3119,0.3403,0.3047,0.2812,0.3145,0.3236,0.3286,0.3418,0.3649,0.387,0.4122,0.4218,0.427,0.4348,0.4355,0.4355,0.4355,0.4447,0.4491,0.4491,0.4491,0.4491,0.4491,0.4491,0.4491,0.4491,0.4491,0.4491,0.4491,0.4491,0.4491,0.4491,0.4491,0.4491,0.4491,0.4491,0.4491,0.4491,0.4491,0.4491,0.4515,0.4791,0.4897,0.4897,0.4897,0.5062,0.5332,0.5632,0.6127,0.6701,0.6999,0.7273,0.7547,0.7821,0.7901,0.7901,0.7901,0.7901,0.7901,0.7901,0.8087,0.8321,0.8475,0.88,0.9131,0.9269,0.9414,0.9516,0.9516,0.9516,0.9516,0.9516,0.9516,0.9516,0.9516,0.9516,0.9516,0.9516,0.9516,0.9516,0.9516,0.9516,0.9516,0.9516,0.9516,0.9516,0.9516,0.9516,0.9516,0.9516,0.9516,0.9516,0.9516,0.9516,0.9516,0.9516,0.9516,0.9516,0.9516,0.9516,0.9516,0.9516,0.9516,0.9516,0.6027,0.5906,0.5839,0.5579,0.53,0.5037,0.0,0.0,0.0,0.3934,0.3406,0.2983,0.3219,0.3142,0.3141,0.3412,0.3568,0.3663,0.3663,0.3772,0.3933,0.4112,0.4133,0.4164,0.419,0.4328,0.4426,0.4487,0.4436,0.4429,0.4487,0.4491,0.4491,0.4491,0.4491,0.4491,0.4491,0.4491,0.4491,0.4491,0.4491,0.4491,0.4491,0.4491,0.4491,0.4519,0.4598,0.4653,0.4708,0.5254,0.5469,0.5469,0.5469,0.5555,0.5714,0.6209,0.6756,0.7246,0.7246,0.7547,0.7901,0.7901,0.7901,0.7901,0.7901,0.7901,0.7901,0.7901,0.8087,0.8339,0.8578,0.886,0.9155,0.9378,0.9474,0.9516,0.9516,0.9516,0.9516,0.9516,0.9516,0.9516,0.9516,0.9516,0.9516,0.9516,0.9516,0.9516,0.9516,0.9516,0.9516,0.9516,0.9516,0.9516,0.9516,0.9516,0.9516,0.9516,0.9516,0.9516,0.9516,0.9516,0.9516,0.9516,0.9516,0.9516,0.9516,0.9516,0.9516,0.9516,0.9516,0.9516,0.7036,0.7018,0.6854,0.6126,0.6044,0.5878,0.4862,0.0,0.4635,0.3963,0.0,0.3566,0.3195,0.0,0.0,0.2981,0.3084,0.3175,0.3175,0.3286,0.3487,0.3809,0.394,0.4072,0.4184,0.4112,0.4178,0.447,0.4219,0.4185,0.4477,0.4491,0.4491,0.4491,0.4491,0.4491,0.4491,0.4491,0.4491,0.4491,0.4491,0.4491,0.4491,0.4491,0.4491,0.4515,0.5007,0.5199,0.525,0.5855,0.61,0.61,0.61,0.6426,0.6891,0.6977,0.7327,0.7821,0.7821,0.7848,0.7901,0.7901,0.7901,0.7901,0.7901,0.7901,0.7901,0.7901,0.8087,0.8297,0.8327,0.8728,0.9101,0.9137,0.9336,0.9516,0.9516,0.9516,0.9516,0.9516,0.9516,0.9516,0.9516,0.9516,0.9516,0.9516,0.9516,0.9516,0.9516,0.9516,0.9516,0.9516,0.9516,0.9516,0.9516,0.9516,0.9516,0.9516,0.9516,0.9516,0.9516,0.9516,0.9516,0.9516,0.9516,0.9516,0.9516,0.9516,0.9516,0.9516,0.9516,0.9516,0.7333,0.7272,0.705,0.6435,0.6441,0.6401,0.5645,0.5339,0.5183,0.5047,0.0,0.0,0.0,0.0,0.0,0.0,0.3064,0.304,0.289,0.298,0.3182,0.3478,0.3592,0.3724,0.3937,0.3924,0.3975,0.4189,0.4009,0.4019,0.4321,0.4338,0.4375,0.4487,0.4491,0.4491,0.4491,0.4491,0.4491,0.4491,0.4491,0.4491,0.4491,0.4491,0.4491,0.4519,0.4736,0.4846,0.4873,0.5445,0.5878,0.6209,0.6209,0.6566,0.7139,0.7434,0.7708,0.7901,0.7901,0.7901,0.7901,0.7901,0.7901,0.7901,0.7901,0.7901,0.7901,0.7901,0.8087,0.8327,0.8506,0.8818,0.9137,0.93,0.9426,0.9516,0.9516,0.9516,0.9516,0.9516,0.9516,0.9516,0.9516,0.9516,0.9516,0.9516,0.9516,0.9516,0.9516,0.9516,0.9516,0.9516,0.9516,0.9516,0.9516,0.9516,0.9516,0.9516,0.9516,0.9516,0.9516,0.9516,0.9516,0.9516,0.9516,0.9516,0.9516,0.9798,0.9958,0.9958,0.9644,0.9516,0.7691,0.761,0.7389,0.6781,0.6813,0.6785,0.6052,0.5836,0.5758,0.5679,0.4898,0.0,0.0,0.0,0.3363,0.0,0.0,0.3186,0.2875,0.2843,0.2909,0.3121,0.3273,0.3457,0.3672,0.3632,0.3704,0.3938,0.3778,0.3815,0.4174,0.4197,0.4287,0.4484,0.4491,0.4491,0.4491,0.4491,0.4491,0.4491,0.4491,0.4491,0.4491,0.4491,0.4491,0.4519,0.4653,0.4708,0.4763,0.5308,0.58,0.6209,0.6372,0.6701,0.7139,0.7547,0.7762,0.7901,0.7901,0.7901,0.7901,0.7901,0.7901,0.7901,0.7901,0.7901,0.7919,0.7991,0.8195,0.8481,0.8746,0.9011,0.9263,0.9468,0.9516,0.9516,0.9516,0.9516,0.9516,0.9516,0.9516,0.9516,0.9516,0.9516,0.9516,0.9516,0.9516,0.9516,0.9516,0.9516,0.9516,0.9516,0.9516,0.9516,0.9516,0.9516,0.9516,0.9516,0.9516,0.9516,0.9516,0.9516,0.9516,0.9516,0.9516,0.9516,0.9516,1.0053,1.0301,1.0301,0.9894,0.9708,0.8369,0.8369,0.8152,0.7215,0.718,0.7022,0.5632,0.6067,0.6417,0.5276,0.5207,0.5274,0.5021,0.443,0.0,0.0,0.0,0.0,0.0,0.2915,0.271,0.272,0.3067,0.3333,0.3406,0.3232,0.3303,0.3765,0.3505,0.3577,0.4164,0.4197,0.4287,0.4484,0.4491,0.4491,0.4491,0.4491,0.4491,0.4491,0.4491,0.4491,0.4491,0.4491,0.4491,0.4515,0.5062,0.5281,0.5336,0.5932,0.6182,0.6263,0.6837,0.7085,0.7112,0.7112,0.7467,0.7901,0.7901,0.7901,0.7901,0.7901,0.7901,0.7901,0.7901,0.7901,0.7955,0.8207,0.8493,0.8758,0.9017,0.9293,0.9472,0.951,0.9516,0.9516,0.9516,0.9516,0.9516,0.9516,0.9516,0.9516,0.9516,0.9516,0.9516,0.9516,0.9516,0.9516,0.9516,0.9516,0.9516,0.9516,0.9516,0.9516,0.9516,0.9516,0.9516,0.9516,0.9516,0.9516,0.9516,0.9516,0.9516,0.9516,0.9516,0.9516,0.9516,1.0053,1.0301,1.0301,1.0276,1.0269,0.8501,0.8474,0.8208,0.7387,0.7309,0.7072,0.5801,0.5855,0.5971,0.5162,0.5131,0.5212,0.5026,0.4712,0.0,0.0,0.0,0.0,0.0,0.3148,0.2959,0.2959,0.2922,0.2907,0.2928,0.3162,0.3301,0.3327,0.3433,0.3626,0.3921,0.4018,0.4139,0.4291,0.444,0.4491,0.4491,0.4842,0.4842,0.4519,0.4873,0.4842,0.4491,0.4491,0.4491,0.4519,0.468,0.4763,0.4818,0.5363,0.585,0.6209,0.6426,0.6972,0.7628,0.7628,0.7741,0.7901,0.7901,0.7901,0.7901,0.7901,0.7901,0.7901,0.7901,0.8021,0.8177,0.8261,0.8632,0.8987,0.9071,0.9306,0.9516,0.9516,0.9516,0.9516,0.9516,0.9516,0.9516,0.9516,0.9516,0.9516,0.9516,0.9516,0.9516,0.9516,0.9516,0.9516,0.9516,0.9516,0.9516,0.9516,0.9516,0.9516,0.9516,0.9516,0.9516,0.9516,0.9516,0.9516,0.9516,0.9516,0.9516,0.9516,0.9516,0.9516,0.9516,1.0053,1.046,1.0769,1.0769,1.0769,0.8659,0.8613,0.8383,0.7764,0.766,0.7357,0.6135,0.6147,0.6257,0.5586,0.5365,0.5397,0.5781,0.5281,0.0,0.0,0.0,0.0,0.0,0.3356,0.3236,0.3236,0.3021,0.2928,0.3039,0.3061,0.3166,0.3376,0.3362,0.3519,0.3892,0.3955,0.4065,0.419,0.4575,0.4791,0.4791,0.5336,0.5336,0.4791,0.5144,0.5117,0.4791,0.4791,0.4791,0.4791,0.5007,0.4979,0.4818,0.5386,0.5855,0.6209,0.6426,0.6972,0.7628,0.7628,0.7735,0.7901,0.7901,0.7901,0.7901,0.7901,0.7901,0.7919,0.8009,0.8159,0.8327,0.8542,0.8836,0.9119,0.9221,0.9378,0.9516,0.9516,0.9516,0.9516,0.9516,0.9516,0.9516,0.9516,0.9516,0.9516,0.9516,0.9516,0.9516,0.9516,0.9516,0.9516,0.9516,0.9516,0.9516,0.9516,0.9516,0.9516,0.9516,0.958,0.958,0.9516,0.9516,0.9548,0.9612,0.9548,0.9548,0.9612,0.9548,0.9516,0.9516,1.0053,1.0555,1.0982,1.1209,1.1397]}]]